[[{"header":{"parameterUnit":"m.s-1","parameterCategory":1,"la1":30.6,"la2":29.2853,"lo1":-89.7004,"lo2":-87.6739,"dy":0.0162,"dx":0.0183,"nx":112,"ny":82,"refTime":"2024-05-09T12:00:00:Z","depth":0,"parameterNumber":2,"parameterNumberName":"U-component_of_WINDS"},"data":[0.0,0.0,0.0,0.0,0.0,0.0,0.0,0.0,0.0,0.0,0.0,0.0,0.0,0.0,0.0,0.0,0.0,0.0,0.0,0.0,0.0,0.0,0.0,0.0,0.0,0.0,0.0,0.0,0.0,0.0,0.0,0.0,0.0,0.0,0.0,0.0,0.0,0.0,0.0,0.0,0.0,0.0,0.0,0.0,0.0,0.0,0.0,0.0,0.0,0.0,0.0,0.0,0.0,0.0,0.0,0.0,0.0,0.0,0.0,0.0,0.0,0.0,0.0,0.0,0.0,0.0,0.0,0.0,0.0,0.0,0.0,0.0,0.0,0.0,0.0,0.0,0.0,0.0,0.0,0.0,0.0,0.0,0.0,0.0,0.0,0.0,0.0,0.0,0.0,0.0,2.4266,2.6672,3.0884,3.4187,3.5779,3.4396,3.1794,2.7918,0.0,0.0,0.0,0.0,0.0,0.0,0.0,0.0,0.0,0.0,0.0,0.0,0.0,0.0,0.0,0.0,0.0,0.0,0.0,0.0,0.0,0.0,0.0,0.0,0.0,0.0,0.0,0.0,0.0,0.0,0.0,0.0,0.0,0.0,0.0,0.0,0.0,0.0,0.0,0.0,0.0,0.0,0.0,0.0,0.0,0.0,0.0,0.0,0.0,0.0,0.0,0.0,0.0,0.0,0.0,0.0,0.0,0.0,0.0,0.0,0.0,0.0,0.0,0.0,0.0,0.0,0.0,0.0,0.0,0.0,0.0,0.0,0.0,0.0,0.0,0.0,0.0,0.0,0.0,0.0,0.0,0.0,0.0,0.0,0.0,0.0,0.0,0.0,0.0,0.0,0.0,0.0,0.0,0.0,0.0,0.0,0.0,0.0,0.0,0.0,0.0,0.0,0.0,0.0,2.4353,3.0068,3.2184,3.3571,3.4589,3.3189,3.0922,2.7728,0.0,0.0,0.0,0.0,0.0,0.0,0.0,0.0,0.0,0.0,0.0,0.0,0.0,0.0,0.0,0.0,0.0,0.0,0.0,0.0,0.0,0.0,0.0,0.0,0.0,0.0,0.0,0.0,0.0,0.0,0.0,0.0,0.0,0.0,0.0,0.0,0.0,0.0,0.0,0.0,0.0,0.0,0.0,0.0,0.0,0.0,0.0,0.0,0.0,0.0,0.0,0.0,0.0,0.0,0.0,0.0,0.0,0.0,0.0,0.0,0.0,0.0,0.0,0.0,0.0,0.0,0.0,0.0,0.0,0.0,0.0,0.0,0.0,0.0,0.0,0.0,0.0,0.0,0.0,0.0,0.0,0.0,0.0,0.0,0.0,0.0,0.0,0.0,0.0,0.0,0.0,0.0,0.0,0.0,0.0,0.0,0.0,0.0,0.0,0.0,0.0,0.0,0.0,2.3283,2.6423,3.1451,3.2939,3.3883,3.4748,3.2929,3.0395,2.7321,2.4035,0.0,0.0,0.0,0.0,0.0,0.0,0.0,0.0,0.0,0.0,0.0,0.0,0.0,0.0,0.0,0.0,0.0,0.0,0.0,0.0,0.0,0.0,0.0,0.0,0.0,0.0,0.0,0.0,0.0,0.0,0.0,0.0,0.0,0.0,0.0,0.0,0.0,0.0,0.0,0.0,0.0,0.0,0.0,0.0,0.0,0.0,0.0,0.0,0.0,0.0,0.0,0.0,0.0,0.0,0.0,0.0,0.0,0.0,0.0,0.0,0.0,0.0,0.0,0.0,0.0,0.0,0.0,0.0,0.0,0.0,0.0,0.0,0.0,0.0,0.0,0.0,0.0,0.0,0.0,0.0,0.0,0.0,0.0,0.0,0.0,0.0,0.0,0.0,0.0,0.0,0.0,0.0,0.0,0.0,0.0,0.0,0.0,0.0,0.0,0.0,0.0,0.0,2.5789,2.8565,3.1874,3.3021,3.3879,3.4741,3.2256,2.9488,2.6729,2.239,0.0,0.0,0.0,0.0,0.0,0.0,0.0,0.0,0.0,0.0,0.0,0.0,0.0,0.0,0.0,0.0,0.0,0.0,0.0,0.0,0.0,0.0,0.0,0.0,0.0,0.0,0.0,0.0,0.0,0.0,0.0,0.0,0.0,0.0,0.0,0.0,0.0,0.0,0.0,0.0,0.0,0.0,0.0,0.0,0.0,0.0,0.0,0.0,0.0,0.0,0.0,0.0,0.0,0.0,0.0,0.0,0.0,0.0,0.0,0.0,0.0,0.0,0.0,0.0,0.0,0.0,0.0,0.0,0.0,0.0,0.0,0.0,0.0,0.0,0.0,0.0,0.0,0.0,0.0,0.0,0.0,0.0,0.0,0.0,0.0,0.0,0.0,0.0,0.0,0.0,0.0,0.0,0.0,0.0,0.0,0.0,0.0,0.0,0.0,0.0,0.0,0.0,2.6274,2.9801,3.1559,3.2216,3.283,3.3633,3.0349,2.754,2.5893,2.0537,0.0,0.0,0.0,0.0,0.0,0.0,0.0,0.0,0.0,0.0,0.0,0.0,0.0,0.0,0.0,0.0,0.0,0.0,0.0,0.0,0.0,0.0,0.0,0.0,0.0,0.0,0.0,0.0,0.0,0.0,0.0,0.0,0.0,0.0,0.0,0.0,0.0,0.0,0.0,0.0,0.0,0.0,0.0,0.0,0.0,0.0,0.0,0.0,0.0,0.0,0.0,0.0,0.0,0.0,0.0,0.0,0.0,0.0,0.0,0.0,0.0,0.0,0.0,0.0,0.0,0.0,0.0,0.0,0.0,0.0,0.0,0.0,0.0,0.0,0.0,0.0,0.0,0.0,0.0,0.0,0.0,0.0,0.0,0.0,0.0,0.0,0.0,0.0,0.0,0.0,0.0,0.0,0.0,0.0,0.0,0.0,0.0,0.0,0.0,0.0,0.0,0.0,2.463,2.7918,0.0,3.2014,3.2545,3.1849,3.0114,2.7575,2.4042,0.0,0.0,0.0,0.0,0.0,0.0,0.0,0.0,0.0,0.0,0.0,0.0,0.0,0.0,0.0,0.0,0.0,0.0,0.0,0.0,0.0,0.0,0.0,0.0,0.0,0.0,0.0,0.0,0.0,0.0,0.0,0.0,0.0,0.0,0.0,0.0,0.0,0.0,0.0,0.0,0.0,0.0,0.0,0.0,0.0,0.0,0.0,0.0,0.0,0.0,0.0,0.0,0.0,0.0,0.0,0.0,0.0,0.0,0.0,0.0,0.0,0.0,0.0,0.0,0.0,0.0,0.0,0.0,0.0,0.0,0.0,0.0,0.0,0.0,0.0,0.0,0.0,0.0,0.0,0.0,0.0,0.0,0.0,0.0,0.0,0.0,0.0,0.0,0.0,0.0,0.0,0.0,0.0,0.0,0.0,0.0,0.0,0.0,0.0,0.0,0.0,0.0,2.0653,2.405,2.721,0.0,3.1818,3.2187,3.1041,2.953,2.6814,2.2567,0.0,0.0,0.0,0.0,0.0,0.0,0.0,0.0,0.0,0.0,0.0,0.0,0.0,0.0,0.0,0.0,0.0,0.0,0.0,0.0,0.0,0.0,0.0,0.0,0.0,0.0,0.0,0.0,0.0,0.0,0.0,0.0,0.0,0.0,0.0,0.0,0.0,0.0,0.0,0.0,0.0,0.0,0.0,0.0,0.0,0.0,0.0,0.0,0.0,0.0,0.0,0.0,0.0,0.0,0.0,0.0,0.0,0.0,0.0,0.0,0.0,0.0,0.0,0.0,0.0,0.0,0.0,0.0,0.0,0.0,0.0,0.0,0.0,0.0,0.0,0.0,0.0,0.0,0.0,0.0,0.0,0.0,0.0,0.0,0.0,0.0,0.0,0.0,0.0,0.0,0.0,0.0,0.0,0.0,0.0,0.0,0.0,0.0,0.0,0.0,0.0,0.0,2.1257,2.4913,2.8174,3.0782,3.1452,3.1622,3.1452,2.8298,2.4889,0.0,0.0,0.0,0.0,0.0,0.0,0.0,0.0,0.0,0.0,0.0,0.0,0.0,0.0,0.0,0.0,0.0,0.0,0.0,0.0,0.0,0.0,0.0,0.0,0.0,0.0,0.0,0.0,0.0,0.0,0.0,0.0,0.0,0.0,0.0,0.0,0.0,0.0,0.0,0.0,0.0,0.0,0.0,0.0,0.0,0.0,0.0,0.0,0.0,0.0,0.0,0.0,0.0,0.0,0.0,0.0,0.0,0.0,0.0,0.0,0.0,0.0,0.0,0.0,0.0,0.0,0.0,0.0,0.0,0.0,0.0,0.0,0.0,0.0,0.0,0.0,0.0,0.0,0.0,0.0,0.0,0.0,0.0,0.0,0.0,0.0,0.0,0.0,0.0,0.0,0.0,0.0,0.0,0.0,0.0,0.0,0.0,0.0,0.0,0.0,0.0,0.0,0.0,2.0237,2.3864,2.6935,2.9049,2.9922,2.9959,2.8976,2.7594,2.5003,2.0823,0.0,0.0,0.0,0.0,0.0,0.0,0.0,0.0,0.0,0.0,0.0,0.0,0.0,0.0,0.0,0.0,0.0,0.0,0.0,0.0,0.0,0.0,0.0,0.0,0.0,0.0,0.0,0.0,0.0,0.0,0.0,0.0,0.0,0.0,0.0,0.0,0.0,0.0,0.0,0.0,0.0,0.0,0.0,0.0,0.0,0.0,0.0,0.0,0.0,0.0,0.0,0.0,0.0,0.0,0.0,0.0,0.0,0.0,0.0,0.0,0.0,0.0,0.0,0.0,0.0,0.0,0.0,0.0,0.0,0.0,0.0,0.0,0.0,0.0,0.0,0.0,0.0,0.0,0.0,0.0,0.0,0.0,0.0,0.0,0.0,0.0,0.0,0.0,0.0,0.0,0.0,0.0,0.0,0.0,0.0,0.0,0.0,0.0,0.0,0.0,0.0,0.0,2.0298,2.3426,2.6119,2.8276,2.9106,2.9158,2.8245,2.7512,2.51,2.0405,0.0,0.0,0.0,0.0,0.0,0.0,0.0,0.0,0.0,0.0,0.0,0.0,0.0,0.0,0.0,0.0,0.0,0.0,0.0,0.0,0.0,0.0,0.0,0.0,0.0,0.0,0.0,0.0,0.0,0.0,0.0,0.0,0.0,0.0,0.0,0.0,0.0,0.0,0.0,0.0,0.0,0.0,0.0,0.0,0.0,0.0,0.0,0.0,0.0,0.0,0.0,0.0,0.0,0.0,0.0,0.0,0.0,0.0,0.0,0.0,0.0,0.0,0.0,0.0,0.0,0.0,0.0,0.0,0.0,0.0,0.0,0.0,0.0,0.0,0.0,0.0,0.0,0.0,0.0,0.0,0.0,0.0,0.0,0.0,0.0,0.0,0.0,0.0,0.0,0.0,0.0,0.0,0.0,0.0,0.0,0.0,0.0,0.0,0.0,0.0,0.0,0.0,2.0975,2.3363,2.562,2.809,2.8675,2.881,2.8631,2.7654,2.5123,2.0632,0.0,0.0,0.0,0.0,0.0,0.0,0.0,0.0,0.0,0.0,0.0,0.0,0.0,0.0,0.0,0.0,0.0,0.0,0.0,0.0,0.0,0.0,0.0,0.0,0.0,0.0,0.0,0.0,0.0,0.0,0.0,0.0,0.0,0.0,0.0,0.0,0.0,0.0,0.0,0.0,0.0,0.0,0.0,0.0,0.0,0.0,0.0,0.0,0.0,0.0,0.0,0.0,0.0,0.0,0.0,0.0,0.0,0.0,0.0,0.0,-0.02,0.0,0.0,0.0,0.0,0.0,0.0,0.0,0.0,0.0,0.0,0.0,0.0,0.0,0.0,0.0,0.0,0.0,0.0,0.0,0.0,0.0,0.0,0.0,0.0,0.0,0.0,0.0,0.0,0.0,0.0,0.0,0.0,0.0,0.0,0.0,0.0,0.0,0.0,0.0,0.0,0.0,2.0552,2.3076,2.5261,2.7141,2.7439,2.7656,2.7976,2.6737,2.5073,2.3031,2.0297,0.0,0.0,0.0,0.0,0.0,0.0,0.0,0.0,0.0,0.0,0.0,0.0,0.0,0.0,0.0,0.0,0.0,0.0,0.0,0.0,0.0,0.0,0.0,0.0,0.0,0.0,0.0,0.0,0.0,0.0,0.0,0.0,0.0,0.0,0.0,0.0,0.0,0.0,0.0,0.0,0.0,0.0,0.0,0.0,0.0,0.0,0.0,0.0,0.0,0.0,0.0,0.0,0.0,0.0,0.0,0.0,0.0,0.0,0.0,0.0,-0.0823,0.0,0.0,0.0,0.0,0.0,0.0,0.0,0.0,0.0,0.0,0.0,0.0,0.0,0.0,0.0,0.0,0.0,0.0,0.0,0.0,0.0,0.0,0.0,0.0,0.0,0.0,0.0,0.0,0.0,0.0,0.0,0.0,0.0,0.0,0.0,0.0,0.0,0.0,0.0,0.0,2.095,2.2987,2.4722,2.6385,2.6429,2.6452,2.6707,2.5799,2.4629,2.3283,2.1079,0.0,0.0,0.0,0.0,0.0,0.0,0.0,0.0,0.0,0.0,0.0,0.0,0.0,0.0,0.0,0.0,0.0,0.0,0.0,0.0,0.0,0.0,0.0,0.0,0.0,0.0,0.0,0.0,0.0,0.0,0.0,0.0,0.0,0.0,0.0,0.0,0.0,0.0,0.0,0.0,0.0,0.0,0.0,0.0,0.0,0.0,0.0,0.0,0.0,0.0,0.0,0.0,0.0,0.0,-0.3759,-0.3448,-0.2929,-0.2664,-0.2511,-0.2268,-0.1707,-0.1071,0.0,0.0,0.0,0.0,0.0,0.0,0.0,0.0,0.0,0.0,0.0,0.0,0.0,0.0,0.0,0.0,0.0,0.0,0.0,0.0,0.0,0.0,0.0,0.0,0.0,1.3669,1.4071,0.0,0.0,0.0,0.0,0.0,0.0,0.0,0.0,0.0,0.0,0.0,0.0,2.1507,2.3,2.419,2.5717,2.5621,2.5509,2.5588,2.5049,2.4316,2.3365,2.1716,2.0327,0.0,0.0,0.0,0.0,0.0,0.0,0.0,0.0,0.0,0.0,0.0,0.0,0.0,0.0,0.0,0.0,0.0,0.0,0.0,0.0,0.0,0.0,0.0,0.0,0.0,0.0,0.0,0.0,0.0,0.0,0.0,0.0,-0.4985,-0.835,0.0,0.0,0.0,0.0,0.0,0.0,0.0,0.0,0.0,0.0,0.0,0.0,0.0,0.0,-0.47,-0.4445,-0.4786,-0.565,-0.5083,-0.4856,-0.4926,-0.4277,-0.366,-0.309,-0.2878,0.0,-0.2289,-0.3547,0.0,0.0,0.0,0.0,0.0,0.0,0.0,0.0,0.0,0.0,0.0,0.0,0.0,0.0,0.0,0.0,0.0,0.0,0.0,0.0,0.0,0.0,1.3145,1.4457,1.475,1.5078,0.0,1.4856,1.3167,1.2769,0.0,0.0,0.0,0.0,0.0,0.0,0.0,0.0,2.1302,2.2811,2.3956,2.4871,2.5177,2.5401,2.5596,2.4837,2.4733,2.5613,2.3601,2.2703,2.3382,2.0065,0.0,0.0,0.0,0.0,0.0,0.0,0.0,0.0,0.0,0.0,0.0,0.0,0.0,0.0,0.0,0.0,0.0,0.0,0.0,0.0,0.0,0.0,0.0,0.0,0.0,0.0,0.0,0.0,0.0,-0.6861,-0.7541,-0.7595,-0.73,-0.6742,0.0,0.0,0.0,0.0,0.0,0.0,0.0,0.0,0.0,-0.7771,-0.7479,-0.7421,-0.7653,-0.7085,-0.7132,-0.7703,-0.7103,-0.6739,-0.6448,-0.5919,-0.5448,-0.5051,-0.4666,-0.4439,-0.424,-0.3711,-0.3266,-0.2921,0.0,0.0,0.0,0.0,0.0,-0.0989,0.0337,0.0,0.0,0.0,0.0,0.0,0.0,0.0,0.0,0.0,0.0,0.0,0.0,0.0,0.0,1.4365,1.4894,1.5382,1.6204,1.6092,1.5605,0.0,1.5711,1.543,1.2292,0.0,0.0,0.0,0.0,1.9244,2.1384,2.308,2.4117,2.4115,2.4315,2.4363,2.4163,2.3812,2.3925,2.4657,2.3825,2.3555,2.4075,2.204,2.0529,0.0,0.0,0.0,0.0,0.0,0.0,0.0,0.0,0.0,0.0,0.0,0.0,0.0,0.0,0.0,0.0,0.0,0.0,0.0,0.0,0.0,0.0,0.0,0.0,0.0,0.0,0.0,0.0,-0.807,-0.9797,-0.7782,-0.9481,-1.0222,0.0,0.0,0.0,0.0,0.0,0.0,-1.107,-1.0953,-1.0808,-1.0822,-1.057,-1.053,-1.0633,-0.9986,-0.9749,-0.9911,-0.925,-0.8637,-0.8127,-0.7558,-0.7098,-0.6726,-0.6165,-0.5892,-0.5606,-0.3912,-0.3147,-0.3011,-0.2942,-0.2614,0.0,-0.1477,-0.1057,-0.0614,0.086,0.182,0.247,0.2886,0.0,0.4287,0.4687,0.0,0.0,0.0,0.0,1.0264,1.1099,0.0,1.2668,1.3901,1.4678,1.5229,1.5659,1.6661,1.7314,0.0,1.7879,1.7903,1.3863,0.0,0.0,0.0,0.0,2.0217,2.1624,2.3376,2.4222,2.3561,2.3676,2.3577,2.3022,2.302,2.3287,2.3812,2.3793,2.3907,2.4326,2.3474,2.2477,2.1356,0.0,0.0,0.0,0.0,0.0,0.0,0.0,0.0,0.0,0.0,0.0,0.0,0.0,0.0,0.0,0.0,0.0,0.0,0.0,0.0,0.0,0.0,0.0,0.0,0.0,0.0,0.0,0.0,0.0,-1.1342,-1.3238,0.0,0.0,0.0,0.0,-1.2485,-1.1939,-1.2102,-1.3355,-1.2698,-1.2582,-1.3186,-1.2291,-1.2131,-1.285,-1.2394,-1.218,-1.2134,-1.1144,-1.0363,-0.9863,-0.91,-0.8245,-0.7302,-0.6772,-0.6221,-0.5533,-0.4717,-0.4448,-0.4417,-0.3857,-0.3369,-0.2883,-0.2183,-0.1454,-0.0701,-0.0182,0.0941,0.2121,0.2178,0.319,0.4626,0.5333,0.6334,0.0,0.0,0.8959,1.0091,1.1409,1.1921,1.2362,1.3731,1.413,1.4523,1.5543,1.6461,1.6884,0.0,1.7948,1.8854,1.7205,0.0,1.9514,1.8774,2.0382,2.1766,2.2047,2.3503,2.4191,2.3308,2.3574,2.3549,2.2963,2.2919,2.3368,2.4479,2.397,2.4097,2.5189,2.3804,2.3012,2.307,2.0751,0.0,0.0,0.0,0.0,0.0,0.0,0.0,0.0,0.0,0.0,0.0,0.0,0.0,0.0,0.0,0.0,0.0,0.0,0.0,0.0,0.0,0.0,0.0,0.0,0.0,0.0,0.0,0.0,-1.3722,-1.5294,0.0,-1.5017,-1.4194,-1.4243,-1.5518,-1.5051,-1.5272,-1.6513,-1.6554,-1.6579,-1.6662,-1.6419,-1.6249,-1.617,-1.5328,-1.4825,-1.4582,-1.3785,-1.3057,-1.2367,-1.1475,-1.0607,-0.977,-0.899,-0.8309,-0.7678,-0.6605,-0.5524,-0.447,-0.4139,-0.3598,-0.286,-0.2206,-0.1704,-0.1242,-0.0561,0.0128,0.0839,0.2233,0.354,0.4724,0.5328,0.6178,0.7005,0.7395,0.8351,0.9481,1.0301,1.0845,1.153,1.2626,1.3271,1.3866,1.4851,1.605,1.6995,1.7039,1.8435,1.9216,1.7868,1.9404,2.052,1.9564,2.1487,2.2765,2.2017,2.4045,2.4896,2.3054,2.3691,2.3977,2.3322,2.3041,2.294,2.2976,2.3013,2.3008,2.2978,2.2654,2.2229,2.1738,2.0914,1.9563,0.0,0.0,0.0,0.0,0.0,0.0,0.0,0.0,0.0,0.0,0.0,0.0,0.0,0.0,0.0,0.0,0.0,0.0,0.0,0.0,0.0,0.0,0.0,0.0,0.0,0.0,-1.6157,-1.5824,-1.7743,-1.8659,-1.7594,-1.7167,-1.7365,-1.83,-1.7844,-1.7958,-1.8907,-1.9256,-1.9426,-1.9434,-1.9399,-1.9256,-1.8927,-1.8031,-1.7334,-1.6861,-1.6156,-1.54,-1.4553,-1.3772,-1.2829,-1.1847,-1.0968,-1.011,-0.9214,-0.8184,-0.6827,-0.5307,-0.4697,-0.3931,-0.3182,-0.2606,-0.209,-0.1504,-0.0569,-0.0065,0.0458,0.1731,0.3147,0.4408,0.4906,0.5773,0.6578,0.695,0.7876,0.8998,0.9618,1.02,1.0856,1.1864,1.2658,1.3331,1.4147,1.5467,1.6721,1.7245,1.8722,1.9551,1.8569,2.0182,2.1239,2.0259,2.2294,2.3552,2.2478,2.4337,2.5104,2.3506,2.3779,2.3921,2.3515,2.2858,2.2471,2.2505,2.262,2.2481,2.2099,2.2078,2.1962,2.1686,2.1185,2.0549,1.9776,0.0,0.0,0.0,0.0,0.0,0.0,0.0,0.0,0.0,0.0,0.0,0.0,0.0,0.0,0.0,0.0,0.0,0.0,0.0,0.0,0.0,0.0,0.0,-1.4587,-1.6216,-1.7535,-1.78,-2.0637,-2.1776,-1.969,-1.9926,-2.0366,-2.0711,-2.015,-2.0032,-2.0504,-2.0599,-2.0812,-2.1173,-2.0945,-2.0879,-2.1028,-2.0458,-1.9672,-1.8773,-1.8163,-1.7346,-1.6384,-1.5811,-1.4814,-1.3408,-1.2593,-1.1367,-0.9838,-0.9297,-0.8385,-0.7234,-0.5605,-0.4581,-0.3972,-0.3432,-0.2644,-0.167,-0.051,0.0459,0.1008,0.0603,0.1877,0.3558,0.4087,0.5084,0.6141,0.6724,0.7632,0.8608,0.9506,1.0009,1.0514,1.1483,1.2274,1.2962,1.3593,1.4736,1.6009,1.7002,1.8694,1.9848,1.9501,2.0946,2.1886,2.1067,2.2877,0.0,2.3467,2.4243,2.4764,2.4577,2.3785,2.3341,2.3515,2.2392,2.2143,2.3212,2.2841,2.2618,2.2755,2.217,2.227,2.3132,2.1684,2.1299,2.21,0.0,0.0,0.0,0.0,0.0,0.0,0.0,0.0,0.0,0.0,0.0,0.0,0.0,0.0,0.0,0.0,0.0,0.0,0.0,0.0,0.0,-1.4108,-1.5343,-1.5627,-1.8528,-2.057,-2.0404,-2.1424,-2.1802,-2.0923,-2.0686,-2.081,-2.1387,-2.0875,-2.0624,-2.0857,-2.155,-2.175,-2.1305,-2.2077,-2.2417,-2.217,-2.1623,-2.1077,-2.0495,-1.9736,-1.8903,-1.7993,-1.7222,-1.6192,-1.4953,-1.4036,-1.2912,-1.1611,-1.0802,-0.9805,-0.8676,-0.6866,-0.5806,-0.5076,-0.4515,-0.3541,-0.2472,-0.1849,-0.0656,0.0538,0.0269,0.1566,0.3316,0.3442,0.4353,0.5338,0.5542,0.6277,0.7107,0.7724,0.8538,0.9401,1.0286,1.1294,1.2373,1.3466,1.4666,1.5925,1.741,1.8377,1.9209,2.0129,2.0481,2.1052,2.2028,0.0,0.0,2.3207,2.4465,2.4977,2.3854,2.4315,2.4622,2.4313,2.3663,2.325,2.3151,2.2218,2.1728,2.1936,2.134,2.1433,2.2242,2.2969,2.291,0.0,0.0,0.0,0.0,0.0,0.0,0.0,0.0,0.0,0.0,0.0,0.0,0.0,0.0,0.0,0.0,0.0,0.0,0.0,0.0,0.0,0.0,-1.6682,-1.7946,-1.8087,-2.035,-2.1971,-2.191,-2.2048,-2.1924,-2.1448,-2.1183,-2.1149,-2.1329,-2.1584,-2.1553,-2.1094,-2.244,-2.2866,-2.2058,-2.3014,-2.3377,-2.3038,-2.2618,-2.2128,-2.1657,-2.1028,-2.0333,-1.9451,-1.865,-1.7487,0.0,-1.5311,-1.3983,-1.2458,-1.1816,-1.0801,0.0,0.0,0.0,0.0,0.0,-0.3937,-0.2839,-0.2421,-0.1312,-0.0135,-0.0273,0.0953,0.2443,0.252,0.3558,0.4742,0.4844,0.5549,0.645,0.7144,0.778,0.8507,0.9666,1.0554,1.1563,1.291,1.4051,1.5271,1.689,0.0,0.0,1.9786,2.0273,2.0799,2.178,2.2571,2.3017,0.0,2.4155,2.4804,2.4297,2.4543,2.4828,2.498,2.431,0.0,0.0,0.0,2.27,2.2611,2.2264,0.0,0.0,0.0,2.4966,0.0,0.0,0.0,0.0,2.5946,2.6146,0.0,0.0,0.0,0.0,0.0,0.0,0.0,0.0,0.0,0.0,0.0,0.0,0.0,0.0,0.0,0.0,-1.9355,-2.1203,-2.1111,-2.1657,-2.2148,-2.2332,-2.2165,-2.1832,-2.1379,-2.1462,-2.1421,-2.1115,-2.2388,-2.2706,-2.1595,0.0,0.0,0.0,0.0,-2.3776,-2.349,-2.3333,-2.295,-2.236,-2.2016,-2.1485,-2.0751,-1.9977,-1.8799,-1.742,-1.6661,-1.5049,-1.2958,-1.277,-1.1593,-0.9732,-0.8062,-0.702,-0.6282,-0.522,-0.4136,0.0,0.0,0.0,0.0,-0.0899,0.0067,0.1306,0.144,0.269,0.4094,0.4394,0.5153,0.6141,0.7064,0.7391,0.7842,0.9262,0.9942,1.0667,1.2127,1.3211,1.4354,1.5944,1.7101,1.8116,1.8963,2.0029,2.0836,2.0882,2.2262,0.0,2.2968,2.3686,2.4483,2.5239,0.0,0.0,2.5526,2.465,2.4469,2.5435,2.507,2.4617,2.414,2.4283,2.4399,2.4466,2.5983,2.7116,2.7801,2.8073,2.8522,2.9097,2.7884,2.8577,0.0,0.0,0.0,0.0,0.0,0.0,0.0,0.0,0.0,0.0,0.0,0.0,0.0,0.0,0.0,-1.8444,-1.9282,-2.0209,-2.2014,-2.203,-2.1592,-2.0915,-2.0551,-2.0495,-2.0808,-2.1091,-2.173,-2.2826,-2.341,-2.3713,-2.3628,-2.3685,0.0,-2.2463,-2.2974,-2.3163,-2.2903,-2.314,-2.3113,-2.2799,0.0,0.0,-2.1938,-2.1379,-2.0534,-1.9486,-1.8665,-1.7203,-1.5262,-1.4645,-1.2841,-1.0165,-0.8226,-0.7117,-0.647,-0.5822,-0.5065,-0.4206,-0.3791,-0.2804,-0.1679,-0.1692,-0.0672,0.0668,0.0877,0.1477,0.0,0.348,0.4356,0.5024,0.5624,0.6478,0.7396,0.8312,0.9331,1.0553,1.2012,1.3055,1.4155,1.5671,1.6729,1.7567,1.8333,1.9219,2.018,2.1417,2.1967,2.2655,2.3694,2.4356,2.4786,2.4818,2.5401,2.573,2.5707,2.5637,2.573,2.6098,2.5835,2.5398,2.4831,2.6046,2.6536,2.6054,2.7606,2.8237,2.7889,2.9263,2.968,2.9251,2.8952,2.9477,0.0,0.0,0.0,0.0,0.0,0.0,0.0,0.0,0.0,0.0,0.0,-1.5311,-1.7132,0.0,-1.865,-2.1492,-2.1729,-2.1661,-2.1909,-2.1949,-2.1575,-2.0558,-2.0756,-2.0838,-2.0574,-2.1366,-2.2053,-2.2378,-2.3513,-2.3955,-2.3339,-2.3935,-2.374,-2.2446,-2.2987,-2.3182,-2.297,-2.3065,-2.321,-2.3334,-2.2844,-2.2591,-2.2496,-2.2142,-2.1508,-2.0578,-2.0251,-1.9054,-1.7198,-1.5471,-1.3506,-1.1376,-0.9364,-0.7829,-0.6763,-0.6627,-0.5936,-0.502,-0.4932,-0.3996,-0.2831,-0.2635,-0.1618,-0.0453,-0.02,0.0461,0.1354,0.2225,0.3451,0.4561,0.4957,0.5947,0.6942,0.7661,0.8697,0.9868,1.1141,1.23,1.349,1.4817,1.5968,1.7,1.7722,1.8722,1.9784,2.0758,2.1724,2.2542,2.3116,2.4178,2.4854,2.4885,2.5671,2.6197,2.6134,2.649,2.6784,2.7035,2.6677,2.6527,2.6633,2.7127,2.7417,2.7441,2.8294,2.8585,2.825,2.9527,2.9989,2.966,3.0102,3.0641,0.0,0.0,0.0,0.0,0.0,0.0,0.0,-1.3984,-1.5089,-1.6273,-1.6939,-1.8107,-2.0717,-2.1155,-2.173,-2.3675,-2.3915,-2.3324,-2.1803,-2.206,-2.1877,-2.0495,-2.1105,-2.1368,-2.0636,-2.1831,-2.2441,-2.1936,-2.3696,-2.4275,-2.3074,-2.4185,-2.4216,-2.2852,-2.3274,-2.3451,-2.3253,-2.3117,-2.3314,-2.3839,-2.3274,-2.298,-2.2987,-2.281,-2.2287,-2.1565,-2.1396,-2.041,-1.8729,-1.6318,-1.4592,-1.3304,-1.1279,-0.9363,-0.7816,-0.7486,-0.6736,-0.5871,-0.6018,-0.5216,-0.4081,-0.3604,-0.2632,-0.1578,-0.1317,-0.0387,0.0687,0.1095,0.2441,0.3961,0.4619,0.5484,0.6412,0.726,0.8217,0.9184,1.0279,1.1548,1.2823,1.3963,1.5255,1.6415,1.7213,1.8405,1.943,2.0031,2.1495,2.2521,2.2467,2.3727,2.4735,2.5052,2.5701,2.6241,2.6606,2.7087,2.7448,2.773,2.7439,2.7531,2.8264,2.7846,2.7861,2.8432,2.8699,2.8848,2.8848,2.9886,3.0345,3.0275,3.1364,3.1931,-0.9658,-1.2247,-1.4211,-1.381,-1.4217,-1.5752,0.0,-1.9283,-1.8868,-2.1414,-2.1771,-2.1513,-2.1251,-2.1708,-2.2214,-2.2501,-2.2958,-2.3135,-2.2685,-2.3089,-2.2507,-2.0008,-2.013,-2.0577,-2.1068,-2.2191,-2.3091,-2.367,-2.4968,-2.5591,-2.526,-2.4687,-2.4212,-2.3866,-2.3646,-2.3538,-2.3491,-2.3341,-2.3519,-2.3967,-2.3083,-2.3155,-2.4038,-2.3579,-2.3364,-2.3252,-2.2068,-2.0976,-1.9912,-1.8611,-1.7375,-1.6059,-1.4245,-1.2564,-1.0865,-0.8605,-0.7436,-0.7038,-0.7065,-0.6306,-0.5258,-0.4487,-0.3418,-0.2314,-0.1756,-0.0966,-0.0129,0.0398,0.1274,0.2487,0.4359,0.5087,0.5804,0.719,0.8016,0.8901,1.0192,1.1487,1.2708,1.3957,1.5021,1.6016,1.7067,1.7995,1.902,2.0319,2.1307,2.2175,2.2996,2.3621,2.4297,2.5013,2.5513,2.6013,2.6725,2.6989,2.7261,2.76,2.784,2.8075,2.83,2.829,2.8368,2.8562,2.93,2.9689,2.9759,3.1364,3.1782,3.1177,3.2729,3.3198,-1.3917,-1.4645,-1.4759,-1.6577,-1.7594,-1.8605,-2.0424,-2.0966,-2.1402,-2.2508,-2.3403,-2.3883,-2.3576,-2.3657,-2.3917,-2.4383,-2.4472,-2.4118,-2.307,-2.3331,-2.3081,-2.1479,-2.1259,-2.1088,-2.0603,-2.24,-2.3582,-2.3546,-2.5041,-2.5954,-2.6007,-2.5847,-2.5476,-2.4906,-2.4639,-2.4334,-2.3847,-2.4085,-2.4389,-2.4614,-2.4353,-2.4152,-2.4014,-2.3873,-2.3963,-2.4191,-2.2736,-2.2145,-2.1972,-2.017,-1.8888,-1.785,-1.6088,-1.4529,-1.2934,-0.9964,-0.8421,-0.7664,-0.7172,-0.656,-0.5966,-0.5173,-0.4366,-0.3512,-0.2772,-0.216,-0.1577,-0.091,0.0066,0.1274,0.2681,0.3816,0.4809,0.5935,0.7046,0.821,0.9372,1.071,1.2035,1.3017,1.4213,1.5284,1.6036,1.7268,1.8471,1.9347,2.0733,2.1983,2.2754,2.3421,2.423,2.5153,2.5589,2.6082,2.6691,2.694,2.7215,2.7587,2.7806,2.7996,2.8109,2.8219,2.8273,2.8246,2.8649,2.9098,2.9611,3.081,3.1526,3.1745,3.2925,3.3423,-1.6088,-1.6344,-1.6308,-1.8896,-2.0308,-2.1099,-2.1244,-2.2205,-2.3034,-2.3025,-2.3979,-2.4587,-2.39,-2.3974,-2.4275,-2.4615,-2.4955,-2.4764,-2.351,-2.3613,-2.3479,-2.2602,-2.2264,-2.1743,-2.078,-2.2705,-2.3914,-2.3641,-2.5046,-2.6025,-2.6277,-2.6541,-2.6389,-2.5717,-2.553,-2.5137,-2.4532,-2.493,-2.5242,-2.5511,-2.5544,-2.5195,-2.4422,-2.3985,-2.4091,-2.4539,-2.339,-2.3265,-2.3651,-2.194,-2.0748,-1.9812,-1.8304,-1.684,-1.5281,-1.2362,-1.0244,-0.8782,-0.7876,-0.7349,-0.6928,-0.6222,-0.556,-0.4961,-0.4057,-0.3371,-0.2722,-0.2071,-0.0991,0.0268,0.1407,0.2546,0.3747,0.4812,0.6125,0.7432,0.8468,0.9952,1.1296,1.229,1.3502,1.4588,1.5294,1.6606,1.7776,1.8513,2.0067,2.1396,2.2278,2.3172,2.4284,2.564,2.5718,2.5983,2.6703,2.6793,2.7076,2.7667,2.7674,2.7789,2.8153,2.8131,2.8142,2.8246,2.8632,2.9169,2.9941,3.063,3.1398,3.2265,3.2715,3.3176,-1.5155,-1.7645,-2.0237,-2.0335,-2.1546,-2.2956,-2.3782,-2.3821,-2.37,-2.3839,-2.3843,-2.3091,-2.0619,-2.1475,-2.2308,-2.1479,-2.3182,-2.4512,-2.421,-2.4118,-2.3686,-2.2643,-2.2437,-2.2317,0.0,-2.3153,-2.4076,-2.4709,-2.5343,-2.5881,-2.6297,-2.6365,-2.6347,-2.617,-2.6063,-2.5885,-2.5668,-2.5589,-2.5869,-2.6453,-2.6149,-2.592,-2.5764,-2.404,-2.3676,-2.4405,-2.4103,-2.4161,-2.4452,-2.4239,-2.3513,-2.2384,-2.1319,-2.0052,-1.8553,-1.6039,-1.3365,-1.078,-0.9808,-0.9176,-0.8606,-0.7912,-0.7242,-0.6439,-0.5592,-0.4443,-0.3345,-0.2808,-0.1675,-0.0336,0.0939,0.181,0.2614,0.4018,0.5408,0.6724,0.7697,0.9175,1.071,1.2081,1.2948,1.3923,1.5167,1.6036,1.6989,1.8298,1.9267,2.0346,2.165,2.2889,2.4438,2.6541,2.5781,2.5612,2.6787,2.6531,2.6806,2.793,2.7497,2.7636,2.854,2.8105,2.8159,2.886,2.9839,3.0663,3.1349,3.1542,3.2063,3.2862,3.2283,3.2457,-1.7805,-1.9591,-2.0873,-2.2569,-2.3323,-2.3748,-2.4033,-2.3947,-2.3545,-2.2527,-2.2218,-2.1738,-2.0438,-2.0537,-2.11,-2.187,-2.2943,-2.3624,-2.3488,-2.4206,-2.4067,-2.219,-2.2723,0.0,0.0,0.0,0.0,-2.5005,-2.6007,-2.6858,-2.7453,-2.8347,-2.8595,-2.8,-2.834,-2.8085,-2.7171,-2.7822,-2.7822,-2.7156,-2.6493,-2.6388,-2.6651,-2.5111,-2.4732,-2.5287,-2.4805,-2.4832,-2.5126,-2.4367,-2.391,-2.3585,-2.2455,-2.1256,-1.9907,-1.7832,-1.5936,-1.3944,-1.0945,-0.9706,-0.9262,-0.8381,-0.7772,-0.7272,-0.6485,-0.5616,-0.4756,-0.3947,-0.2799,-0.1628,-0.0846,0.0463,0.1879,0.288,0.414,0.5627,0.727,0.87,1.0086,1.1461,1.268,1.3678,1.4216,1.5342,1.6708,1.8394,1.9914,2.1153,2.1935,2.2889,2.3846,2.4759,2.5001,2.5381,2.6043,2.6214,2.6535,2.7097,2.6994,2.7124,2.7592,2.7979,2.8334,2.8627,2.9586,3.0454,3.1276,3.0879,3.1133,3.1959,3.1266,3.1166,-1.9902,-2.1196,-2.1935,-2.4202,-2.443,-2.4088,-2.4111,-2.3525,-2.2556,-2.0933,-2.0312,-1.9632,-1.8294,-1.8191,-1.8697,-1.9979,-2.1211,-2.2163,-2.2619,-2.3639,-2.389,-2.2703,-2.3044,-2.3436,0.0,0.0,0.0,-2.5402,-2.6246,-2.7339,-2.8727,-2.9557,-2.9843,-2.9604,-2.9935,-2.944,-2.7981,-2.9127,-2.9337,-2.8636,-2.7781,-2.7437,-2.7604,-2.6146,-2.5808,-2.6382,-2.5691,-2.5712,-2.6134,-2.5194,-2.4764,-2.4526,-2.361,-2.2503,-2.127,-1.9756,-1.8265,-1.6587,-1.2636,-1.092,-1.0335,-0.9357,-0.8678,-0.8197,-0.748,-0.6557,-0.5649,-0.5047,-0.4006,-0.2887,-0.1926,-0.0652,0.0729,0.1873,0.3078,0.4425,0.6257,0.7688,0.9085,1.0341,1.176,1.2907,1.3432,1.4923,1.6585,1.8167,1.9812,2.1282,2.2261,2.2747,2.3363,2.4458,2.473,2.5069,2.5754,2.5975,2.6369,2.7171,2.6842,2.6962,2.7708,2.7791,2.7994,2.8351,2.9277,3.0158,3.1044,3.0407,3.0504,3.1243,3.0327,3.0125,-2.1234,-2.2396,-2.3523,-2.5191,-2.4845,-2.4069,-2.4003,-2.2581,-2.0821,-1.9196,-1.8159,-1.6806,-1.4446,-1.4545,-1.5285,-1.6136,-1.8183,-2.0195,-2.1694,-2.2606,-2.3364,-2.3967,-2.3509,-2.3691,-2.5072,0.0,0.0,-2.5967,0.0,-2.7447,-2.9916,-2.9889,-3.0142,-3.0907,-3.0803,-2.9903,-2.8271,-2.9442,-3.0263,-3.0716,-2.9788,-2.9083,-2.8618,-2.7138,-2.682,-2.7502,-2.6822,-2.6902,-2.7455,-2.6797,-2.6122,-2.5453,-2.4624,-2.3813,-2.2845,-2.1728,-2.0367,-1.8578,-1.4943,-1.3032,-1.1943,-1.0892,-1.0028,-0.9268,-0.8575,-0.735,-0.6141,-0.6005,-0.5175,-0.398,-0.2434,-0.1606,-0.0778,0.1066,0.2211,0.328,0.4749,0.6264,0.7702,0.893,1.0325,1.1703,1.2826,1.4836,1.6631,1.7688,1.9032,2.0628,2.2476,2.2426,2.3077,2.5423,2.4841,2.473,2.5857,2.5718,2.6298,2.802,2.6969,2.7052,2.873,2.7538,2.7216,2.8066,2.8991,2.9851,3.0627,3.0107,3.019,3.0733,2.9481,2.9294,-2.1483,-2.3327,-2.5035,-2.5488,-2.4877,-2.3857,-2.259,-2.0904,-1.9138,-1.7491,-1.5388,-1.3882,-1.3977,-1.3101,-1.3418,-1.6648,-1.7633,-1.8945,-2.1588,-2.3637,-2.4469,-2.34,-2.5175,-2.6161,-2.5356,-2.6249,0.0,0.0,-2.8031,-2.8747,-2.9319,-3.0279,-3.0902,-3.1044,-3.0924,-3.063,-3.0128,-3.0295,-3.064,-3.114,-3.0224,-2.9621,-2.9407,-2.882,-2.8274,-2.7846,-2.8323,-2.8276,-2.7752,-2.729,-2.7041,-2.682,-2.5494,-2.4711,-2.42,-2.2912,-2.1572,-2.0185,-1.8529,-1.6079,-1.3391,-1.1943,-1.098,-1.0149,-0.9164,-0.8149,-0.7321,-0.7003,-0.5863,-0.459,-0.4153,-0.2647,-0.1029,0.0065,0.132,0.2695,0.4254,0.5837,0.7328,0.8522,1.0514,1.2328,1.3199,1.4728,1.6073,1.6922,1.8124,1.9448,2.108,2.1944,2.2778,2.3672,2.4122,2.4503,2.5058,2.5406,2.601,2.6964,2.6372,2.6422,2.7387,2.7258,2.7339,2.7735,2.8659,2.9313,2.9747,2.9593,2.9384,2.9119,2.8816,2.8512,-2.2597,-2.4269,-2.5554,-2.5173,-2.4073,-2.2652,-2.0988,-1.8919,-1.6756,-1.4727,-1.3101,-1.2,-1.1793,-1.1307,-1.2029,-1.5367,-1.6826,-1.8479,-2.1189,-2.3934,-2.53,-2.4284,-2.6016,-2.7101,-2.6589,-2.7276,-2.8077,0.0,-2.8861,-2.9193,-2.9891,-3.0907,-3.1597,-3.187,-3.2121,-3.1985,-3.1446,-3.0923,-3.0988,-3.1674,-3.1005,-3.0594,-3.0458,-3.0359,-2.9888,-2.9197,0.0,-2.9419,-2.8758,-2.8119,-2.7799,-2.765,-2.6491,-2.5631,-2.4953,-2.3923,-2.2533,-2.1045,-1.9969,-1.78,-1.5269,-1.3523,-1.2122,-1.1002,-0.9946,-0.8959,-0.7992,-0.7569,-0.6459,-0.5294,-0.4789,-0.3722,-0.2334,-0.0895,0.039,0.1789,0.3406,0.4919,0.6471,0.8266,1.0296,1.2027,1.2887,1.4255,1.5545,1.6585,1.7688,1.8874,2.0194,2.1488,2.2743,2.3717,2.4343,2.4832,2.5253,2.5701,2.6316,2.7141,2.6486,2.6438,2.7254,2.6857,2.6713,2.6964,2.7847,2.8414,2.8663,2.9109,2.9128,2.8767,2.849,2.8176,-2.3827,-2.4951,-2.5459,-2.445,-2.2944,-2.1173,-1.9149,-1.6704,-1.4217,-1.1818,-1.1147,-1.0629,-0.9459,-0.9821,-1.1163,-1.3814,-1.6106,-1.8428,-2.1005,-2.3898,-2.5855,-2.6037,-2.6712,-2.7473,-2.8218,-2.8363,-2.8947,-3.0245,-2.938,-2.9439,-3.0948,-3.133,-3.1864,-3.2608,-3.3369,-3.3328,-3.242,-3.1532,-3.1481,-3.2284,-3.1949,-3.1662,-3.1373,-3.1548,-3.1342,-3.0734,0.0,0.0,-2.9941,-2.8982,-2.851,-2.8299,-2.7515,-2.6587,-2.5619,-2.4797,-2.3328,-2.1555,-2.0323,-1.884,-1.7106,-1.5106,-1.3335,-1.1874,-1.0853,-0.9667,-0.8576,-0.7986,-0.706,-0.6071,-0.4989,-0.4642,-0.3989,-0.1889,-0.0574,0.0581,0.2257,0.3739,0.5599,0.8016,0.9761,1.1156,1.2197,1.3588,1.5012,1.6337,1.7567,1.8661,1.9743,2.1067,2.2574,2.4373,2.4786,2.5198,2.5817,2.6168,2.6774,2.7651,2.6804,2.6671,2.7607,2.6379,2.5828,2.617,2.6839,2.73,2.7513,2.8488,2.883,2.8572,2.8117,2.7828,-2.3242,-2.4489,-2.5304,-2.3642,-2.2511,-2.0757,-1.6858,-1.453,-1.2697,-1.0805,-0.9283,-0.8851,-1.0701,-1.0586,-1.1497,-1.541,-1.6425,-1.823,-2.2631,-2.4333,-2.5849,-2.771,-2.8633,-2.9157,-2.9232,-2.9807,0.0,0.0,0.0,-3.1218,-3.1101,-3.0477,-3.0459,-3.1128,-3.234,-3.3019,-3.305,-3.2769,-3.261,-3.2603,-3.2521,-3.1984,-3.115,-3.1689,-3.1422,-3.0543,0.0,0.0,-3.0103,-2.9425,-2.9453,-2.9721,-2.8324,-2.7763,-2.7535,-2.5716,-2.3997,-2.2432,-2.1472,-1.9835,-1.7843,-1.5405,-1.404,-1.302,-1.179,-1.0573,-0.9519,-0.8969,-0.7787,-0.6578,-0.6065,-0.5221,-0.4247,-0.3148,-0.1731,-0.0321,0.071,0.3087,0.5529,0.7298,0.8843,1.0312,1.1447,1.2915,1.4305,1.5603,1.7188,1.8701,2.0023,2.072,2.1565,2.3084,2.3722,2.4461,2.5508,2.6001,2.6394,2.6814,2.6309,2.6204,2.6695,2.5905,2.5605,2.597,2.6142,2.63,2.646,2.73,2.7105,2.5967,2.6539,2.6438,-2.3532,-2.4726,-2.5273,-2.3493,-2.2088,-2.0116,-1.6228,-1.4,-1.2125,-0.9978,-0.955,-0.9824,-1.0679,-1.0853,-1.1991,-1.5382,-1.5903,-1.7437,-2.1929,-2.399,-2.5774,-2.7759,-2.903,-2.9771,-2.9803,-3.0452,-3.1054,0.0,0.0,-3.1225,-3.076,-3.0221,-3.0275,-3.0985,-3.152,-3.2097,-3.2741,-3.2606,-3.2715,-3.3099,-3.3019,-3.2666,-3.2168,-3.2426,-3.2124,-3.1393,0.0,0.0,-3.0568,-3.0,-2.9903,-3.0012,-2.9014,-2.8342,-2.7698,-2.6433,-2.4751,-2.2963,-2.1761,-2.0076,-1.82,-1.6393,-1.5119,-1.4042,-1.2701,-1.1367,-1.025,-0.9542,-0.842,-0.7335,-0.681,-0.6032,-0.5189,-0.4326,-0.2207,-0.0064,0.1178,0.3179,0.5051,0.6262,0.7866,0.9446,1.054,1.2118,1.3648,1.5021,1.642,1.7778,1.8986,1.9624,2.0822,2.2963,2.3806,2.4405,2.482,2.5349,2.5813,2.6255,2.5857,2.5815,2.6388,2.564,2.5262,2.5492,2.5696,2.5844,2.5921,2.6772,2.6647,2.5607,2.6007,2.5791,-2.3638,-2.4757,-2.503,-2.3488,-2.1788,-1.9579,-1.6159,-1.3974,-1.2061,-0.9886,-1.0469,-1.1307,-1.1058,-1.1571,-1.2764,-1.5017,-1.5485,-1.697,-2.095,-2.3469,-2.5646,-2.7701,-2.9313,-3.0145,-2.9913,-3.0817,0.0,0.0,0.0,0.0,-3.0491,-3.0262,-3.0576,-3.1514,-3.1219,-3.1583,-3.2693,-3.2402,-3.2729,-3.3633,-3.3484,-3.335,-3.3232,-3.3208,-3.288,-3.2317,-3.2021,0.0,0.0,-3.0634,-3.0473,-3.0401,-2.998,-2.9264,-2.8374,-2.7291,-2.5664,-2.3739,-2.2219,-2.0491,-1.8748,-1.7518,-1.6155,-1.4682,-1.3476,-1.2155,-1.0884,-1.0086,-0.9105,-0.8086,-0.7435,-0.6798,-0.6063,-0.497,-0.2559,-0.0128,0.1651,0.3072,0.4315,0.5145,0.6907,0.8526,0.9492,1.1282,1.2984,1.4364,1.5682,1.6814,1.7722,1.8767,2.027,2.2389,2.363,2.4246,2.4219,2.4817,2.5336,2.5639,2.5349,2.5341,2.5828,2.5207,2.4871,2.4934,2.5278,2.5454,2.5535,2.6108,2.602,2.5317,2.5154,2.4759,-2.2728,-2.3818,-2.4216,-2.3325,-2.1747,-1.9515,-1.6088,-1.3901,-1.2335,-1.1367,-1.1238,-1.178,-1.3357,-1.3725,-1.4106,-1.5133,-1.5974,-1.7672,-2.1111,-2.3089,-2.5403,-2.8665,-3.0479,-3.0847,-2.9337,-3.1224,-3.1953,0.0,0.0,0.0,0.0,-3.0413,-3.1043,-3.2686,-3.1961,-3.233,-3.4018,-3.3235,-3.3247,-3.4049,-3.3842,-3.3726,-3.3643,-3.352,-3.3232,-3.2809,0.0,0.0,0.0,-3.1383,-3.1637,-3.1801,-3.1628,-3.1628,-3.1353,-2.8877,-2.7055,-2.5476,-2.357,-2.1649,-1.9784,-1.8714,-1.679,-1.484,-1.4148,-1.2956,-1.1703,-1.0926,-0.9781,-0.8644,-0.7898,-0.7148,-0.6187,-0.4629,-0.3131,-0.1555,0.0321,0.2109,0.3529,0.4324,0.6012,0.7629,0.8466,1.0431,1.2251,1.3468,1.5217,1.6591,1.7054,1.8885,2.0033,1.9815,2.1839,2.3412,2.3914,2.4802,2.5162,2.4576,2.4612,2.4564,2.4319,2.4322,2.4385,2.4477,2.4735,2.4895,2.4981,2.4557,2.4047,2.343,2.2687,2.2248,-2.1439,-2.28,-2.3387,-2.3057,-2.1244,-1.8783,-1.5845,-1.3807,-1.2314,-1.1513,-1.1695,-1.2256,-1.3017,-1.3552,-1.4022,-1.444,-1.4817,-1.6041,-1.8902,-2.0784,-2.3132,-2.6512,-2.8399,-2.9776,0.0,0.0,0.0,0.0,0.0,0.0,0.0,-3.1186,-3.1233,-3.2371,-3.2088,-3.2499,-3.3702,-3.3381,-3.3579,-3.4269,-3.4173,-3.4074,-3.3998,-3.3895,-3.3643,-3.3266,0.0,0.0,0.0,-3.2536,-3.2495,-3.1846,-3.1589,-3.1197,-3.0482,-2.8677,-2.6983,-2.5445,-2.4096,-2.2613,-2.1132,-1.9794,-1.8115,-1.6399,-1.4812,-1.3425,-1.2328,-1.16,-1.0506,-0.9346,-0.8812,-0.748,-0.5957,-0.4568,-0.3313,-0.1877,-0.0064,0.1217,0.2362,0.3592,0.4775,0.6009,0.7613,0.8974,1.0439,1.2043,1.3608,1.4946,1.5751,1.7344,1.8418,1.8464,2.0595,2.206,2.2133,2.2895,2.3419,2.3626,2.3714,2.3926,2.4149,2.4036,2.4009,2.4036,2.4188,2.4153,2.3871,2.3616,2.2992,2.2039,2.1757,2.1307,-2.0269,-2.1763,-2.2416,-2.245,-2.0665,-1.8304,-1.5977,-1.427,-1.2952,-1.2205,-1.2655,-1.3232,-1.3319,-1.3791,-1.4146,-1.3999,-1.4186,-1.5154,-1.7473,-1.9295,-2.156,-2.4697,-2.6603,-2.8475,0.0,-3.0914,0.0,0.0,0.0,0.0,0.0,-3.1904,-3.2005,-3.2959,-3.2487,-3.2712,-3.3843,-3.3576,-3.3797,-3.4495,-3.4427,-3.434,-3.4293,-3.4221,-3.4141,-3.41,0.0,0.0,0.0,-3.3904,-3.3605,-3.2612,-3.2205,-3.154,-3.0574,-2.887,-2.7464,-2.6093,-2.4832,-2.3473,-2.2107,-2.0604,-1.9046,-1.7299,-1.542,-1.3983,-1.2895,-1.2174,-1.0934,-0.9648,-0.8974,-0.7518,-0.5927,-0.4898,-0.3721,-0.2434,-0.0868,0.0312,0.1438,0.2849,0.3698,0.4784,0.6458,0.7788,0.9145,1.0699,1.2362,1.378,1.4696,1.6028,1.709,1.7611,1.9341,2.0487,2.0536,2.1314,2.2069,2.2609,2.2783,2.3062,2.3603,2.3496,2.3436,2.3436,2.3357,2.3155,2.295,2.2445,2.187,2.1242,2.0909,2.0541,-1.935,-2.0642,-2.1251,-2.1377,-2.0049,-1.8279,-1.6666,-1.5493,-1.4595,-1.3902,-1.4365,-1.4914,-1.5054,-1.5075,-1.4827,-1.4022,-1.4621,-1.5811,-1.7555,-1.9302,-2.1372,-2.4002,-2.5847,-2.7259,-2.8154,-2.8952,0.0,0.0,0.0,0.0,0.0,-3.2436,-3.3557,-3.5028,-3.3346,-3.3201,-3.487,-3.396,-3.3899,-3.4706,-3.4623,-3.4561,-3.4495,-3.4427,-3.4787,0.0,0.0,0.0,0.0,-3.5469,-3.514,-3.4618,-3.3984,-3.3494,-3.2741,-3.018,-2.8813,-2.8098,-2.6089,-2.4191,-2.2418,-2.1113,-1.9223,-1.718,-1.5979,-1.4579,-1.3329,-1.2666,-1.1025,-0.9253,-0.8187,-0.7157,-0.6277,-0.5732,-0.4688,-0.3576,-0.2523,-0.0738,0.0891,0.192,0.3084,0.4121,0.4914,0.7011,0.881,0.9436,1.1654,1.3494,1.4145,1.5303,1.6404,1.7146,1.7984,1.878,1.9478,2.0642,2.1378,2.1609,2.1746,2.1949,2.2184,2.2463,2.2615,2.2615,2.2104,2.1974,2.23,2.083,2.0458,2.1079,1.9864,1.9618,-1.5828,-1.694,-1.7549,-1.7691,-1.6838,-1.5518,-1.3873,-1.3672,-1.3644,-1.2917,-1.2488,-1.2424,-1.3063,-1.3221,-1.3398,-1.3835,-1.5099,-1.643,-1.7631,-2.032,-2.2923,-2.4949,-2.8826,-3.1228,0.0,0.0,0.0,0.0,0.0,0.0,0.0,-3.2103,-3.2896,-3.4371,-3.4442,-3.4718,-3.5239,-3.4871,-3.4767,-3.4963,-3.4926,-3.5134,-3.556,-3.4936,0.0,0.0,0.0,0.0,0.0,-3.6645,-3.5905,-3.4243,-3.3719,-3.268,-3.1227,-2.9404,-2.8197,-2.7225,-2.5362,-2.4218,-2.3229,-2.1287,-1.9663,-1.825,-1.7021,-1.5407,-1.3648,-1.2009,-1.0866,-0.9864,-0.8435,-0.7494,-0.674,-0.5949,-0.4993,-0.399,-0.2795,-0.1428,-0.0061,0.126,0.2039,0.2928,0.4519,0.5627,0.689,0.861,1.0432,1.2027,1.3225,1.4384,1.5439,1.6104,1.7045,1.8124,1.9475,2.0143,2.0742,2.1153,2.1348,2.1492,2.1793,2.1779,2.1874,2.2044,2.1384,2.0974,2.0784,1.9865,1.9402,1.9418,1.9656,2.0035,-1.3713,-1.4688,-1.5306,-1.5436,-1.4586,-1.3458,-1.2391,-1.2317,-1.2261,-1.1504,-1.1397,-1.15,-1.1798,-1.211,-1.2546,-1.322,-1.4494,-1.5811,-1.7087,-1.9995,-2.2872,-2.5308,0.0,0.0,0.0,0.0,0.0,0.0,0.0,0.0,0.0,0.0,-3.2504,-3.3771,-3.4885,-3.5463,-3.543,-3.5321,-3.5232,-3.5136,-3.5119,-3.5337,-3.5704,-3.5477,0.0,0.0,0.0,0.0,0.0,-3.7735,-3.7004,-3.5377,-3.3945,-3.2543,-3.1115,-2.9092,-2.7599,-2.6323,-2.4931,-2.3945,-2.2991,-2.1088,-1.9498,-1.8047,-1.6853,-1.5379,-1.3682,-1.1944,-1.1068,-1.0248,-0.877,-0.7807,-0.7043,-0.616,-0.534,-0.4484,-0.3602,-0.238,-0.1068,0.0308,0.0965,0.1902,0.3635,0.4345,0.5463,0.7672,0.9494,1.1095,1.2365,1.3569,1.4495,1.5023,1.6218,1.7357,1.836,1.9105,1.9683,2.0118,2.0434,2.0746,2.1006,2.0993,2.1091,2.1251,2.0422,1.9804,1.9578,1.8865,1.8318,1.7972,1.9108,1.9723,0.0,-1.3511,-1.4137,-1.4143,-1.3018,-1.1903,-1.1847,-1.135,0.0,-1.0013,-1.0961,-1.1773,-1.1319,-1.1711,-1.2234,-1.2598,-1.3388,-1.4585,-1.6405,-1.9084,0.0,0.0,-2.8856,0.0,0.0,0.0,0.0,0.0,0.0,0.0,0.0,0.0,-3.2407,-3.3268,-3.4805,-3.5585,-3.5512,-3.547,-3.5345,-3.5228,-3.5296,-3.5289,-3.5236,-3.5926,0.0,0.0,0.0,0.0,0.0,-3.8633,-3.8159,-3.7413,-3.4528,-3.2993,-3.2017,-2.9124,-2.7085,-2.5553,-2.4707,-2.3423,-2.1936,-2.0539,-1.8678,-1.6791,-1.5867,-1.4758,-1.3622,-1.2394,-1.1426,-1.0429,-0.9118,-0.8081,-0.7149,-0.6376,-0.5668,-0.5128,-0.4857,-0.3434,-0.1933,-0.0997,-0.0,0.106,0.2354,0.3347,0.46,0.6625,0.8751,1.0517,1.1512,1.272,1.3608,1.395,1.5409,1.6343,1.6374,1.7568,1.8417,1.8661,1.9206,1.962,1.994,2.0169,2.0283,2.0321,1.9214,1.8596,1.8577,1.774,1.7167,1.6802,1.8126,1.8668,-1.0123,0.0,-1.1148,-0.9987,-0.9906,-0.9951,0.0,-1.0004,-1.0694,-1.0522,-1.0285,-1.0631,-1.2387,-1.193,-1.2126,-1.4663,-1.5894,-1.7138,-1.8924,-2.3215,0.0,-3.0152,-3.0681,0.0,0.0,0.0,0.0,0.0,0.0,0.0,0.0,0.0,-3.2455,-3.327,-3.4948,-3.5794,-3.5735,-3.5715,-3.564,-3.5499,-3.5566,-3.5856,-3.6305,-3.5825,0.0,0.0,0.0,0.0,-3.7759,-3.7958,-3.7213,-3.5744,-3.4075,-3.2865,-3.1757,-2.901,-2.7427,-2.624,-2.3722,-2.2291,-2.1315,-1.912,-1.7537,-1.6299,-1.5447,-1.4817,-1.396,-1.2347,-1.1453,-1.0602,-0.8819,-0.8032,-0.7527,-0.6584,-0.6055,-0.5673,-0.5128,-0.3713,-0.2339,-0.1758,-0.0588,0.0653,0.2002,0.2807,0.3912,0.5947,0.749,0.8878,1.0127,1.101,1.1849,1.2621,1.3479,1.4103,1.4419,1.633,1.7873,1.8697,1.8319,1.8485,1.9347,1.9156,1.9245,1.9617,1.8621,1.7834,1.7331,1.6317,1.5733,1.551,1.5997,1.6597,-0.9739,-1.0119,-1.0302,-0.9452,-0.9331,-0.9385,-0.9332,-0.943,-0.9556,-0.9556,-0.9493,-0.987,-1.1247,-1.1452,-1.2123,-1.4315,-1.5783,-1.7706,0.0,0.0,-2.8612,-3.0486,-3.071,0.0,0.0,0.0,0.0,0.0,0.0,0.0,0.0,0.0,-3.2014,-3.3211,-3.4198,-3.507,-3.5841,-3.5852,-3.5794,-3.5687,-3.5724,-3.5892,-3.6195,-3.6028,0.0,0.0,0.0,0.0,-3.7286,-3.6967,-3.648,-3.5739,-3.3679,-3.2698,-3.2151,-2.976,-2.7745,-2.5933,-2.3997,-2.2038,-2.0093,-1.8476,-1.7342,-1.6384,-1.5661,-1.4942,-1.4101,-1.253,-1.1664,-1.0838,-0.9166,-0.8354,-0.7784,-0.6846,-0.6386,-0.6055,-0.5504,-0.4452,-0.337,-0.2805,-0.1204,0.0407,0.1437,0.2488,0.3722,0.5228,0.6327,0.7452,0.8574,0.9677,1.0485,1.1075,1.1977,1.267,1.2806,1.4258,1.5658,1.6855,1.6797,1.6993,1.7589,1.7693,1.785,1.8014,1.7322,1.6569,1.5772,1.5119,1.4832,1.4805,1.5011,1.5587,-1.0331,-1.0598,-1.0696,-1.0376,-0.9862,-0.9623,-1.0291,-0.9429,-0.8505,-0.8638,-0.9204,-0.9793,-1.0094,-1.1304,-1.2568,-1.358,-1.5336,0.0,-2.2064,-2.5499,-2.7864,-2.8685,0.0,0.0,0.0,0.0,0.0,0.0,0.0,0.0,0.0,0.0,0.0,-3.2536,-3.2898,-3.3851,-3.5476,-3.5633,-3.5732,-3.5817,-3.5813,-3.5753,-3.565,-3.6214,0.0,0.0,0.0,0.0,-3.6685,-3.5691,-3.5608,-3.5814,-3.3158,-3.242,-3.2541,-3.0349,-2.7965,-2.5621,-2.459,-2.1924,-1.8894,-1.8336,-1.7478,-1.6504,-1.5909,-1.5037,-1.4041,-1.2842,-1.2004,-1.1046,-0.9651,-0.8743,-0.7978,-0.7192,-0.6766,-0.6381,-0.5941,-0.5277,-0.4563,-0.379,-0.1895,-0.0169,0.0698,0.2102,0.3358,0.43,0.5114,0.5961,0.689,0.8206,0.9095,0.9255,1.0474,1.1271,1.1239,1.1731,1.2602,1.3805,1.4841,1.5488,1.568,1.6315,1.66,1.644,1.5962,1.5281,1.4437,1.4148,1.4047,1.4091,1.4268,1.4674,-1.0555,-1.1446,-1.1586,-0.9776,-0.9684,-1.0077,-1.0149,-0.9935,-0.9915,-1.0612,-1.0886,-1.1447,-1.2885,-1.3485,-1.4301,-1.5905,-1.8397,-2.0843,0.0,0.0,-2.6606,0.0,0.0,0.0,0.0,0.0,0.0,0.0,0.0,0.0,0.0,0.0,0.0,-2.9788,-3.1254,-3.2538,-3.3604,-3.4406,-3.5156,-3.5877,-3.5884,-3.5845,-3.5767,-3.5823,-3.5773,0.0,0.0,-3.5187,-3.4298,-3.4037,-3.363,-3.3103,-3.1863,-3.1775,-3.2039,-2.9108,-2.7765,-2.6942,-2.3582,-2.0838,-1.8716,-1.8196,-1.7105,-1.5851,-1.5349,-1.4675,-1.3855,-1.3008,-1.2006,-1.0945,-0.9708,-0.8969,-0.8362,-0.7568,-0.7192,-0.6815,-0.6282,-0.5668,-0.4948,-0.3959,-0.3125,-0.1918,-0.0,0.0976,0.1712,0.2583,0.3317,0.4056,0.4854,0.5958,0.6837,0.7275,0.8128,0.8758,0.8969,0.9166,0.9546,1.0187,1.2565,1.4422,1.5461,1.5871,1.6221,1.6567,1.5722,1.507,1.4572,1.3758,1.2949,1.2212,1.2153,1.2122,-0.9472,-1.0247,-1.0832,-1.0572,-1.1526,-1.2496,-1.2401,-1.2354,-1.2321,-1.2283,-1.2651,-1.3088,-1.3506,-1.4438,-1.5857,-1.8122,0.0,-2.2144,-2.3052,-2.4754,0.0,0.0,0.0,0.0,0.0,0.0,0.0,0.0,0.0,0.0,0.0,0.0,0.0,0.0,-2.9892,-3.0762,-3.1622,-3.211,-3.3293,-3.5203,-3.5234,-3.5222,-3.5143,-3.5048,-3.4952,-3.487,0.0,-3.3635,-3.3092,-3.2501,-3.2295,-3.2214,-3.1149,-3.1144,-3.1446,-2.8676,-2.7403,-2.6509,-2.3094,-2.0681,-1.9001,-1.7907,-1.6782,-1.5703,-1.5142,-1.4536,-1.3873,-1.3208,-1.2267,-1.1216,-1.011,-0.9458,-0.889,-0.8256,-0.783,-0.7396,-0.6923,-0.6485,-0.5773,-0.4395,-0.3564,-0.2419,-0.0292,0.0401,0.0902,0.1657,0.186,0.2308,0.3397,0.4195,0.4934,0.5658,0.6062,0.6423,0.6737,0.7009,0.7911,0.9622,1.134,1.2779,1.3906,1.383,1.3968,1.4419,1.3392,1.2573,1.213,1.2,1.1364,1.024,0.9931,1.0015,-0.9065,-0.9505,-1.0212,-1.1525,-1.2732,-1.3813,-1.4538,-1.4469,-1.4219,-1.421,-1.468,-1.4903,-1.424,-1.5242,-1.706,-1.9747,-2.1359,-2.2476,-2.307,0.0,0.0,0.0,0.0,0.0,0.0,0.0,0.0,0.0,0.0,0.0,0.0,0.0,0.0,0.0,-2.8281,-2.8809,-2.9639,-2.9721,-3.1069,-3.3658,-3.4122,-3.4218,-3.398,-3.4092,-3.4132,-3.4032,-3.2967,-3.245,-3.2294,-3.1298,-3.1163,-3.1486,-3.0532,-3.0378,-3.0513,-2.8947,-2.7486,-2.5924,-2.3412,-2.1297,-1.953,-1.8138,-1.6806,-1.5647,-1.5232,-1.4582,-1.3931,-1.3505,-1.2638,-1.1669,-1.0685,-1.002,-0.9406,-0.889,-0.8355,-0.7877,-0.745,-0.7139,-0.6485,-0.4827,-0.3825,-0.2631,-0.0865,-0.0283,0.0166,0.0776,0.0692,0.0919,0.1988,0.279,0.3477,0.406,0.4385,0.467,0.4961,0.5408,0.6435,0.8139,0.9511,1.0672,1.1378,1.1116,1.1146,1.1632,1.0659,0.9878,0.9322,0.9872,0.9438,0.8124,0.8078,0.8201,-1.0755,-1.0779,-1.075,-1.2018,-1.1665,-1.1859,-1.5217,-1.4955,-1.4624,-1.6758,-1.72,-1.6971,-1.6309,-1.6492,-1.7631,-2.0318,-2.1069,-2.1864,0.0,0.0,0.0,0.0,0.0,0.0,0.0,0.0,0.0,0.0,0.0,0.0,0.0,0.0,0.0,0.0,0.0,-2.6811,-2.7693,-2.7771,-2.8821,-3.0831,-3.2493,-3.2907,-3.2201,-3.3004,-3.331,-3.314,-3.2249,-3.1791,-3.1603,-3.0652,-3.0183,-3.0026,-2.9829,-2.9429,-2.9071,-2.9988,-2.8609,-2.6151,-2.504,-2.2836,-2.0385,-1.9377,-1.7485,-1.5635,-1.5614,-1.4891,-1.401,-1.3931,-1.3228,-1.2274,-1.1418,-1.0592,-0.9814,-0.9309,-0.8738,-0.8209,-0.7622,-0.7348,-0.6794,-0.5152,-0.4155,-0.3219,-0.213,-0.1531,-0.1016,-0.0427,-0.0151,0.0144,0.043,0.1575,0.2432,0.249,0.3203,0.3816,0.406,0.4714,0.4473,0.3044,0.592,0.7735,0.7966,0.8039,0.8288,0.8777,0.8422,0.7959,0.7391,0.7715,0.7178,0.5936,0.7111,0.6918,-0.905,-0.9941,-1.0955,-1.181,-1.204,-1.2723,-1.5263,-1.6442,-1.7271,-1.8349,-1.8871,-1.8822,-1.7773,-1.7799,-1.8506,-2.0054,-2.1376,-2.2471,0.0,0.0,0.0,0.0,0.0,0.0,0.0,0.0,0.0,0.0,0.0,0.0,0.0,0.0,0.0,0.0,0.0,-2.5515,-2.6434,-2.6437,-2.6813,-2.7603,-3.026,-3.1338,-3.1031,-3.1987,-3.2421,-3.237,-3.1447,-3.1001,-3.0896,-3.0479,-3.0226,-3.0049,-2.9805,-2.9233,-2.8567,-2.8745,-2.7623,-2.5815,-2.4543,-2.3092,-2.1537,-2.0042,-1.8433,-1.6968,-1.6328,-1.541,-1.4455,-1.4093,-1.3573,-1.2852,-1.1918,-1.1108,-1.0395,-0.9836,-0.9368,-0.8837,-0.8209,-0.7862,-0.7153,-0.5354,-0.452,-0.3652,-0.2273,-0.1934,-0.1627,-0.0902,-0.097,-0.0943,-0.069,-0.0,0.0474,0.0588,0.1419,0.2105,0.2588,0.2495,0.2169,0.1527,0.3667,0.5325,0.6147,0.6768,0.6253,0.45,0.5045,0.5281,0.5204,0.5461,0.5092,0.41,0.4404,0.4372,-0.8465,-0.9419,-1.0654,-1.1431,-1.2386,-1.3624,-1.5557,-1.7078,-1.8368,-1.9527,-1.9766,-1.9557,-1.894,-1.8608,-1.8799,0.0,-2.13,0.0,0.0,0.0,0.0,0.0,0.0,0.0,0.0,0.0,0.0,0.0,0.0,0.0,0.0,0.0,0.0,0.0,0.0,0.0,-2.5171,-2.543,-2.5449,-2.5207,-2.7698,-2.894,-2.9072,-3.0114,-3.0769,-3.105,-3.0429,-3.0144,-3.013,-3.0361,-3.0186,-2.9825,-2.9851,-2.9136,-2.8112,-2.8072,-2.7237,-2.5943,-2.4608,-2.3534,-2.2517,-2.0927,-1.9461,-1.8181,-1.7344,-1.6136,-1.4975,-1.4474,-1.3847,-1.3101,-1.231,-1.158,-1.0972,-1.0403,-0.988,-0.9354,-0.8791,-0.832,-0.75,-0.5675,-0.4946,-0.4108,-0.255,-0.2267,-0.2053,-0.1441,-0.1507,-0.1527,-0.1304,-0.1132,-0.0888,-0.0595,0.0154,0.0778,0.1205,0.0955,0.067,0.0325,0.1728,0.2972,0.392,0.4707,0.4073,0.1862,0.271,0.3212,0.3286,0.3646,0.34,0.2642,0.2753,0.2864,-0.9686,-0.9494,-0.9817,-1.1029,-1.2478,-1.4175,-1.6249,-1.6569,-1.7289,-2.0368,-1.9827,-1.9065,-1.984,-1.8805,-1.8395,-2.0185,0.0,0.0,0.0,0.0,0.0,0.0,0.0,0.0,0.0,0.0,0.0,0.0,0.0,0.0,0.0,0.0,0.0,0.0,0.0,0.0,-2.3813,-2.4803,-2.4787,-2.3824,-2.4873,-2.5639,-2.6135,-2.7201,-2.8201,-2.9097,-2.9167,-2.9234,-2.9366,-3.0161,-2.9897,-2.906,-2.9871,-2.9091,-2.758,-2.8309,-2.7853,-2.6729,-2.5672,-2.4478,-2.3219,-2.2084,-2.0503,-1.8975,-1.8701,-1.7111,-1.538,-1.5183,-1.4109,-1.2962,-1.2574,-1.1996,-1.1418,-1.1023,-1.0344,-0.971,-0.9309,-0.8784,-0.7871,-0.6131,-0.5425,-0.4613,-0.3144,-0.2628,-0.2335,-0.215,-0.1699,-0.1389,-0.1389,-0.1579,-0.1484,-0.0971,-0.0372,-0.0,-0.0,0.029,0.0101,-0.0857,-0.0,0.0677,0.1062,0.1506,0.1591,0.1413,0.1882,0.194,0.1708,0.2221,0.2203,0.1707,0.2585,0.2855,-0.8723,-1.0001,-1.1594,-1.2309,-1.4213,-1.6236,-1.7466,-1.8002,-1.8683,-2.0313,-1.9956,-1.9437,-1.9736,-1.9144,0.0,0.0,0.0,0.0,0.0,0.0,0.0,0.0,0.0,0.0,0.0,0.0,0.0,0.0,0.0,0.0,0.0,0.0,0.0,0.0,0.0,0.0,-2.4364,-2.3996,-2.4014,-2.4428,-2.4176,-2.4666,-2.585,-2.6892,-2.7502,-2.7814,-2.8689,-2.9026,-2.8972,-2.9406,-2.9051,-2.8241,-2.8452,-2.78,-2.6822,-2.6988,-2.6426,-2.5508,-2.5086,-2.4672,-2.4147,-2.3102,-2.1894,-2.0675,-1.9759,-1.8364,-1.697,-1.6455,-1.5679,-1.4708,-1.3573,-1.2818,-1.2196,-1.1499,-1.0812,-1.0136,-0.9537,-0.9041,-0.8165,-0.6494,-0.5759,-0.5072,-0.4205,-0.3341,-0.2852,-0.2981,-0.2474,-0.2059,-0.1928,-0.1996,-0.1969,-0.1838,-0.1101,-0.0608,-0.0499,-0.0413,-0.0476,-0.0754,0.005,0.0501,0.052,0.1326,0.1715,0.1551,0.1764,0.1836,0.1749,0.1993,0.2048,0.2073,0.2501,0.2709,-0.9131,-1.0736,-1.2591,-1.355,-1.5328,-1.7127,-1.8245,-1.8844,-1.9386,-2.0008,-1.9651,-1.9366,-1.9758,-1.9453,0.0,0.0,0.0,0.0,0.0,0.0,0.0,0.0,0.0,0.0,0.0,0.0,0.0,0.0,0.0,0.0,0.0,0.0,0.0,0.0,0.0,0.0,-2.3716,-2.3474,-2.3517,-2.3819,-2.3453,-2.3768,-2.4719,-2.5505,-2.6071,-2.6484,-2.7362,-2.7885,-2.8169,-2.8149,-2.785,-2.7425,-2.7433,-2.6908,-2.6133,-2.6073,-2.5666,-2.5126,-2.4923,-2.4823,-2.4626,-2.3731,-2.2888,-2.2038,-2.0998,-1.9577,-1.811,-1.7441,-1.654,-1.5539,-1.4448,-1.3684,-1.2852,-1.1646,-1.0847,-1.029,-0.9861,-0.9293,-0.8466,-0.6998,-0.6241,-0.5506,-0.4638,-0.3814,-0.3268,-0.3331,-0.2679,-0.2059,-0.1748,-0.1975,-0.2201,-0.2201,-0.1907,-0.1593,-0.1314,-0.1296,-0.114,-0.0723,-0.0048,0.0436,0.0723,0.1349,0.1679,0.1579,0.178,0.1847,0.1817,0.1967,0.2074,0.2188,0.2518,0.2619,-1.0259,-1.1455,-1.2957,-1.458,-1.5944,-1.7242,-1.8455,-1.908,-1.9442,-1.9522,-1.9111,-1.9006,-1.9889,-1.9599,-1.9287,0.0,0.0,0.0,0.0,0.0,0.0,0.0,0.0,0.0,0.0,0.0,0.0,0.0,0.0,0.0,0.0,0.0,0.0,0.0,0.0,0.0,-2.2287,-2.3039,-2.3067,0.0,-2.2694,-2.291,-2.3074,-2.353,-2.4269,-2.5244,-2.5471,-2.6066,-2.6858,-2.6469,-2.6353,-2.6444,-2.6676,-2.6291,-2.5589,-2.5511,-2.5456,-2.5337,-2.5031,-2.4917,-2.4809,-2.4192,-2.3741,-2.3287,-2.252,-2.0967,-1.9291,-1.8569,-1.7316,-1.6074,-1.5389,-1.4667,-1.3605,-1.1799,-1.0815,-1.0246,-1.016,-0.954,-0.8666,-0.7476,-0.6796,-0.5947,-0.4737,-0.4093,-0.3615,-0.3236,-0.2504,-0.1792,-0.1387,-0.1882,-0.2243,-0.2243,-0.2645,-0.269,-0.2109,-0.2066,-0.1662,-0.0692,-0.0285,0.0331,0.1221,0.1458,0.156,0.1498,0.1857,0.2009,0.195,0.2153,0.2262,0.2282,0.2554,0.2647,-0.936,-1.0808,-1.2635,-1.4398,-1.6386,-1.7824,-1.7616,-1.81,-1.8693,-1.9124,-1.9156,-1.9207,-1.9573,-1.9221,0.0,0.0,0.0,0.0,0.0,0.0,0.0,0.0,0.0,0.0,0.0,0.0,0.0,0.0,0.0,0.0,0.0,0.0,0.0,0.0,0.0,-2.1593,-2.1383,-2.173,-2.185,0.0,-2.2084,-2.2164,-2.213,-2.2838,-2.3713,-2.4643,-2.4021,-2.4045,-2.4561,-2.4758,-2.4626,-2.4355,-2.5334,-2.5664,-2.5588,-2.5512,-2.5453,-2.5375,-2.5146,-2.5059,-2.5106,-2.5418,-2.5341,-2.5145,-2.543,-2.4235,-2.2652,-2.2051,-2.067,-1.8981,-1.7379,-1.6166,-1.4976,-1.3236,-1.1912,-1.0813,-0.9969,-0.947,-0.8754,-0.7332,-0.6927,-0.6493,-0.5656,-0.4771,-0.3969,-0.3296,-0.3217,-0.3176,-0.3084,-0.2865,-0.2734,-0.2734,-0.2823,-0.2375,-0.1123,-0.1005,-0.0773,-0.0213,-0.0389,-0.0278,0.0287,0.099,0.1374,0.1428,0.206,0.2301,0.2121,0.2375,0.2589,0.2758,0.2643,0.2866,-0.9201,-1.0685,-1.2524,-1.4944,-1.6476,-1.7274,-1.7016,-1.7025,-1.7177,-1.7553,-1.8039,-1.8461,-1.8585,0.0,0.0,0.0,0.0,0.0,0.0,0.0,0.0,0.0,0.0,0.0,0.0,0.0,0.0,0.0,0.0,0.0,0.0,0.0,0.0,0.0,-2.1163,-2.1112,-2.0829,-2.0846,-2.0975,-2.1134,-2.1475,-2.1595,-2.1565,-2.2241,-2.2825,-2.3317,-2.2531,-2.2379,-2.2652,-2.2958,-2.3093,-2.3291,-2.4362,-2.4966,-2.523,-2.5258,-2.5262,-2.5254,-2.5173,-2.5161,-2.5224,-2.5406,-2.5625,-2.5734,-2.5349,-2.4725,-2.3866,-2.2859,-2.1653,-2.0385,-1.9099,-1.7646,-1.6242,-1.4903,-1.3022,-1.127,-1.0167,-0.9768,-0.916,-0.7703,-0.7348,-0.6985,-0.6117,-0.4943,-0.4026,-0.3769,-0.3663,-0.3581,-0.3581,-0.3401,-0.3135,-0.2912,-0.309,-0.2821,-0.1839,-0.1122,-0.0699,-0.0655,-0.0682,-0.0568,-0.0328,0.0522,0.1114,0.1304,0.2099,0.246,0.2396,0.281,0.2955,0.2955,0.3152,0.343,-0.9046,-1.0618,-1.2526,-1.532,-1.6114,-1.6205,-1.6255,-1.5976,-1.5644,-1.5591,-1.6491,-1.732,-1.7357,0.0,0.0,0.0,0.0,0.0,0.0,0.0,0.0,0.0,0.0,0.0,0.0,0.0,0.0,0.0,0.0,0.0,0.0,0.0,-2.1042,-2.0431,-2.0751,-2.0711,-2.0277,-2.0177,-2.0212,-2.0366,-2.0749,-2.1007,-2.115,-2.1491,-2.1748,-2.1845,-2.1117,-2.0904,-2.1054,-2.1266,-2.177,-2.2494,-2.3461,-2.4163,-2.4678,-2.4731,-2.4884,-2.5065,-2.5141,-2.5231,-2.5308,-2.5262,-2.5679,-2.5955,-2.4926,-2.4694,-2.4482,-2.3106,-2.2165,-2.1371,-2.0623,-1.9078,-1.7513,-1.6615,-1.4359,-1.2032,-1.0522,-1.0186,-0.9723,-0.8141,-0.7717,-0.7333,-0.6247,-0.4952,-0.41,-0.4188,-0.3874,-0.3595,-0.3553,-0.3561,-0.3404,-0.2957,-0.3312,-0.3401,-0.2957,-0.1658,-0.0957,-0.1253,-0.086,-0.0527,-0.0444,0.0313,0.083,0.1148,0.2021,0.2527,0.2686,0.3135,0.3246,0.3002,0.3598,0.388,-0.7892,-1.0006,-1.2461,-1.4139,-1.4952,-1.5222,-1.4659,-1.5049,-1.521,-1.4089,-1.5083,-1.6223,0.0,0.0,0.0,0.0,0.0,0.0,0.0,0.0,0.0,0.0,0.0,0.0,0.0,0.0,0.0,0.0,0.0,0.0,0.0,-1.9858,-1.9858,-1.966,-1.9538,-1.9406,-1.9273,-1.9442,-1.9464,-1.9376,-1.9752,-2.012,-2.0512,-2.0395,-2.0597,-2.0926,-2.002,-1.9657,-1.9687,-2.0193,-2.0679,-2.1249,-2.2289,-2.3272,-2.4082,-2.3858,-2.4228,-2.4873,-2.5041,-2.5201,-2.5468,-2.6405,-2.6746,-2.6873,-2.738,-2.693,-2.6085,-2.54,-2.4275,-2.3028,-2.2006,-2.0479,-1.9023,-1.8257,-1.6514,-1.415,-1.0976,-1.0654,-1.0327,-0.799,-0.7493,-0.7104,-0.6119,-0.5319,-0.4591,-0.3799,-0.3675,-0.3595,-0.3285,-0.3457,-0.3404,-0.2957,-0.3312,-0.3401,-0.2957,-0.2016,-0.1287,-0.0801,-0.0363,0.0133,0.0583,0.0656,0.0807,0.104,0.1819,0.2542,0.3128,0.3136,0.3101,0.2998,0.346,0.3788,-0.744,-0.9224,-1.1099,-1.2543,-1.338,-1.38,-1.3527,-1.3962,-1.4198,-1.3336,-1.4062,0.0,0.0,0.0,0.0,0.0,0.0,0.0,0.0,0.0,0.0,0.0,0.0,0.0,0.0,0.0,0.0,0.0,0.0,0.0,-1.9147,-1.9534,-1.9564,-1.9124,-1.9306,-1.9204,-1.8774,-1.8898,-1.8997,-1.9147,-1.9221,-1.9427,-1.9717,-1.9588,-1.9854,-2.0345,-1.9385,-1.8766,-1.851,-1.8931,-1.926,-1.9685,-2.0805,-2.1618,-2.2236,-2.2911,-2.327,-2.3545,-2.4528,-2.4962,-2.5182,-2.5878,-2.6122,-2.6239,-2.6549,-2.6257,-2.5721,-2.5221,-2.4474,-2.3646,-2.2793,-2.1394,-1.9999,-1.9074,-1.7392,-1.5283,-1.2606,-1.1978,-1.1068,-0.8226,-0.7662,-0.7455,-0.6659,-0.5897,-0.5077,-0.4118,-0.3999,-0.4058,-0.4091,-0.4049,-0.375,-0.3149,-0.2727,-0.246,-0.2465,-0.1912,-0.1398,-0.096,-0.0041,0.0573,0.078,0.1044,0.1255,0.1329,0.1671,0.2208,0.2879,0.3205,0.3376,0.3337,0.3923,0.4224,-0.7238,-0.8299,-0.9311,-1.0755,-1.1619,-1.22,-1.2466,-1.2829,-1.3035,0.0,0.0,0.0,0.0,0.0,0.0,0.0,0.0,0.0,0.0,0.0,0.0,0.0,0.0,0.0,0.0,0.0,0.0,0.0,0.0,0.0,-1.8577,-1.8874,-1.8903,-1.8514,-1.8677,-1.8585,-1.8214,-1.8279,-1.85,-1.8822,-1.8679,-1.8741,-1.893,-1.8846,-1.9072,-1.9434,-1.8788,-1.8214,-1.7718,-1.8085,-1.8347,-1.8622,-1.9556,-2.0083,-2.0423,-2.1515,-2.1943,-2.218,-2.3614,-2.4374,-2.4788,-2.5224,-2.5323,-2.5227,-2.5176,-2.5113,-2.4952,-2.4523,-2.4271,-2.3968,-2.336,-2.2217,-2.0939,-2.0066,-1.831,-1.6232,-1.396,-1.249,-1.098,-0.8714,-0.8038,-0.7633,-0.6965,-0.5926,-0.4999,-0.4388,-0.4441,-0.4543,-0.4517,-0.4382,-0.4021,-0.3274,-0.2408,-0.1945,-0.2083,-0.2013,-0.153,-0.0607,0.0109,0.0603,0.0896,0.1359,0.1583,0.153,0.2141,0.2557,0.2745,0.3331,0.3603,0.3637,0.4242,0.4569,-0.7131,-0.7276,-0.7321,-0.8861,-0.9751,-1.0468,-1.1304,-1.1581,-1.1812,-1.2177,0.0,0.0,0.0,0.0,0.0,0.0,0.0,0.0,0.0,0.0,0.0,0.0,0.0,0.0,0.0,0.0,0.0,0.0,0.0,0.0,-1.772,-1.7326,-1.7285,-1.7733,-1.697,-1.6811,-1.7353,-1.7503,-1.772,-1.8068,-1.7908,-1.7974,-1.8145,-1.8094,-1.7988,-1.7828,-1.8185,-1.7991,-1.7474,-1.8051,-1.8454,-1.8702,-1.8841,-1.8995,-1.9217,-1.9421,-2.0152,-2.1219,-2.2185,-2.326,-2.4346,-2.5078,-2.4846,-2.4277,-2.4274,-2.4313,-2.4277,-2.3935,-2.4147,-2.4365,-2.3879,-2.2994,-2.2112,-2.1665,-1.9796,-1.7274,-1.4224,-1.1325,-0.9352,-0.9546,-0.8568,-0.7454,-0.6593,-0.4963,-0.3917,-0.4258,-0.4826,-0.4896,-0.3896,-0.4091,-0.4021,-0.3274,-0.2878,-0.248,-0.2114,-0.2566,-0.1726,0.0818,0.0101,0.007,0.1231,0.15,0.1512,0.1321,0.3639,0.4263,0.318,0.3456,0.3626,0.3689,0.4103,0.4404,-0.6561,-0.647,-0.6459,-0.7963,-0.8556,-0.8989,-0.9923,-1.0979,-1.1696,-1.1384,0.0,0.0,0.0,0.0,0.0,0.0,0.0,0.0,0.0,0.0,0.0,0.0,0.0,0.0,0.0,0.0,0.0,0.0,0.0,0.0,-1.7338,-1.7085,-1.7072,-1.7352,-1.6609,-1.6281,-1.6408,-1.6603,-1.6951,-1.7366,-1.7089,-1.7214,-1.7652,-1.738,-1.7005,-1.6677,-1.7003,-1.7008,-1.678,-1.6995,-1.7166,-1.7295,-1.7258,-1.7214,-1.7257,-1.7772,-1.8546,-1.9536,-2.0986,-2.2242,-2.3329,-2.4178,-2.3904,-2.3424,-2.4463,-2.4391,-2.4053,-2.4452,-2.4662,-2.4649,-2.4178,-2.3343,-2.222,-2.0624,-1.8467,-1.6192,-1.3958,-1.1729,-1.009,-0.969,-0.9297,-0.861,-0.7419,-0.5284,-0.3737,-0.3896,-0.4344,-0.4409,-0.377,-0.3635,-0.3504,-0.3241,-0.3076,-0.2676,-0.1845,-0.1944,-0.1564,-0.0371,-0.0336,-0.017,0.0244,0.1121,0.1575,0.151,0.3243,0.3836,0.3205,0.3961,0.4315,0.4291,0.4573,0.4814,-0.6382,-0.6085,-0.5914,-0.7196,-0.7568,-0.7895,-0.8988,-1.0113,-1.084,-1.0469,0.0,0.0,0.0,0.0,0.0,0.0,0.0,0.0,0.0,0.0,0.0,0.0,0.0,0.0,0.0,0.0,0.0,0.0,0.0,0.0,-1.6905,-1.6515,-1.62,-1.6093,-1.5605,-1.5424,-1.564,-1.5835,-1.6181,-1.66,-1.6367,-1.6466,-1.6752,-1.6497,-1.6141,-1.5721,-1.586,-1.6019,-1.6137,-1.6263,-1.6252,-1.6099,-1.6164,-1.5801,-1.5412,-1.6115,-1.6931,-1.7946,-1.9377,-2.0793,-2.2082,-2.2916,-2.2775,-2.2477,-2.36,-2.3632,-2.3448,-2.4148,-2.4518,-2.4619,-2.4418,-2.3535,-2.216,-2.0021,-1.8007,-1.6081,-1.4224,-1.2334,-1.0634,-0.9515,-0.9288,-0.8822,-0.7503,-0.577,-0.4484,-0.411,-0.4188,-0.4156,-0.3737,-0.341,-0.3208,-0.3208,-0.3109,-0.2757,-0.2076,-0.168,-0.1174,-0.0605,-0.0,0.0302,0.0168,0.0839,0.1573,0.2305,0.3204,0.3667,0.3663,0.4285,0.4683,0.4817,0.4943,0.5153,0.0,0.0,0.0,-0.658,-0.6776,-0.7131,-0.8527,-0.8921,-0.9098,-0.9484,0.0,0.0,0.0,0.0,0.0,0.0,0.0,0.0,0.0,0.0,0.0,0.0,0.0,0.0,0.0,0.0,0.0,0.0,0.0,-1.5908,-1.6349,-1.5472,-1.4648,-1.39,-1.3848,-1.4217,-1.5049,-1.5115,-1.5381,-1.5788,-1.5744,-1.5668,-1.5468,-1.5546,-1.5306,-1.4862,-1.4808,-1.5049,-1.557,-1.596,-1.5776,-1.5286,-1.5533,-1.486,-1.3828,-1.4427,-1.5391,-1.6521,-1.7372,-1.8936,-2.0679,-2.1339,-2.1458,-2.1392,-2.1526,-2.1912,-2.238,-2.2908,-2.3582,-2.4237,-2.4544,-2.3576,-2.2032,-2.024,-1.8755,-1.718,-1.5241,-1.3006,-1.0843,-0.9102,-0.8561,-0.7995,-0.6666,-0.6416,-0.6052,-0.497,-0.4511,-0.4156,-0.3737,-0.341,-0.3208,-0.3208,-0.2911,-0.2736,-0.2849,-0.1777,-0.0639,0.0437,0.1174,0.1475,0.1177,0.0807,0.1569,0.3639,0.3626,0.3904,0.4579,0.4468,0.4678,0.5201,0.5225,0.546,-0.7038,0.0,0.0,0.0,0.0,0.0,-0.7746,-0.8235,-0.8457,0.0,0.0,0.0,0.0,0.0,0.0,0.0,0.0,0.0,0.0,0.0,0.0,0.0,0.0,0.0,0.0,0.0,0.0,0.0,-1.4514,-1.4926,-1.5299,-1.5048,-1.4476,-1.3563,-1.4121,-1.4234,-1.3792,-1.4359,-1.4767,-1.5017,-1.4755,-1.4766,-1.4892,-1.4674,-1.4596,-1.4609,-1.4182,-1.4024,-1.4121,-1.4392,-1.4422,-1.4192,-1.3915,-1.3631,-1.3358,-1.3167,-1.4356,-1.6085,-1.6452,-1.7879,-1.9682,-2.0304,-2.032,-2.022,-2.0833,-2.137,-2.1819,-2.1959,-2.2575,-2.3176,-2.3114,-2.2724,-2.2023,-2.0764,-1.923,-1.7985,-1.7713,-1.5101,-1.2401,-1.0981,-0.9588,-0.8357,-0.7503,-0.7076,-0.6354,-0.5003,-0.4511,-0.4156,-0.3737,-0.3607,-0.3574,-0.3574,-0.3043,-0.2611,-0.2335,-0.1568,-0.0639,0.0437,0.0974,0.1776,0.294,0.3159,0.329,0.334,0.3259,0.3537,0.416,0.4236,0.47,0.5565,0.5947,0.6482,-0.7154,-0.6807,-0.6707,-0.6975,0.0,0.0,-0.7507,-0.7889,-0.8007,0.0,0.0,0.0,0.0,0.0,0.0,0.0,0.0,0.0,0.0,0.0,0.0,0.0,0.0,0.0,0.0,0.0,0.0,0.0,-1.3716,-1.4161,-1.4525,-1.416,-1.3718,-1.3226,-1.3347,-1.3412,-1.3248,-1.3598,-1.3969,-1.4408,-1.4233,-1.4129,-1.4154,-1.4025,-1.3825,-1.3669,-1.3549,-1.3099,-1.2541,-1.29,-1.3076,-1.3103,-1.2834,-1.2641,-1.248,-1.2539,-1.358,-1.4993,-1.5542,-1.678,-1.8193,-1.8301,-1.86,-1.8863,-1.9083,-1.9451,-1.9922,-2.0391,-2.1198,-2.1936,-2.2093,-2.1907,-2.1731,-2.1935,-1.9983,-1.8143,-1.8348,-1.5965,-1.3329,-1.1733,-1.0057,-0.8721,-0.8302,-0.7697,-0.6792,-0.5228,-0.4832,-0.4409,-0.3602,-0.3765,-0.3831,-0.3536,-0.301,-0.248,-0.1945,-0.03,0.0836,0.1141,0.1378,0.2242,0.3896,0.3694,0.3325,0.2846,0.3009,0.3473,0.4217,0.4227,0.4853,0.5987,0.6354,0.6989,-0.7205,-0.698,-0.6999,-0.7062,-0.708,0.0,-0.756,-0.7725,-0.7773,0.0,0.0,0.0,0.0,0.0,0.0,0.0,0.0,0.0,0.0,0.0,0.0,0.0,0.0,0.0,0.0,0.0,-1.2106,-1.2289,-1.2967,-1.3482,-1.3793,-1.3017,-1.2623,-1.2844,-1.2182,-1.2214,-1.3086,-1.2968,-1.3213,-1.3821,-1.3831,-1.3678,-1.3324,-1.3372,-1.3074,-1.249,-1.2807,-1.2236,-1.1087,-1.1519,-1.182,-1.2077,-1.2082,-1.1813,-1.1541,-1.23,-1.2913,-1.3494,-1.4547,-1.5566,-1.6317,-1.5847,-1.6478,-1.7276,-1.6715,-1.6794,-1.7283,-1.8324,-1.9358,-2.0329,-2.0936,-2.0961,-2.1182,-2.2761,-2.0445,-1.7854,-1.7664,-1.6022,-1.3833,-1.1406,-1.0006,-0.9123,-0.8945,-0.8135,-0.6989,-0.5438,-0.5119,-0.4666,-0.3532,-0.3858,-0.3891,-0.3142,-0.2845,-0.2239,-0.1032,0.1849,0.3266,0.2474,0.2444,0.3035,0.4344,0.3241,0.2555,0.2437,0.3031,0.3735,0.4495,0.4488,0.5177,0.6453,0.6607,0.7196,-0.8317,-0.8087,-0.8014,0.0,0.0,0.0,-0.7269,-0.7491,-0.766,0.0,0.0,0.0,0.0,0.0,0.0,0.0,0.0,0.0,0.0,0.0,0.0,0.0,0.0,0.0,0.0,0.0,-1.1196,-1.1701,-1.2078,-1.2387,-1.2611,-1.2422,-1.2313,-1.2399,-1.2407,-1.2493,-1.2635,-1.2759,-1.2857,-1.2852,-1.291,-1.2871,-1.2666,-1.2461,-1.2325,-1.2143,-1.1787,-1.1293,-1.0846,-1.0513,-1.07,-1.1253,-1.1276,-1.1215,-1.1134,-1.1531,-1.2034,-1.2586,-1.2986,-1.3792,-1.4619,-1.4535,-1.4634,-1.4794,-1.4958,-1.531,-1.5654,-1.5932,-1.6454,-1.7074,-1.7791,-1.9338,-2.0426,-1.9247,-1.8381,-1.7572,-1.6686,-1.5981,-1.4183,-0.9666,-0.9321,-0.9446,-0.8521,-0.7352,-0.6098,-0.4696,-0.3988,-0.3826,-0.442,-0.3863,-0.3142,-0.238,-0.2547,-0.1123,0.2831,0.4966,0.5626,0.4509,0.4584,0.4788,0.5087,0.3949,0.3287,0.3266,0.4385,0.4807,0.4502,0.5353,0.6068,0.6724,0.7137,0.7883,0.0,0.0,0.0,-0.8193,0.0,0.0,0.0,-0.8042,-0.8075,-0.8118,-0.7789,0.0,0.0,0.0,0.0,0.0,0.0,0.0,0.0,0.0,0.0,0.0,0.0,0.0,0.0,0.0,-1.088,-1.1419,-1.1287,-1.1406,-1.1933,-1.1901,-1.1885,-1.1984,-1.2109,-1.2282,-1.252,-1.2377,-1.234,-1.2363,-1.2421,-1.2332,-1.1977,-1.1877,-1.1778,-1.1651,-1.0971,-1.0663,-1.0508,-0.9836,-0.9796,-1.0196,-1.0261,-1.0488,-1.0813,-1.1315,-1.1684,-1.2027,-1.2697,-1.3136,-1.3386,-1.3172,-1.3268,-1.3461,-1.3119,-1.3119,-1.3274,-1.3348,-1.3696,-1.426,-1.4921,-1.5965,-1.6208,-1.3864,-1.2854,-1.3464,-1.7273,-1.5782,-1.3808,-1.4161,-1.1431,-0.8866,-0.8301,-0.6105,-0.4178,-0.3488,-0.3438,-0.3831,-0.4902,-0.428,-0.3532,-0.2944,-0.2311,-0.0,0.4636,0.5358,0.5641,0.5882,0.599,0.6268,0.673,0.562,0.4661,0.3911,0.5113,0.57,0.5607,0.6183,0.6749,0.7289,0.7447,0.8365,0.0,0.0,0.0,0.0,0.0,-0.8575,0.0,0.0,0.0,-0.8675,0.0,0.0,0.0,0.0,0.0,0.0,0.0,0.0,0.0,0.0,0.0,0.0,0.0,0.0,0.0,0.0,-1.0391,-1.0834,-1.0379,-1.044,-1.1217,-1.131,-1.142,-1.1659,-1.1648,-1.1842,-1.2274,-1.189,-1.1746,-1.1877,-1.1977,-1.1828,-1.1427,-1.1326,-1.1226,-1.1108,-1.0458,-1.014,-1.0091,-0.9334,-0.9064,-0.9151,-0.9283,-0.9689,-1.0258,-1.0943,-1.1189,-1.131,-1.2262,-1.2503,-1.2273,-1.1783,-1.2018,-1.2301,-1.1442,-1.102,-1.0859,-1.085,-1.1164,-1.1637,-1.2271,-1.2406,-1.1893,-1.0143,-0.7981,-0.8404,-1.5989,-1.3058,-1.0606,-1.6258,-1.366,-1.0046,-0.8533,-0.5249,-0.2827,-0.2731,-0.3974,-0.5204,-0.609,-0.4587,-0.2757,-0.0927,0.0468,0.2652,0.6134,0.5723,0.5799,0.6948,0.7145,0.75,0.813,0.7183,0.6034,0.4699,0.5723,0.6403,0.6737,0.695,0.7355,0.7982,0.7798,0.8788,0.0,0.0,0.0,0.0,-0.9562,0.0,0.0,0.0,-0.8699,-0.8127,0.0,0.0,0.0,0.0,0.0,0.0,0.0,0.0,0.0,0.0,0.0,0.0,0.0,0.0,0.0,0.0,0.0,-0.9318,-0.9135,-0.9295,-1.0056,-1.0471,-1.0922,-1.1415,-1.1274,-1.1283,-1.1418,-1.1384,-1.1233,-1.1023,-1.1175,-1.1226,-1.1124,-1.0769,-1.0624,-1.0565,-1.0167,-0.9879,-0.9636,-0.9026,-0.8553,-0.8306,-0.866,-0.8866,-0.9065,-0.9534,-0.9684,-0.9718,-1.0258,-1.0489,-1.0559,-1.0445,-1.0485,-1.0479,-1.0389,-0.9858,-0.9235,-0.8994,-0.8891,-0.9027,-0.9949,-1.0254,-1.0779,-1.2618,-0.8421,-0.4942,-0.8345,-0.3987,-0.0847,-0.5774,-1.3335,-1.6721,-0.9751,-0.6069,-0.3967,-0.3627,-0.677,-0.9245,-0.9375,-0.4163,0.2228,0.9279,0.9841,0.9442,0.8786,0.884,0.8617,0.7909,0.8408,0.8529,0.8033,0.7447,0.6789,0.6083,0.655,0.6801,0.6802,0.756,0.8159,0.8599,0.8565,0.9204,0.0,0.0,0.0,0.0,0.0,0.0,-0.8783,0.0,-0.8529,0.0,0.0,0.0,0.0,0.0,0.0,0.0,0.0,0.0,0.0,0.0,0.0,0.0,0.0,0.0,0.0,0.0,0.0,0.0,0.0,-0.9019,-0.9709,-1.0288,-1.0739,-1.0989,-1.098,-1.1074,-1.1326,-1.1074,-1.0871,-1.0675,-1.082,-1.0718,-1.0454,-1.0198,-1.0087,-1.0079,-0.9431,-0.9204,-0.9155,-0.8248,-0.7876,-0.7781,-0.7388,-0.7737,-0.84,-0.8513,-0.866,-0.8818,-0.914,-0.9128,-0.9012,-0.9279,-0.9237,-0.8989,-0.8786,-0.8174,-0.7525,-0.7442,-0.7383,-0.7532,-0.8456,-0.8606,-0.8049,-0.6144,-0.4334,-0.3174,-0.3642,-0.2445,-0.1101,-0.053,-0.4696,-0.9804,-1.4575,-0.8348,-0.2192,-0.0563,0.2573,0.478,0.478,0.5035,0.7026,1.1749,1.1885,1.1189,1.012,1.0352,0.9982,0.872,0.9271,0.9336,0.8711,0.9193,0.8927,0.7775,0.8911,0.9482,0.9407,0.9208,0.9473,1.0165,0.9919,1.0526,-1.055,0.0,0.0,0.0,0.0,0.0,0.0,0.0,0.0,0.0,0.0,0.0,0.0,0.0,-0.769,-0.7619,0.0,-0.7584,0.0,0.0,0.0,0.0,0.0,0.0,0.0,0.0,0.0,0.0,-0.8341,0.0,-0.934,-0.9956,-1.0403,-1.0653,-1.068,-1.0759,-1.0908,-1.0553,-1.03,-1.0102,-1.0205,-1.0095,-0.9784,-0.9621,-0.9562,-0.9547,-0.882,-0.8649,-0.8744,-0.7727,-0.738,-0.7354,-0.6511,-0.6743,-0.751,-0.749,-0.765,-0.7877,-0.8087,-0.8011,-0.7856,-0.8414,-0.8309,-0.7904,-0.773,-0.7152,-0.6551,-0.651,-0.6364,-0.6425,-0.7406,-0.7014,-0.52,-0.0691,-0.0598,-0.1202,-0.0104,-0.0744,-0.0369,0.3473,0.405,0.0688,-0.9475,-0.4815,0.1309,0.4302,1.0744,1.5229,1.5207,1.2526,1.1193,1.2687,1.2539,1.2004,1.1234,1.1366,1.0954,0.9639,1.0021,1.0058,0.9602,1.0647,1.0708,0.9625,1.0919,1.1494,1.1345,1.0661,1.0765,1.1632,1.0948,1.134,0.0,0.0,0.0,-0.9851,0.0,0.0,0.0,0.0,-0.9093,0.0,0.0,0.0,0.0,-0.8071,-0.7743,-0.7624,-0.7602,0.0,0.0,0.0,0.0,0.0,0.0,0.0,0.0,0.0,0.0,-0.7491,-0.7046,0.0,-0.8745,-0.9278,-0.9877,-1.0602,-1.0249,-0.9993,-0.9926,-0.9722,-0.9413,-0.9061,-0.9159,-0.9263,-0.9211,-0.9113,-0.9008,-0.9008,-0.8725,-0.8514,-0.8349,-0.7692,-0.7233,-0.6942,-0.6342,-0.6102,-0.6102,-0.6293,-0.6509,-0.6766,-0.699,-0.7144,-0.7336,-0.7921,-0.7744,-0.7336,-0.7452,-0.7158,-0.6731,-0.6386,-0.5862,-0.5698,-0.6855,-0.525,-0.254,0.0592,0.13,0.1526,0.2561,0.3527,0.4871,0.7104,1.0384,1.2579,1.1854,0.8045,0.6529,1.0831,1.3387,1.4794,1.4736,1.4725,1.4384,1.3561,1.3291,1.2937,1.2392,1.2122,1.1636,1.0787,1.0699,1.0647,1.0554,1.1232,1.1595,1.1619,1.1938,1.1855,1.1413,1.1577,1.2021,1.2733,1.141,1.1172,0.0,0.0,-1.1518,-1.045,0.0,0.0,0.0,0.0,0.0,0.0,0.0,0.0,0.0,-0.7754,-0.744,-0.7402,-0.709,-0.682,0.0,0.0,0.0,0.0,0.0,0.0,0.0,0.0,0.0,-0.7493,-0.7222,-0.755,0.0,-0.9187,-0.9594,-0.9841,-0.9768,-0.9672,-0.9571,-0.9313,-0.9099,-0.889,-0.8942,-0.889,-0.8784,-0.8738,-0.8685,-0.8586,-0.8268,-0.8004,-0.7717,-0.7101,-0.6701,-0.6359,-0.57,-0.539,-0.5374,-0.553,-0.5692,-0.5841,-0.5868,-0.5937,-0.6056,-0.6276,-0.6105,-0.5705,-0.5365,-0.5048,-0.469,-0.3979,-0.3986,-0.4292,-0.4707,-0.2237,0.0598,0.1441,0.1927,0.2281,0.263,0.3576,0.4781,0.6113,0.8558,1.1267,1.4003,1.171,1.0567,1.3587,1.4677,1.5048,1.4793,1.4922,1.4904,1.4592,1.3823,1.337,1.3454,1.2802,1.2211,1.1822,1.1584,1.1519,1.1585,1.2152,1.2491,1.2562,1.3098,1.3216,1.2921,1.3041,1.3171,1.3324,1.3359,1.3536,-1.2085,-1.1969,0.0,-1.067,-1.0226,0.0,-0.8806,0.0,0.0,0.0,0.0,0.0,0.0,-0.7836,-0.7379,-0.7503,-0.7062,-0.6632,0.0,-0.659,0.0,0.0,0.0,0.0,0.0,0.0,-0.6478,-0.7317,-0.7009,-0.7215,0.0,0.0,-0.8891,-0.9156,-0.9184,-0.9197,-0.9106,-0.8903,-0.8685,-0.8408,-0.8461,-0.8362,-0.8203,-0.8203,-0.815,-0.799,-0.7783,-0.7535,-0.72,-0.6663,-0.6288,-0.594,-0.5305,-0.4988,-0.4916,-0.4963,-0.4916,-0.4828,-0.4794,-0.4717,-0.4742,-0.4902,-0.4811,-0.4499,-0.4146,-0.3883,-0.3459,-0.2592,-0.2349,-0.2299,-0.2132,0.0246,0.2555,0.2346,0.2578,0.2911,0.317,0.3946,0.4826,0.575,0.7835,1.0484,1.3564,1.3206,1.3106,1.4933,1.5348,1.573,1.6577,1.5741,1.5056,1.5053,1.4392,1.4004,1.4162,1.3682,1.3139,1.2588,1.2697,1.2664,1.2364,1.2974,1.3477,1.3816,1.4381,1.4671,1.4623,1.46,1.4584,1.4623,1.5018,1.5496]},{"header":{"parameterUnit":"m.s-1","parameterCategory":1,"la1":30.6,"la2":29.2853,"lo1":-89.7004,"lo2":-87.6739,"dy":0.0162,"dx":0.0183,"nx":112,"ny":82,"refTime":"2024-05-09T12:00:00:Z","depth":0,"parameterNumber":3,"parameterNumberName":"V-component_of_WINDS"},"data":[0.0,0.0,0.0,0.0,0.0,0.0,0.0,0.0,0.0,0.0,0.0,0.0,0.0,0.0,0.0,0.0,0.0,0.0,0.0,0.0,0.0,0.0,0.0,0.0,0.0,0.0,0.0,0.0,0.0,0.0,0.0,0.0,0.0,0.0,0.0,0.0,0.0,0.0,0.0,0.0,0.0,0.0,0.0,0.0,0.0,0.0,0.0,0.0,0.0,0.0,0.0,0.0,0.0,0.0,0.0,0.0,0.0,0.0,0.0,0.0,0.0,0.0,0.0,0.0,0.0,0.0,0.0,0.0,0.0,0.0,0.0,0.0,0.0,0.0,0.0,0.0,0.0,0.0,0.0,0.0,0.0,0.0,0.0,0.0,0.0,0.0,0.0,0.0,0.0,0.0,-0.6559,-0.7459,-0.842,-0.8921,-0.9004,-0.8656,-0.7706,-0.5807,0.0,0.0,0.0,0.0,0.0,0.0,0.0,0.0,0.0,0.0,0.0,0.0,0.0,0.0,0.0,0.0,0.0,0.0,0.0,0.0,0.0,0.0,0.0,0.0,0.0,0.0,0.0,0.0,0.0,0.0,0.0,0.0,0.0,0.0,0.0,0.0,0.0,0.0,0.0,0.0,0.0,0.0,0.0,0.0,0.0,0.0,0.0,0.0,0.0,0.0,0.0,0.0,0.0,0.0,0.0,0.0,0.0,0.0,0.0,0.0,0.0,0.0,0.0,0.0,0.0,0.0,0.0,0.0,0.0,0.0,0.0,0.0,0.0,0.0,0.0,0.0,0.0,0.0,0.0,0.0,0.0,0.0,0.0,0.0,0.0,0.0,0.0,0.0,0.0,0.0,0.0,0.0,0.0,0.0,0.0,0.0,0.0,0.0,0.0,0.0,0.0,0.0,0.0,0.0,-0.7972,-1.028,-1.0225,-1.0104,-1.0246,-0.9674,-0.8503,-0.6657,0.0,0.0,0.0,0.0,0.0,0.0,0.0,0.0,0.0,0.0,0.0,0.0,0.0,0.0,0.0,0.0,0.0,0.0,0.0,0.0,0.0,0.0,0.0,0.0,0.0,0.0,0.0,0.0,0.0,0.0,0.0,0.0,0.0,0.0,0.0,0.0,0.0,0.0,0.0,0.0,0.0,0.0,0.0,0.0,0.0,0.0,0.0,0.0,0.0,0.0,0.0,0.0,0.0,0.0,0.0,0.0,0.0,0.0,0.0,0.0,0.0,0.0,0.0,0.0,0.0,0.0,0.0,0.0,0.0,0.0,0.0,0.0,0.0,0.0,0.0,0.0,0.0,0.0,0.0,0.0,0.0,0.0,0.0,0.0,0.0,0.0,0.0,0.0,0.0,0.0,0.0,0.0,0.0,0.0,0.0,0.0,0.0,0.0,0.0,0.0,0.0,0.0,0.0,-0.7847,-0.9227,-1.1525,-1.1422,-1.1255,-1.1374,-1.0779,-0.9729,-0.8028,-0.644,0.0,0.0,0.0,0.0,0.0,0.0,0.0,0.0,0.0,0.0,0.0,0.0,0.0,0.0,0.0,0.0,0.0,0.0,0.0,0.0,0.0,0.0,0.0,0.0,0.0,0.0,0.0,0.0,0.0,0.0,0.0,0.0,0.0,0.0,0.0,0.0,0.0,0.0,0.0,0.0,0.0,0.0,0.0,0.0,0.0,0.0,0.0,0.0,0.0,0.0,0.0,0.0,0.0,0.0,0.0,0.0,0.0,0.0,0.0,0.0,0.0,0.0,0.0,0.0,0.0,0.0,0.0,0.0,0.0,0.0,0.0,0.0,0.0,0.0,0.0,0.0,0.0,0.0,0.0,0.0,0.0,0.0,0.0,0.0,0.0,0.0,0.0,0.0,0.0,0.0,0.0,0.0,0.0,0.0,0.0,0.0,0.0,0.0,0.0,0.0,0.0,0.0,-0.9771,-1.0822,-1.2556,-1.2346,-1.2164,-1.2303,-1.1422,-1.0226,-0.8814,-0.706,0.0,0.0,0.0,0.0,0.0,0.0,0.0,0.0,0.0,0.0,0.0,0.0,0.0,0.0,0.0,0.0,0.0,0.0,0.0,0.0,0.0,0.0,0.0,0.0,0.0,0.0,0.0,0.0,0.0,0.0,0.0,0.0,0.0,0.0,0.0,0.0,0.0,0.0,0.0,0.0,0.0,0.0,0.0,0.0,0.0,0.0,0.0,0.0,0.0,0.0,0.0,0.0,0.0,0.0,0.0,0.0,0.0,0.0,0.0,0.0,0.0,0.0,0.0,0.0,0.0,0.0,0.0,0.0,0.0,0.0,0.0,0.0,0.0,0.0,0.0,0.0,0.0,0.0,0.0,0.0,0.0,0.0,0.0,0.0,0.0,0.0,0.0,0.0,0.0,0.0,0.0,0.0,0.0,0.0,0.0,0.0,0.0,0.0,0.0,0.0,0.0,0.0,-1.1767,-1.3113,-1.3968,-1.3016,-1.252,-1.2826,-1.0896,-0.9282,-0.8288,-0.6377,0.0,0.0,0.0,0.0,0.0,0.0,0.0,0.0,0.0,0.0,0.0,0.0,0.0,0.0,0.0,0.0,0.0,0.0,0.0,0.0,0.0,0.0,0.0,0.0,0.0,0.0,0.0,0.0,0.0,0.0,0.0,0.0,0.0,0.0,0.0,0.0,0.0,0.0,0.0,0.0,0.0,0.0,0.0,0.0,0.0,0.0,0.0,0.0,0.0,0.0,0.0,0.0,0.0,0.0,0.0,0.0,0.0,0.0,0.0,0.0,0.0,0.0,0.0,0.0,0.0,0.0,0.0,0.0,0.0,0.0,0.0,0.0,0.0,0.0,0.0,0.0,0.0,0.0,0.0,0.0,0.0,0.0,0.0,0.0,0.0,0.0,0.0,0.0,0.0,0.0,0.0,0.0,0.0,0.0,0.0,0.0,0.0,0.0,0.0,0.0,0.0,0.0,-1.142,-1.287,0.0,-1.3754,-1.3398,-1.3192,-1.2014,-1.0516,-0.881,0.0,0.0,0.0,0.0,0.0,0.0,0.0,0.0,0.0,0.0,0.0,0.0,0.0,0.0,0.0,0.0,0.0,0.0,0.0,0.0,0.0,0.0,0.0,0.0,0.0,0.0,0.0,0.0,0.0,0.0,0.0,0.0,0.0,0.0,0.0,0.0,0.0,0.0,0.0,0.0,0.0,0.0,0.0,0.0,0.0,0.0,0.0,0.0,0.0,0.0,0.0,0.0,0.0,0.0,0.0,0.0,0.0,0.0,0.0,0.0,0.0,0.0,0.0,0.0,0.0,0.0,0.0,0.0,0.0,0.0,0.0,0.0,0.0,0.0,0.0,0.0,0.0,0.0,0.0,0.0,0.0,0.0,0.0,0.0,0.0,0.0,0.0,0.0,0.0,0.0,0.0,0.0,0.0,0.0,0.0,0.0,0.0,0.0,0.0,0.0,0.0,0.0,-0.9962,-1.173,-1.3271,0.0,-1.425,-1.3995,-1.3739,-1.2459,-1.0902,-0.9003,0.0,0.0,0.0,0.0,0.0,0.0,0.0,0.0,0.0,0.0,0.0,0.0,0.0,0.0,0.0,0.0,0.0,0.0,0.0,0.0,0.0,0.0,0.0,0.0,0.0,0.0,0.0,0.0,0.0,0.0,0.0,0.0,0.0,0.0,0.0,0.0,0.0,0.0,0.0,0.0,0.0,0.0,0.0,0.0,0.0,0.0,0.0,0.0,0.0,0.0,0.0,0.0,0.0,0.0,0.0,0.0,0.0,0.0,0.0,0.0,0.0,0.0,0.0,0.0,0.0,0.0,0.0,0.0,0.0,0.0,0.0,0.0,0.0,0.0,0.0,0.0,0.0,0.0,0.0,0.0,0.0,0.0,0.0,0.0,0.0,0.0,0.0,0.0,0.0,0.0,0.0,0.0,0.0,0.0,0.0,0.0,0.0,0.0,0.0,0.0,0.0,0.0,-1.1066,-1.3177,-1.4823,-1.5431,-1.4583,-1.4162,-1.4583,-1.2012,-0.993,0.0,0.0,0.0,0.0,0.0,0.0,0.0,0.0,0.0,0.0,0.0,0.0,0.0,0.0,0.0,0.0,0.0,0.0,0.0,0.0,0.0,0.0,0.0,0.0,0.0,0.0,0.0,0.0,0.0,0.0,0.0,0.0,0.0,0.0,0.0,0.0,0.0,0.0,0.0,0.0,0.0,0.0,0.0,0.0,0.0,0.0,0.0,0.0,0.0,0.0,0.0,0.0,0.0,0.0,0.0,0.0,0.0,0.0,0.0,0.0,0.0,0.0,0.0,0.0,0.0,0.0,0.0,0.0,0.0,0.0,0.0,0.0,0.0,0.0,0.0,0.0,0.0,0.0,0.0,0.0,0.0,0.0,0.0,0.0,0.0,0.0,0.0,0.0,0.0,0.0,0.0,0.0,0.0,0.0,0.0,0.0,0.0,0.0,0.0,0.0,0.0,0.0,0.0,-1.0988,-1.3228,-1.4777,-1.4961,-1.4837,-1.445,-1.3743,-1.2358,-1.0678,-0.8625,0.0,0.0,0.0,0.0,0.0,0.0,0.0,0.0,0.0,0.0,0.0,0.0,0.0,0.0,0.0,0.0,0.0,0.0,0.0,0.0,0.0,0.0,0.0,0.0,0.0,0.0,0.0,0.0,0.0,0.0,0.0,0.0,0.0,0.0,0.0,0.0,0.0,0.0,0.0,0.0,0.0,0.0,0.0,0.0,0.0,0.0,0.0,0.0,0.0,0.0,0.0,0.0,0.0,0.0,0.0,0.0,0.0,0.0,0.0,0.0,0.0,0.0,0.0,0.0,0.0,0.0,0.0,0.0,0.0,0.0,0.0,0.0,0.0,0.0,0.0,0.0,0.0,0.0,0.0,0.0,0.0,0.0,0.0,0.0,0.0,0.0,0.0,0.0,0.0,0.0,0.0,0.0,0.0,0.0,0.0,0.0,0.0,0.0,0.0,0.0,0.0,0.0,-1.1079,-1.3052,-1.4478,-1.4798,-1.4591,-1.4221,-1.3776,-1.2538,-1.0849,-0.8714,0.0,0.0,0.0,0.0,0.0,0.0,0.0,0.0,0.0,0.0,0.0,0.0,0.0,0.0,0.0,0.0,0.0,0.0,0.0,0.0,0.0,0.0,0.0,0.0,0.0,0.0,0.0,0.0,0.0,0.0,0.0,0.0,0.0,0.0,0.0,0.0,0.0,0.0,0.0,0.0,0.0,0.0,0.0,0.0,0.0,0.0,0.0,0.0,0.0,0.0,0.0,0.0,0.0,0.0,0.0,0.0,0.0,0.0,0.0,0.0,0.0,0.0,0.0,0.0,0.0,0.0,0.0,0.0,0.0,0.0,0.0,0.0,0.0,0.0,0.0,0.0,0.0,0.0,0.0,0.0,0.0,0.0,0.0,0.0,0.0,0.0,0.0,0.0,0.0,0.0,0.0,0.0,0.0,0.0,0.0,0.0,0.0,0.0,0.0,0.0,0.0,0.0,-1.1388,-1.2884,-1.4129,-1.4857,-1.4141,-1.3819,-1.4275,-1.2603,-1.0794,-0.9025,0.0,0.0,0.0,0.0,0.0,0.0,0.0,0.0,0.0,0.0,0.0,0.0,0.0,0.0,0.0,0.0,0.0,0.0,0.0,0.0,0.0,0.0,0.0,0.0,0.0,0.0,0.0,0.0,0.0,0.0,0.0,0.0,0.0,0.0,0.0,0.0,0.0,0.0,0.0,0.0,0.0,0.0,0.0,0.0,0.0,0.0,0.0,0.0,0.0,0.0,0.0,0.0,0.0,0.0,0.0,0.0,0.0,0.0,0.0,0.0,-1.3065,0.0,0.0,0.0,0.0,0.0,0.0,0.0,0.0,0.0,0.0,0.0,0.0,0.0,0.0,0.0,0.0,0.0,0.0,0.0,0.0,0.0,0.0,0.0,0.0,0.0,0.0,0.0,0.0,0.0,0.0,0.0,0.0,0.0,0.0,0.0,0.0,0.0,0.0,0.0,0.0,0.0,-1.2288,-1.339,-1.4292,-1.489,-1.4667,-1.4168,-1.357,-1.2539,-1.1295,-0.9776,-0.7893,0.0,0.0,0.0,0.0,0.0,0.0,0.0,0.0,0.0,0.0,0.0,0.0,0.0,0.0,0.0,0.0,0.0,0.0,0.0,0.0,0.0,0.0,0.0,0.0,0.0,0.0,0.0,0.0,0.0,0.0,0.0,0.0,0.0,0.0,0.0,0.0,0.0,0.0,0.0,0.0,0.0,0.0,0.0,0.0,0.0,0.0,0.0,0.0,0.0,0.0,0.0,0.0,0.0,0.0,0.0,0.0,0.0,0.0,0.0,0.0,-1.5701,0.0,0.0,0.0,0.0,0.0,0.0,0.0,0.0,0.0,0.0,0.0,0.0,0.0,0.0,0.0,0.0,0.0,0.0,0.0,0.0,0.0,0.0,0.0,0.0,0.0,0.0,0.0,0.0,0.0,0.0,0.0,0.0,0.0,0.0,0.0,0.0,0.0,0.0,0.0,0.0,-1.265,-1.3271,-1.3774,-1.44,-1.3905,-1.3261,-1.2739,-1.1962,-1.0901,-0.9525,-0.8144,0.0,0.0,0.0,0.0,0.0,0.0,0.0,0.0,0.0,0.0,0.0,0.0,0.0,0.0,0.0,0.0,0.0,0.0,0.0,0.0,0.0,0.0,0.0,0.0,0.0,0.0,0.0,0.0,0.0,0.0,0.0,0.0,0.0,0.0,0.0,0.0,0.0,0.0,0.0,0.0,0.0,0.0,0.0,0.0,0.0,0.0,0.0,0.0,0.0,0.0,0.0,0.0,0.0,0.0,-1.807,-1.9066,-2.0515,-2.1693,-2.2477,-2.0303,-1.9515,-1.9619,0.0,0.0,0.0,0.0,0.0,0.0,0.0,0.0,0.0,0.0,0.0,0.0,0.0,0.0,0.0,0.0,0.0,0.0,0.0,0.0,0.0,0.0,0.0,0.0,0.0,-1.9613,-1.9278,0.0,0.0,0.0,0.0,0.0,0.0,0.0,0.0,0.0,0.0,0.0,0.0,-1.2859,-1.3013,-1.3203,-1.3746,-1.2914,-1.2167,-1.2,-1.1349,-1.0447,-0.9322,-0.8445,-0.765,0.0,0.0,0.0,0.0,0.0,0.0,0.0,0.0,0.0,0.0,0.0,0.0,0.0,0.0,0.0,0.0,0.0,0.0,0.0,0.0,0.0,0.0,0.0,0.0,0.0,0.0,0.0,0.0,0.0,0.0,0.0,0.0,-0.7568,-0.8278,0.0,0.0,0.0,0.0,0.0,0.0,0.0,0.0,0.0,0.0,0.0,0.0,0.0,0.0,-1.5494,-1.7994,-1.956,-2.0201,-2.2018,-2.3348,-2.4211,-2.4572,-2.5244,-2.6107,-2.5758,0.0,-2.2246,-2.0377,0.0,0.0,0.0,0.0,0.0,0.0,0.0,0.0,0.0,0.0,0.0,0.0,0.0,0.0,0.0,0.0,0.0,0.0,0.0,0.0,0.0,0.0,-2.2767,-2.3025,-2.2605,-2.1939,0.0,-1.8102,-1.508,-1.3996,0.0,0.0,0.0,0.0,0.0,0.0,0.0,0.0,-1.3636,-1.3303,-1.3143,-1.3504,-1.2967,-1.2389,-1.1936,-1.1714,-1.1337,-1.074,-0.9416,-0.8601,-0.8395,-0.7056,0.0,0.0,0.0,0.0,0.0,0.0,0.0,0.0,0.0,0.0,0.0,0.0,0.0,0.0,0.0,0.0,0.0,0.0,0.0,0.0,0.0,0.0,0.0,0.0,0.0,0.0,0.0,0.0,0.0,-0.586,-0.7346,-0.7762,-0.6777,-0.5939,0.0,0.0,0.0,0.0,0.0,0.0,0.0,0.0,0.0,-1.6201,-1.7407,-1.8719,-2.02,-2.1643,-2.2449,-2.2693,-2.4173,-2.537,-2.6351,-2.6975,-2.803,-2.9393,-2.9457,-2.884,-2.7547,-2.4466,-2.2183,-2.0457,0.0,0.0,0.0,0.0,0.0,-1.9702,-2.2068,0.0,0.0,0.0,0.0,0.0,0.0,0.0,0.0,0.0,0.0,0.0,0.0,0.0,0.0,-2.4881,-2.491,-2.4497,-2.325,-2.1452,-1.9356,0.0,-1.6269,-1.5229,-1.2346,0.0,0.0,0.0,0.0,-1.3103,-1.3689,-1.3731,-1.3576,-1.3299,-1.2929,-1.2414,-1.172,-1.1549,-1.122,-1.0593,-0.9747,-0.916,-0.9001,-0.7913,-0.6969,0.0,0.0,0.0,0.0,0.0,0.0,0.0,0.0,0.0,0.0,0.0,0.0,0.0,0.0,0.0,0.0,0.0,0.0,0.0,0.0,0.0,0.0,0.0,0.0,0.0,0.0,0.0,0.0,-0.5971,-0.7249,-0.732,-0.7407,-0.7529,0.0,0.0,0.0,0.0,0.0,0.0,-1.1976,-1.3346,-1.5726,-1.9324,-2.0414,-2.1831,-2.3743,-2.4107,-2.4436,-2.4686,-2.5586,-2.6581,-2.7659,-2.8709,-2.9851,-3.0977,-3.1353,-3.1405,-3.1001,-2.7832,-2.5628,-2.409,-2.2346,-2.1285,0.0,-2.253,-2.3062,-2.3449,-2.6275,-2.7772,-2.8232,-2.6896,0.0,-2.562,-2.3562,0.0,0.0,0.0,0.0,-2.4478,-2.5075,0.0,-2.583,-2.6143,-2.6343,-2.5983,-2.4228,-2.3574,-2.2362,0.0,-1.9006,-1.806,-1.3924,0.0,0.0,0.0,0.0,-1.3895,-1.411,-1.4185,-1.3984,-1.333,-1.2922,-1.2404,-1.1604,-1.1477,-1.1107,-1.0478,-0.9977,-0.9598,-0.9277,-0.8544,-0.7849,-0.7146,0.0,0.0,0.0,0.0,0.0,0.0,0.0,0.0,0.0,0.0,0.0,0.0,0.0,0.0,0.0,0.0,0.0,0.0,0.0,0.0,0.0,0.0,0.0,0.0,0.0,0.0,0.0,0.0,0.0,-0.7979,-0.9014,0.0,0.0,0.0,0.0,-1.0523,-1.1281,-1.2587,-1.4703,-1.6327,-1.8393,-2.1102,-2.1725,-2.2815,-2.4424,-2.4723,-2.5394,-2.6473,-2.6904,-2.7716,-2.8849,-2.9998,-3.0244,-2.9842,-3.0867,-3.0923,-3.022,-2.937,-2.8483,-2.7499,-2.5807,-2.5166,-2.5305,-2.6277,-2.664,-2.6788,-2.7851,-2.8754,-2.9416,-2.9314,-2.8553,-2.7643,-2.7436,-2.664,0.0,0.0,-2.5834,-2.6461,-2.6878,-2.6933,-2.697,-2.7243,-2.6575,-2.5669,-2.4995,-2.3619,-2.2003,0.0,-2.0109,-1.9696,-1.7432,0.0,-1.7264,-1.5545,-1.5499,-1.5597,-1.5437,-1.4687,-1.4037,-1.3729,-1.3067,-1.2456,-1.1763,-1.1678,-1.1524,-1.1091,-1.036,-0.9858,-0.948,-0.8723,-0.8036,-0.7496,-0.6543,0.0,0.0,0.0,0.0,0.0,0.0,0.0,0.0,0.0,0.0,0.0,0.0,0.0,0.0,0.0,0.0,0.0,0.0,0.0,0.0,0.0,0.0,0.0,0.0,0.0,0.0,0.0,0.0,-0.9169,-0.9979,0.0,-1.1162,-1.0891,-1.1178,-1.2399,-1.3141,-1.4179,-1.5739,-1.7598,-1.9411,-2.1136,-2.1987,-2.3099,-2.4547,-2.453,-2.5042,-2.6173,-2.6623,-2.7529,-2.8784,-2.9507,-3.0162,-3.0751,-3.1354,-3.1561,-3.1379,-3.0744,-2.9447,-2.7827,-2.7285,-2.6436,-2.5602,-2.6549,-2.6899,-2.71,-2.8569,-2.9257,-2.9578,-3.0054,-2.9908,-2.9408,-2.8749,-2.8158,-2.7581,-2.6892,-2.7102,-2.7534,-2.7551,-2.7887,-2.8182,-2.8029,-2.7513,-2.6779,-2.5593,-2.4952,-2.3936,-2.1809,-2.1395,-2.0697,-1.8422,-1.8903,-1.8803,-1.6489,-1.6562,-1.6616,-1.585,-1.569,-1.5257,-1.4336,-1.3886,-1.3428,-1.2795,-1.2122,-1.1375,-1.0714,-0.9768,-0.9005,-0.842,-0.7635,-0.7115,-0.6854,-0.6344,-0.5749,0.0,0.0,0.0,0.0,0.0,0.0,0.0,0.0,0.0,0.0,0.0,0.0,0.0,0.0,0.0,0.0,0.0,0.0,0.0,0.0,0.0,0.0,0.0,0.0,0.0,0.0,-0.9002,-0.9984,-1.0819,-1.1603,-1.2262,-1.2358,-1.2849,-1.4042,-1.4709,-1.5542,-1.6654,-1.8353,-1.9768,-2.0841,-2.164,-2.2646,-2.3902,-2.3928,-2.4414,-2.5354,-2.5855,-2.6674,-2.7809,-2.8551,-2.9329,-3.0075,-3.0759,-3.0887,-3.0616,-3.0281,-2.8992,-2.7301,-2.8067,-2.7533,-2.6391,-2.7062,-2.7322,-2.7557,-2.8998,-2.9687,-3.0016,-3.0478,-3.0581,-3.0405,-2.9715,-2.936,-2.907,-2.84,-2.8401,-2.8537,-2.8334,-2.8607,-2.8845,-2.8466,-2.8101,-2.7484,-2.6055,-2.5614,-2.4908,-2.3199,-2.2611,-2.1714,-1.9482,-2.0007,-1.998,-1.7689,-1.7654,-1.7587,-1.6709,-1.6415,-1.5993,-1.5192,-1.4501,-1.388,-1.3372,-1.2218,-1.1265,-1.0614,-0.9543,-0.8742,-0.8153,-0.7387,-0.6924,-0.689,-0.6528,-0.6136,-0.5717,0.0,0.0,0.0,0.0,0.0,0.0,0.0,0.0,0.0,0.0,0.0,0.0,0.0,0.0,0.0,0.0,0.0,0.0,0.0,0.0,0.0,0.0,0.0,-0.8169,-0.8441,-0.9079,-1.038,-1.1557,-1.232,-1.2604,-1.3314,-1.4194,-1.5255,-1.5957,-1.666,-1.7435,-1.8629,-1.9664,-2.0446,-2.0763,-2.1433,-2.2452,-2.2921,-2.3548,-2.4246,-2.4658,-2.5239,-2.5966,-2.7249,-2.7715,-2.7643,-2.8963,-2.8857,-2.7782,-2.7988,-2.7214,-2.6086,-2.8178,-2.8521,-2.7823,-2.7954,-2.8098,-2.831,-2.9195,-3.0075,-3.0784,-3.0717,-3.0685,-3.0634,-3.0528,-3.0378,-3.0182,-3.0018,-2.978,-2.9533,-2.9256,-2.9067,-2.8888,-2.8601,-2.8228,-2.7639,-2.6393,-2.5524,-2.4769,-2.4169,-2.3713,-2.2833,-2.0912,-2.1038,-2.086,-1.9304,-1.8859,0.0,-1.8088,-1.6897,-1.6159,-1.6267,-1.4863,-1.3749,-1.3372,-1.2094,-1.1222,-1.0947,-0.9872,-0.9138,-0.8792,-0.8014,-0.7614,-0.7684,-0.715,-0.6818,-0.6809,0.0,0.0,0.0,0.0,0.0,0.0,0.0,0.0,0.0,0.0,0.0,0.0,0.0,0.0,0.0,0.0,0.0,0.0,0.0,0.0,0.0,-0.6392,-0.7073,-0.7877,-0.9238,-1.0481,-1.1252,-1.2307,-1.3165,-1.3718,-1.4418,-1.5119,-1.5753,-1.6457,-1.6925,-1.7041,-1.8405,-1.9158,-1.91,-1.9965,-2.0722,-2.141,-2.1908,-2.2406,-2.2862,-2.352,-2.4194,-2.4879,-2.5654,-2.6293,-2.6838,-2.7548,-2.7533,-2.7025,-2.7422,-2.6756,-2.556,-2.6548,-2.646,-2.5814,-2.5938,-2.6897,-2.8251,-2.918,-3.0071,-3.0796,-3.078,-3.1191,-3.1545,-3.0804,-3.0492,-3.0275,-2.9543,-2.9216,-2.9045,-2.8827,-2.8596,-2.8509,-2.8846,-2.813,-2.7308,-2.7157,-2.6595,-2.5861,-2.4981,-2.4498,-2.3827,-2.2454,-2.1867,-2.1236,-2.0452,0.0,0.0,-1.8295,-1.7531,-1.6689,-1.6014,-1.5341,-1.4576,-1.3826,-1.2781,-1.1846,-1.1167,-0.9834,-0.8889,-0.8365,-0.7609,-0.7223,-0.7388,-0.7741,-0.761,0.0,0.0,0.0,0.0,0.0,0.0,0.0,0.0,0.0,0.0,0.0,0.0,0.0,0.0,0.0,0.0,0.0,0.0,0.0,0.0,0.0,0.0,-0.7038,-0.7757,-0.8627,-0.987,-1.0954,-1.1711,-1.2474,-1.3304,-1.4129,-1.4558,-1.5016,-1.5568,-1.6338,-1.6763,-1.6779,-1.8253,-1.8933,-1.8591,-1.9397,-2.0055,-2.0472,-2.0908,-2.1369,-2.1846,-2.2452,-2.3084,-2.3806,-2.4415,-2.4974,0.0,-2.6387,-2.6299,-2.5542,-2.6231,-2.5757,0.0,0.0,0.0,0.0,0.0,-2.6743,-2.8197,-2.9138,-3.0049,-3.0859,-3.1229,-3.1196,-3.1037,-3.1148,-3.0634,-2.9939,-2.9745,-2.9582,-2.9398,-2.9197,-2.9034,-2.8952,-2.9101,-2.8228,-2.7407,-2.7685,-2.6991,-2.6185,-2.564,0.0,0.0,-2.358,-2.2614,-2.1727,-2.0941,-1.9881,-1.9058,0.0,-1.7792,-1.7047,-1.6543,-1.5711,-1.4918,-1.435,-1.3268,0.0,0.0,0.0,-0.9403,-0.8623,-0.8214,0.0,0.0,0.0,-0.878,0.0,0.0,0.0,0.0,-0.8056,-0.7869,0.0,0.0,0.0,0.0,0.0,0.0,0.0,0.0,0.0,0.0,0.0,0.0,0.0,0.0,0.0,0.0,-0.7673,-0.8729,-0.9676,-1.0214,-1.0862,-1.1749,-1.2223,-1.2924,-1.395,-1.4071,-1.4381,-1.5131,-1.5969,-1.6497,-1.6645,0.0,0.0,0.0,0.0,-1.9426,-1.971,-2.0016,-2.0484,-2.1126,-2.1541,-2.2152,-2.2946,-2.3598,-2.3953,-2.4087,-2.5533,-2.5295,-2.399,-2.4927,-2.4721,-2.3937,-2.5186,-2.5314,-2.4964,-2.6244,-2.7266,0.0,0.0,0.0,0.0,-3.1706,-3.0918,-2.9913,-3.1412,-3.0742,-2.9601,-3.0308,-3.0386,-3.0182,-3.0,-2.9921,-2.9786,-2.9375,-2.847,-2.7789,-2.8058,-2.7087,-2.6165,-2.6147,-2.5594,-2.4934,-2.4271,-2.3245,-2.215,-2.1157,-2.04,0.0,-1.8933,-1.793,-1.7303,-1.7346,0.0,0.0,-1.4812,-1.3664,-1.2806,-1.2543,-1.1491,-1.0386,-0.9327,-0.9443,-0.9305,-0.8844,-0.9586,-1.0071,-1.0188,-1.001,-1.003,-1.0161,-0.8926,-0.8601,0.0,0.0,0.0,0.0,0.0,0.0,0.0,0.0,0.0,0.0,0.0,0.0,0.0,0.0,0.0,-0.6306,-0.7209,-0.8114,-0.9119,-1.0156,-1.0883,-1.1004,-1.1509,-1.2193,-1.3066,-1.396,-1.4796,-1.5615,-1.6621,-1.7071,-1.6854,-1.7606,0.0,-1.7629,-1.8274,-1.8757,-1.9133,-1.9851,-2.0359,-2.0709,0.0,0.0,-2.3017,-2.3537,-2.4149,-2.4829,-2.5573,-2.5384,-2.4663,-2.5238,-2.5066,-2.454,-2.4763,-2.482,-2.5017,-2.6817,-2.7665,-2.8144,-2.9799,-3.0516,-3.0755,-3.0989,-3.0813,-3.0618,-3.0925,-3.0746,0.0,-3.0545,-3.0511,-3.0428,-3.0343,-3.0152,-2.994,-2.9719,-2.8717,-2.7853,-2.8128,-2.7681,-2.7047,-2.6471,-2.5885,-2.5323,-2.4775,-2.3314,-2.2119,-2.1699,-2.0574,-1.9607,-1.9187,-1.8437,-1.7517,-1.6504,-1.6182,-1.569,-1.4693,-1.4138,-1.3681,-1.3226,-1.1978,-1.0846,-0.9969,-1.0457,-1.0386,-0.9676,-1.0322,-1.0417,-0.9945,-1.0219,-1.0147,-0.9646,-0.9617,-0.9649,0.0,0.0,0.0,0.0,0.0,0.0,0.0,0.0,0.0,0.0,0.0,-0.421,-0.4271,0.0,-0.606,-0.6983,-0.7855,-0.8533,-0.8963,-1.0003,-1.0698,-1.0759,-1.1743,-1.2645,-1.3107,-1.4075,-1.4736,-1.4953,-1.6236,-1.6696,-1.6041,-1.7231,-1.7728,-1.7301,-1.7879,-1.8357,-1.8684,-1.9183,-1.9649,-2.0105,-2.066,-2.1251,-2.1915,-2.2929,-2.3472,-2.3777,-2.5119,-2.5285,-2.4676,-2.5246,-2.5535,-2.5551,-2.5045,-2.483,-2.502,-2.683,-2.7631,-2.811,-3.0285,-3.0875,-3.0808,-3.1707,-3.0876,-2.9664,-3.0546,-3.0172,-2.9539,-2.9937,-3.0292,-3.052,-3.0439,-3.0241,-3.0068,-2.9893,-2.8895,-2.8061,-2.8464,-2.779,-2.7058,-2.6869,-2.6315,-2.5684,-2.5192,-2.3963,-2.2759,-2.1875,-2.0887,-2.0031,-1.9397,-1.8637,-1.7893,-1.7103,-1.6592,-1.5975,-1.5241,-1.4533,-1.3943,-1.3405,-1.2298,-1.1534,-1.1236,-1.1167,-1.1077,-1.1017,-1.1145,-1.1044,-1.0773,-1.104,-1.0915,-1.0503,-1.066,-1.0476,0.0,0.0,0.0,0.0,0.0,0.0,0.0,-0.2782,-0.2933,-0.3385,-0.3989,-0.4557,-0.5069,-0.5867,-0.6747,-0.7465,-0.8293,-0.8836,-0.8809,-0.9707,-1.0435,-1.0499,-1.188,-1.2902,-1.3083,-1.4042,-1.4573,-1.4382,-1.5758,-1.6297,-1.5563,-1.7014,-1.7675,-1.722,-1.7698,-1.8076,-1.8331,-1.8471,-1.888,-1.9565,-1.9965,-2.0421,-2.088,-2.2124,-2.2679,-2.2725,-2.4722,-2.5317,-2.4967,-2.5615,-2.619,-2.6539,-2.5786,-2.5379,-2.5366,-2.6766,-2.7528,-2.8224,-3.0605,-3.1168,-3.1002,-3.226,-3.0864,-2.8902,-3.0167,-2.9568,-2.8625,-2.9511,-3.0175,-3.0604,-3.0452,-3.0328,-3.0166,-2.9953,-2.9137,-2.8477,-2.8828,-2.7879,-2.7035,-2.7257,-2.669,-2.6016,-2.5519,-2.4648,-2.3571,-2.2149,-2.1401,-2.0637,-1.9703,-1.8958,-1.8387,-1.7952,-1.7011,-1.6239,-1.5672,-1.4784,-1.4061,-1.345,-1.265,-1.2258,-1.229,-1.1677,-1.154,-1.1996,-1.1814,-1.1655,-1.1655,-1.1848,-1.18,-1.1546,-1.1648,-1.1229,-0.1443,-0.183,-0.241,-0.1635,-0.2125,-0.2671,0.0,-0.3227,-0.4226,-0.4066,-0.5026,-0.5815,-0.5348,-0.5766,-0.6213,-0.6346,-0.7074,-0.7797,-0.8369,-0.9329,-0.9903,-0.9813,-1.0816,-1.1701,-1.2102,-1.3466,-1.4499,-1.4862,-1.606,-1.6858,-1.7038,-1.7046,-1.7111,-1.726,-1.7658,-1.7899,-1.8025,-1.8154,-1.8624,-1.9408,-1.9283,-1.9864,-2.1081,-2.1796,-2.2563,-2.3455,-2.4834,-2.5788,-2.6424,-2.6953,-2.7142,-2.7126,-2.6933,-2.679,-2.6723,-2.7084,-2.7751,-2.8761,-3.0601,-3.1345,-3.1419,-3.0946,-3.0591,-3.0244,-2.9772,-2.9515,-2.9531,-3.0407,-3.0716,-3.0739,-3.053,-3.0398,-3.0209,-2.995,-2.9658,-2.9344,-2.8983,-2.8431,-2.7885,-2.7391,-2.6822,-2.6264,-2.5663,-2.4997,-2.4127,-2.2966,-2.2161,-2.1321,-2.0256,-1.9645,-1.8898,-1.8007,-1.729,-1.6492,-1.5352,-1.4883,-1.4419,-1.3761,-1.313,-1.2573,-1.2305,-1.2081,-1.1896,-1.1685,-1.1838,-1.192,-1.1797,-1.2197,-1.22,-1.1812,-1.2237,-1.1919,-0.1371,-0.1346,-0.1584,-0.145,-0.1694,-0.2161,-0.287,-0.3462,-0.3918,-0.4273,-0.4974,-0.5514,-0.5281,-0.5953,-0.6577,-0.6648,-0.7599,-0.8305,-0.8283,-0.9249,-0.9857,-0.9619,-1.0368,-1.1095,-1.1657,-1.3459,-1.4522,-1.4358,-1.58,-1.6694,-1.6648,-1.7108,-1.7346,-1.7278,-1.7656,-1.7679,-1.7485,-1.7985,-1.8295,-1.8548,-1.9112,-1.9645,-2.015,-2.1121,-2.2444,-2.398,-2.4704,-2.5701,-2.6892,-2.6889,-2.7355,-2.802,-2.7449,-2.7469,-2.7738,-2.701,-2.7121,-2.7872,-2.9311,-3.0214,-3.0695,-3.0502,-3.0115,-2.9676,-2.946,-2.906,-2.8883,-2.9791,-3.0371,-3.0716,-3.0645,-3.0524,-3.0364,-3.0184,-2.9924,-2.9605,-2.9279,-2.8837,-2.8352,-2.7915,-2.7303,-2.6741,-2.6297,-2.5481,-2.4623,-2.3891,-2.2725,-2.1602,-2.0759,-2.0003,-1.9016,-1.7776,-1.7179,-1.6457,-1.541,-1.501,-1.4547,-1.383,-1.3338,-1.2981,-1.2736,-1.249,-1.2367,-1.2428,-1.2383,-1.2426,-1.2569,-1.2841,-1.2898,-1.2826,-1.3136,-1.283,-0.1443,-0.1179,-0.114,-0.1363,-0.1598,-0.2171,-0.346,-0.3865,-0.4113,-0.458,-0.4988,-0.5226,-0.508,-0.5811,-0.6448,-0.6538,-0.7689,-0.8467,-0.8268,-0.9064,-0.9665,-0.9536,-0.9971,-1.0488,-1.1049,-1.2977,-1.4086,-1.3856,-1.5198,-1.6105,-1.6181,-1.6827,-1.7137,-1.7022,-1.7301,-1.7357,-1.7098,-1.7619,-1.7922,-1.7946,-1.8902,-1.9333,-1.934,-2.0485,-2.2075,-2.3905,-2.4221,-2.5279,-2.685,-2.6615,-2.7285,-2.8426,-2.7655,-2.7888,-2.844,-2.697,-2.6863,-2.7642,-2.8887,-2.975,-3.0312,-3.0245,-2.9997,-2.9646,-2.933,-2.9024,-2.8935,-2.9615,-3.0257,-3.0721,-3.069,-3.0637,-3.0513,-3.0383,-3.0106,-2.981,-2.9532,-2.9107,-2.8676,-2.8264,-2.7683,-2.7149,-2.6758,-2.5941,-2.5153,-2.4567,-2.3289,-2.2156,-2.1326,-2.0321,-1.923,-1.8204,-1.7511,-1.6793,-1.6045,-1.5547,-1.5008,-1.4403,-1.3873,-1.3554,-1.3428,-1.2969,-1.2899,-1.3322,-1.3048,-1.314,-1.3566,-1.3557,-1.3652,-1.3862,-1.3803,-1.3404,-0.1894,-0.1777,-0.1504,-0.1511,-0.2407,-0.338,-0.366,-0.4684,-0.5526,-0.5176,-0.534,-0.5384,-0.4808,-0.5007,-0.5304,-0.5405,-0.6593,-0.767,-0.8218,-0.8659,-0.9092,-0.9437,-0.9524,-0.9704,0.0,-1.1734,-1.3004,-1.3556,-1.4265,-1.5094,-1.6036,-1.5999,-1.6066,-1.6353,-1.6524,-1.6729,-1.6989,-1.7179,-1.7531,-1.8096,-1.8566,-1.8918,-1.9064,-1.9905,-2.1225,-2.2858,-2.3175,-2.4479,-2.6336,-2.6453,-2.7049,-2.789,-2.7659,-2.8112,-2.8706,-2.7093,-2.7403,-2.8832,-3.0185,-3.073,-3.0772,-3.005,-3.0459,-3.0958,-2.9454,-2.9728,-3.054,-3.0555,-3.0677,-3.0779,-3.0728,-3.0689,-3.065,-3.0518,-3.0283,-3.0018,-2.9763,-2.9321,-2.8837,-2.829,-2.7926,-2.7474,-2.6808,-2.6297,-2.5668,-2.4728,-2.4006,-2.3098,-2.1935,-2.061,-1.9789,-1.9819,-1.8645,-1.7768,-1.7562,-1.6659,-1.5948,-1.5722,-1.493,-1.4463,-1.4542,-1.3708,-1.3506,-1.4076,-1.3835,-1.4055,-1.4618,-1.4292,-1.4275,-1.4545,-1.387,-1.361,-0.0505,-0.0855,-0.1368,-0.1479,-0.2503,-0.3496,-0.3699,-0.4547,-0.5058,-0.4481,-0.4723,-0.4819,-0.3973,-0.4459,-0.5066,-0.5453,-0.6579,-0.7562,-0.7973,-0.893,-0.9299,-0.8629,-0.9296,0.0,0.0,0.0,0.0,-1.3086,-1.4194,-1.5118,-1.577,-1.6449,-1.676,-1.6576,-1.7112,-1.7042,-1.6326,-1.7469,-1.7725,-1.7134,-1.8038,-1.8736,-1.9274,-1.9885,-2.0752,-2.1788,-2.2335,-2.3258,-2.4477,-2.5233,-2.6093,-2.7012,-2.7606,-2.7953,-2.8168,-2.8262,-2.8168,-2.7967,-2.7785,-2.8593,-2.96,-2.8989,-2.9521,-3.0292,-2.987,-2.9231,-2.8809,-2.9483,-2.9751,-2.9819,-2.9832,-3.0309,-3.0724,-3.0607,-3.0423,-3.0362,-3.0573,-3.034,-2.9928,-2.9471,-2.8989,-2.8358,-2.7456,-2.6708,-2.5852,-2.4632,-2.342,-2.2388,-2.165,-2.061,-1.9833,-1.9606,-1.8585,-1.769,-1.7237,-1.654,-1.5944,-1.5566,-1.5195,-1.4881,-1.4671,-1.4565,-1.4515,-1.4586,-1.459,-1.4771,-1.5002,-1.4563,-1.4435,-1.4649,-1.4002,-1.3551,-0.0174,-0.0786,-0.1582,-0.1639,-0.2622,-0.36,-0.3711,-0.4254,-0.4538,-0.388,-0.3902,-0.3816,-0.2979,-0.3454,-0.4188,-0.4797,-0.5882,-0.6935,-0.7678,-0.8662,-0.9051,-0.8488,-0.9019,-0.9409,0.0,0.0,0.0,-1.2253,-1.3663,-1.469,-1.5114,-1.6048,-1.6542,-1.641,-1.6937,-1.6741,-1.5831,-1.7243,-1.7802,-1.7377,-1.8041,-1.8769,-1.9418,-1.9435,-2.0073,-2.1174,-2.1462,-2.2252,-2.3428,-2.4436,-2.531,-2.6187,-2.7041,-2.7542,-2.7845,-2.8345,-2.8125,-2.747,-2.7252,-2.79,-2.8787,-2.8586,-2.9064,-2.9811,-3.0281,-2.9575,-2.8727,-2.9374,-2.9436,-2.9311,-2.939,-2.9876,-3.0382,-3.0626,-3.0568,-3.0521,-3.0757,-3.0551,-3.0186,-2.982,-2.929,-2.8653,-2.7848,-2.6922,-2.5908,-2.4776,-2.3507,-2.2427,-2.1876,-2.1027,-2.0399,-2.0073,-1.8976,-1.813,-1.77,-1.6949,-1.6477,-1.6326,-1.5811,-1.5488,-1.5438,-1.5247,-1.512,-1.5074,-1.5159,-1.5366,-1.5563,-1.4913,-1.4713,-1.507,-1.4222,-1.3729,-0.0834,-0.1419,-0.2058,-0.2038,-0.2776,-0.3597,-0.3641,-0.3982,-0.4047,-0.3385,-0.2957,-0.2512,-0.1902,-0.2174,-0.273,-0.3467,-0.4576,-0.5886,-0.7364,-0.7895,-0.8331,-0.8901,-0.8731,-0.8858,-0.9624,0.0,0.0,-1.1156,0.0,-1.376,-1.4269,-1.4902,-1.5441,-1.5748,-1.595,-1.59,-1.551,-1.6658,-1.7737,-1.8731,-1.8524,-1.8797,-1.9394,-1.8652,-1.9308,-2.0913,-2.0581,-2.1399,-2.3037,-2.3917,-2.4681,-2.5342,-2.6176,-2.6916,-2.759,-2.7439,-2.74,-2.7543,-2.8553,-2.8596,-2.8306,-2.8748,-2.9123,-2.9619,-3.0659,-3.0614,-3.0182,-3.019,-2.9729,-2.9242,-2.9294,-2.9409,-2.9697,-3.0528,-3.0662,-3.0567,-3.0413,-3.0117,-2.9782,-2.9437,-2.8956,-2.8428,-2.7982,-2.6903,-2.5855,-2.5144,-2.4142,-2.3214,-2.2574,-2.1847,-2.1332,-2.1144,-1.9848,-1.8976,-1.8872,-1.7924,-1.7489,-1.785,-1.677,-1.6335,-1.6839,-1.5819,-1.5398,-1.5638,-1.5659,-1.5872,-1.6285,-1.5423,-1.5217,-1.5659,-1.4538,-1.4209,-0.0234,-0.0764,-0.1476,-0.2006,-0.267,-0.3141,-0.3175,-0.3358,-0.3375,-0.2809,-0.2713,-0.2479,-0.1716,-0.1929,-0.2517,-0.3501,-0.4193,-0.5209,-0.7066,-0.8081,-0.8605,-0.8575,-0.935,-0.9781,-0.948,-1.0208,0.0,0.0,-1.2188,-1.3405,-1.375,-1.4686,-1.5323,-1.5563,-1.5757,-1.586,-1.5851,-1.6449,-1.7159,-1.7978,-1.7803,-1.7975,-1.8286,-1.8449,-1.8714,-1.9138,-2.0296,-2.0923,-2.1295,-2.2899,-2.361,-2.3833,-2.5273,-2.604,-2.6409,-2.7305,-2.7611,-2.7655,-2.8396,-2.8132,-2.7607,-2.8306,-2.9174,-3.0113,-3.0692,-3.0411,-2.9918,-3.0034,-2.9143,-2.8183,-2.8211,-2.8804,-2.9474,-2.9707,-3.0225,-3.08,-3.1255,-3.1117,-3.082,-3.0471,-2.9283,-2.8183,-2.7829,-2.6985,-2.6229,-2.5689,-2.4831,-2.3909,-2.2804,-2.1753,-2.0964,-2.0669,-1.9621,-1.8887,-1.8542,-1.779,-1.7462,-1.7932,-1.7126,-1.6833,-1.728,-1.6786,-1.6427,-1.6256,-1.6297,-1.6249,-1.5984,-1.5818,-1.546,-1.4997,-1.4603,-1.4293,-0.0099,-0.0636,-0.1283,-0.176,-0.2265,-0.2531,-0.2299,-0.2491,-0.2579,-0.2004,-0.1929,-0.1767,-0.1214,-0.1164,-0.1557,-0.2606,-0.3309,-0.4351,-0.6176,-0.7489,-0.822,-0.8243,-0.9149,-0.9597,-0.9285,-0.986,-1.0288,0.0,-1.1881,-1.2845,-1.3152,-1.4085,-1.4734,-1.5116,-1.5407,-1.5687,-1.5936,-1.6184,-1.6563,-1.7019,-1.7186,-1.7398,-1.7674,-1.7883,-1.8137,-1.8511,0.0,-2.0125,-2.0324,-2.1969,-2.2713,-2.2895,-2.4168,-2.5078,-2.5727,-2.6686,-2.7214,-2.7426,-2.7739,-2.7541,-2.7265,-2.8194,-2.8909,-2.9624,-3.0838,-3.0488,-2.9827,-3.036,-2.9436,-2.8219,-2.7873,-2.8272,-2.8851,-2.9303,-2.9763,-3.0338,-3.1103,-3.1058,-3.0772,-3.0319,-2.9277,-2.8334,-2.7954,-2.7238,-2.6522,-2.5908,-2.5144,-2.4266,-2.3231,-2.2447,-2.1772,-2.1355,-2.0699,-2.0109,-1.9641,-1.9018,-1.8771,-1.9093,-1.8118,-1.7665,-1.7954,-1.7275,-1.6774,-1.6443,-1.6567,-1.6488,-1.6052,-1.6053,-1.5897,-1.5538,-1.5228,-1.4903,-0.0208,-0.0708,-0.1223,-0.1442,-0.1705,-0.1806,-0.1381,-0.1572,-0.1683,-0.1164,-0.1,-0.086,-0.0516,-0.0257,-0.0439,-0.1421,-0.2299,-0.3457,-0.5286,-0.6571,-0.7475,-0.796,-0.855,-0.8926,-0.9033,-0.9284,-0.9756,-1.0488,-1.1425,-1.2119,-1.2504,-1.3218,-1.3855,-1.4348,-1.4944,-1.5364,-1.5551,-1.5721,-1.5868,-1.5921,-1.6455,-1.6835,-1.7123,-1.7129,-1.7463,-1.8285,0.0,0.0,-1.9911,-2.125,-2.1975,-2.2309,-2.3088,-2.415,-2.5286,-2.5903,-2.6484,-2.6977,-2.6969,-2.7032,-2.7243,-2.8113,-2.8435,-2.8843,-3.0862,-3.066,-2.9908,-3.0879,-2.9981,-2.8561,-2.7937,-2.7739,-2.7939,-2.8825,-2.9233,-2.9604,-3.0365,-3.0455,-3.0208,-2.9658,-2.9172,-2.8688,-2.8219,-2.7554,-2.6805,-2.6019,-2.5323,-2.4651,-2.3844,-2.3397,-2.2972,-2.2432,-2.2122,-2.1712,-2.1188,-2.0722,-2.0452,-2.0554,-1.9296,-1.8503,-1.8447,-1.7543,-1.6853,-1.6353,-1.6609,-1.6566,-1.6287,-1.6282,-1.6311,-1.6331,-1.5827,-1.5584,0.0,-0.0374,-0.0663,-0.1187,-0.113,-0.0997,-0.1105,-0.108,-0.0971,-0.0874,-0.0792,-0.0541,0.0187,0.0092,-0.0401,-0.1348,-0.1799,-0.2887,-0.5381,-0.6067,-0.6685,-0.788,-0.8482,-0.8775,-0.8798,-0.9255,0.0,0.0,0.0,-1.0902,-1.2173,-1.2314,-1.2617,-1.3293,-1.423,-1.4529,-1.4114,-1.4419,-1.4775,-1.5117,-1.5338,-1.56,-1.5786,-1.6234,-1.662,-1.693,0.0,0.0,-1.9736,-2.07,-2.1399,-2.1992,-2.253,-2.3399,-2.4468,-2.5382,-2.5959,-2.6381,-2.6994,-2.7427,-2.7607,-2.7368,-2.8006,-2.9073,-2.993,-3.0277,-3.042,-3.077,-2.9315,-2.7666,-2.7643,-2.7179,-2.6814,-2.7103,-2.8306,-2.9432,-2.9581,-2.9998,-3.0201,-2.9823,-2.9382,-2.892,-2.8511,-2.7855,-2.7189,-2.6488,-2.6216,-2.574,-2.4726,-2.3523,-2.2725,-2.2487,-2.1928,-2.1546,-2.1499,-2.0962,-2.0529,-2.0205,-1.9379,-1.8691,-1.8261,-1.7721,-1.719,-1.6705,-1.6654,-1.6514,-1.6294,-1.6566,-1.6286,-1.5449,-1.5633,-1.5573,0.0411,0.0108,-0.0055,-0.0359,-0.0289,-0.0219,-0.0283,-0.0336,-0.0317,-0.0239,-0.0146,0.0,0.0303,0.0379,0.0183,-0.0504,-0.1042,-0.2064,-0.3965,-0.4935,-0.5832,-0.6857,-0.7643,-0.8047,-0.7777,-0.8373,-0.8758,0.0,0.0,-0.9695,-1.1196,-1.1525,-1.1926,-1.2519,-1.3218,-1.3459,-1.3228,-1.3506,-1.3803,-1.4049,-1.4186,-1.4458,-1.466,-1.5035,-1.5581,-1.6255,0.0,0.0,-1.9008,-1.9857,-2.0456,-2.0917,-2.1469,-2.2444,-2.3657,-2.4434,-2.5187,-2.5842,-2.6281,-2.6642,-2.6855,-2.649,-2.7416,-2.8789,-2.9384,-2.9612,-2.9769,-3.0495,-2.9363,-2.7859,-2.757,-2.693,-2.6389,-2.6564,-2.8038,-2.9512,-2.9977,-3.0243,-3.0186,-2.9459,-2.9355,-2.907,-2.8192,-2.787,-2.7525,-2.6822,-2.6405,-2.5867,-2.4968,-2.4018,-2.3329,-2.3164,-2.309,-2.2858,-2.2348,-2.1746,-2.1469,-2.1547,-2.0201,-1.9453,-1.9437,-1.8373,-1.7689,-1.7357,-1.7088,-1.6864,-1.6673,-1.6974,-1.6732,-1.6001,-1.6172,-1.6038,0.0825,0.0648,0.0655,0.0615,0.0618,0.0641,0.0635,0.0549,0.0474,0.0561,0.064,0.0692,0.0604,0.0835,0.0865,0.0295,-0.0304,-0.1187,-0.2619,-0.377,-0.4811,-0.5699,-0.6566,-0.6959,-0.6563,-0.7257,0.0,0.0,0.0,0.0,-1.0128,-1.0791,-1.1356,-1.1861,-1.214,-1.2282,-1.2386,-1.26,-1.2728,-1.2826,-1.3105,-1.339,-1.368,-1.384,-1.4553,-1.5675,-1.6228,0.0,0.0,-1.9235,-1.9884,-2.0313,-2.0895,-2.1952,-2.3183,-2.3829,-2.4568,-2.5346,-2.556,-2.5877,-2.6163,-2.5972,-2.6887,-2.8204,-2.8735,-2.881,-2.8918,-2.9928,-2.9322,-2.8199,-2.7509,-2.6767,-2.6262,-2.6491,-2.7851,-2.9355,-3.0248,-3.051,-3.0221,-2.9179,-2.9334,-2.9251,-2.7964,-2.7924,-2.7844,-2.7158,-2.6623,-2.6016,-2.5192,-2.4792,-2.4372,-2.38,-2.4152,-2.4035,-2.3083,-2.2641,-2.2415,-2.2485,-2.0896,-2.0067,-2.027,-1.8995,-1.8236,-1.8116,-1.77,-1.7412,-1.7224,-1.728,-1.7059,-1.6599,-1.6492,-1.631,0.1092,0.1196,0.1428,0.1273,0.1473,0.1707,0.1443,0.1522,0.1624,0.1496,0.143,0.1499,0.1788,0.1685,0.1234,0.033,0.0279,-0.0386,-0.2592,-0.2988,-0.3514,-0.4668,-0.5306,-0.5578,-0.5371,-0.6211,-0.6646,0.0,0.0,0.0,0.0,-1.0176,-1.0689,-1.1016,-1.1083,-1.1211,-1.1218,-1.1282,-1.1367,-1.1558,-1.215,-1.2526,-1.2746,-1.3119,-1.368,-1.4522,0.0,0.0,0.0,-1.9137,-2.035,-2.145,-2.1636,-2.2456,-2.3626,-2.4016,-2.436,-2.4818,-2.5609,-2.6146,-2.6495,-2.6236,-2.6611,-2.719,-2.7469,-2.7943,-2.8428,-2.8839,-2.8609,-2.8054,-2.7319,-2.6676,-2.6274,-2.6592,-2.7478,-2.8473,-2.9412,-3.0161,-3.0382,-2.9371,-2.9551,-2.9498,-2.8353,-2.8274,-2.8174,-2.7613,-2.7451,-2.6942,-2.5766,-2.5993,-2.5641,-2.4038,-2.4043,-2.3928,-2.3398,-2.3433,-2.2756,-2.1176,-2.0743,-2.0159,-1.9344,-1.9088,-1.8881,-1.8697,-1.8387,-1.817,-1.7984,-1.7436,-1.6838,-1.6254,-1.5885,-1.5796,0.2112,0.2246,0.2458,0.2423,0.2467,0.2473,0.2333,0.2341,0.2366,0.2186,0.2273,0.2355,0.2208,0.2207,0.1971,0.1232,0.1166,0.0665,-0.0949,-0.1226,-0.182,-0.3314,-0.3802,-0.4251,0.0,0.0,0.0,0.0,0.0,0.0,0.0,-0.8502,-0.94,-0.982,-0.981,-0.9936,-1.0143,-1.0126,-1.0346,-1.0887,-1.1186,-1.1484,-1.1706,-1.2003,-1.2579,-1.344,0.0,0.0,0.0,-1.8408,-1.9525,-2.0386,-2.0711,-2.1642,-2.2866,-2.3119,-2.3559,-2.4146,-2.5061,-2.5447,-2.5635,-2.6268,-2.6606,-2.6762,-2.7139,-2.7678,-2.8183,-2.8533,-2.8288,-2.7931,-2.7735,-2.697,-2.6327,-2.6583,-2.6985,-2.771,-2.918,-2.935,-2.9201,-2.9253,-2.8925,-2.8574,-2.8412,-2.7827,-2.7374,-2.737,-2.6999,-2.6417,-2.5578,-2.5713,-2.5584,-2.4726,-2.4328,-2.376,-2.3019,-2.2597,-2.2224,-2.1744,-2.0888,-2.0345,-2.0353,-1.9726,-1.9356,-1.9291,-1.9069,-1.8701,-1.8235,-1.7958,-1.7326,-1.6382,-1.6173,-1.6056,0.312,0.3301,0.355,0.3455,0.3366,0.3269,0.307,0.3131,0.311,0.279,0.3009,0.3116,0.2619,0.2649,0.2558,0.1999,0.1931,0.1559,0.0496,0.0253,-0.0329,-0.1835,-0.2269,-0.2805,0.0,-0.4001,0.0,0.0,0.0,0.0,0.0,-0.6781,-0.7832,-0.8677,-0.8705,-0.8918,-0.9227,-0.9312,-0.9611,-1.0218,-1.0443,-1.0663,-1.0812,-1.1037,-1.1589,-1.2412,0.0,0.0,0.0,-1.7649,-1.882,-1.9596,-2.0222,-2.1174,-2.2315,-2.2657,-2.3148,-2.391,-2.4832,-2.4952,-2.4878,-2.6136,-2.6335,-2.626,-2.6843,-2.7444,-2.7971,-2.8335,-2.7936,-2.7435,-2.7416,-2.6655,-2.5933,-2.6107,-2.6478,-2.7137,-2.8424,-2.8612,-2.8636,-2.8922,-2.857,-2.821,-2.8256,-2.7614,-2.7133,-2.7336,-2.697,-2.6472,-2.5975,-2.5775,-2.5577,-2.5269,-2.4645,-2.3881,-2.3008,-2.2559,-2.2263,-2.2218,-2.1246,-2.0856,-2.1159,-2.0425,-2.0016,-2.0016,-1.9686,-1.9258,-1.8585,-1.8339,-1.7869,-1.7125,-1.7008,-1.6933,0.3937,0.4341,0.476,0.4155,0.4125,0.4178,0.3695,0.3899,0.4013,0.3338,0.3582,0.3719,0.32,0.3101,0.2949,0.2472,0.2447,0.2152,0.1228,0.1138,0.0793,-0.0314,-0.079,-0.119,-0.166,-0.2533,0.0,0.0,0.0,0.0,0.0,-0.521,-0.6068,-0.7766,-0.7852,-0.8201,-0.8694,-0.8941,-0.9242,-0.9625,-0.9846,-0.9992,-1.0218,-1.0443,-1.0802,0.0,0.0,0.0,0.0,-1.6918,-1.8488,-1.9686,-2.0724,-2.1544,-2.2292,-2.2845,-2.3541,-2.4211,-2.5084,-2.4941,-2.4572,-2.5727,-2.5743,-2.547,-2.6332,-2.7132,-2.7789,-2.8119,-2.7459,-2.6497,-2.5966,-2.5377,-2.4945,-2.5076,-2.5927,-2.6715,-2.6815,-2.8174,-2.9146,-2.8353,-2.8741,-2.8867,-2.7871,-2.7862,-2.7941,-2.7798,-2.7792,-2.7666,-2.7317,-2.664,-2.5999,-2.554,-2.4981,-2.4364,-2.3734,-2.3851,-2.3432,-2.2085,-2.1841,-2.1664,-2.1423,-2.1131,-2.0997,-2.0997,-2.0254,-1.9699,-1.93,-1.8429,-1.826,-1.8649,-1.8362,-1.8454,0.4241,0.4618,0.4908,0.4452,0.4394,0.434,0.3913,0.4115,0.4269,0.3704,0.364,0.3651,0.347,0.3327,0.3093,0.2627,0.2662,0.2639,0.2243,0.1912,0.1452,0.0762,-0.0377,-0.1159,0.0,0.0,0.0,0.0,0.0,0.0,0.0,-0.3942,-0.4916,-0.6603,-0.6851,-0.7064,-0.7249,-0.7571,-0.7947,-0.8394,-0.8546,-0.9005,-0.9611,-0.9525,0.0,0.0,0.0,0.0,0.0,-1.5839,-1.7318,-1.8303,-1.937,-2.042,-2.1461,-2.2057,-2.2936,-2.3875,-2.4599,-2.4861,-2.502,-2.5938,-2.5975,-2.5823,-2.6718,-2.7233,-2.7525,-2.7619,-2.7942,-2.7856,-2.6154,-2.6134,-2.6298,-2.5266,-2.5393,-2.5925,-2.6592,-2.7248,-2.7949,-2.8859,-2.8266,-2.7854,-2.8531,-2.7656,-2.6885,-2.7103,-2.7356,-2.7334,-2.6819,-2.6771,-2.6607,-2.6279,-2.5631,-2.4831,-2.3837,-2.3584,-2.3138,-2.2388,-2.2203,-2.2063,-2.1793,-2.1779,-2.1684,-2.1568,-2.1014,-2.0343,-1.9637,-1.9017,-1.8737,-1.8833,-1.9065,-1.9347,0.4688,0.4914,0.5159,0.4756,0.4529,0.434,0.4086,0.4121,0.4103,0.3655,0.3731,0.3792,0.3495,0.3472,0.3362,0.2991,0.3015,0.3002,0.2859,0.2544,0.2102,0.1492,0.0,0.0,0.0,0.0,0.0,0.0,0.0,0.0,0.0,0.0,-0.3345,-0.4596,-0.5603,-0.6173,-0.6247,-0.6626,-0.7088,-0.7548,-0.7625,-0.7996,-0.8737,-0.8763,0.0,0.0,0.0,0.0,0.0,-1.4674,-1.5994,-1.7064,-1.8527,-1.9748,-2.079,-2.1724,-2.265,-2.3597,-2.4286,-2.4473,-2.4547,-2.5469,-2.5757,-2.5894,-2.671,-2.7182,-2.7442,-2.7307,-2.7568,-2.7592,-2.6023,-2.594,-2.6057,-2.5175,-2.5122,-2.5428,-2.6041,-2.6534,-2.7186,-2.824,-2.7639,-2.7199,-2.8086,-2.7431,-2.6852,-2.6977,-2.7571,-2.781,-2.729,-2.7215,-2.6977,-2.6418,-2.5955,-2.5255,-2.4144,-2.391,-2.3666,-2.3245,-2.2995,-2.274,-2.2526,-2.2512,-2.242,-2.2296,-2.152,-2.0869,-2.0274,-1.9793,-1.9558,-1.9613,-2.0048,-2.0513,0.0,0.5187,0.5356,0.4939,0.4546,0.4244,0.4166,0.3991,0.0,0.3375,0.3801,0.4083,0.346,0.358,0.374,0.3612,0.3462,0.3334,0.3226,0.3108,0.0,0.0,0.1323,0.0,0.0,0.0,0.0,0.0,0.0,0.0,0.0,0.0,-0.1486,-0.2181,-0.4042,-0.516,-0.5386,-0.5777,-0.6391,-0.7007,-0.6861,-0.7099,-0.7731,-0.8047,0.0,0.0,0.0,0.0,0.0,-1.3302,-1.4552,-1.5881,-1.7974,-1.9337,-2.0299,-2.1748,-2.2627,-2.3313,-2.4068,-2.3835,-2.3421,-2.4477,-2.5127,-2.5611,-2.6148,-2.6901,-2.7472,-2.7041,-2.6595,-2.6141,-2.5571,-2.5057,-2.4729,-2.4879,-2.505,-2.5206,-2.528,-2.6083,-2.6805,-2.6876,-2.6953,-2.6971,-2.6909,-2.7256,-2.7489,-2.7333,-2.8184,-2.87,-2.8316,-2.7751,-2.6999,-2.5962,-2.59,-2.553,-2.4506,-2.463,-2.4664,-2.443,-2.393,-2.3591,-2.345,-2.3201,-2.3128,-2.3172,-2.1909,-2.1204,-2.109,-2.0679,-2.055,-2.0749,-2.1223,-2.1762,0.4587,0.0,0.4876,0.4214,0.4053,0.3995,0.0,0.3966,0.424,0.4145,0.4052,0.4134,0.457,0.4108,0.3823,0.4413,0.4222,0.3996,0.4066,0.3625,0.0,0.2704,0.1944,0.0,0.0,0.0,0.0,0.0,0.0,0.0,0.0,0.0,-0.0637,-0.0871,-0.1908,-0.2738,-0.3205,-0.399,-0.4613,-0.5068,-0.5157,-0.5839,-0.6893,-0.6802,0.0,0.0,0.0,0.0,-1.0383,-1.1786,-1.3453,-1.5265,-1.6436,-1.7937,-1.9461,-2.0407,-2.1236,-2.2115,-2.3008,-2.349,-2.3673,-2.3823,-2.3809,-2.3826,-2.4364,-2.5793,-2.7105,-2.618,-2.6498,-2.6745,-2.5077,-2.5093,-2.5412,-2.5007,-2.498,-2.5069,-2.5206,-2.6006,-2.6734,-2.6817,-2.6927,-2.7199,-2.776,-2.7278,-2.6983,-2.7389,-2.7474,-2.7324,-2.6907,-2.658,-2.6152,-2.5592,-2.535,-2.5053,-2.4601,-2.4324,-2.4265,-2.4477,-2.3237,-2.293,-2.3891,-2.3341,-2.3242,-2.3797,-2.2389,-2.1443,-2.1024,-2.0513,-2.0596,-2.125,-2.1619,-2.2025,0.4803,0.4826,0.4804,0.4408,0.4252,0.4179,0.4155,0.4125,0.413,0.413,0.4078,0.4139,0.4487,0.4339,0.4323,0.4859,0.4825,0.4703,0.0,0.0,0.383,0.3473,0.2822,0.0,0.0,0.0,0.0,0.0,0.0,0.0,0.0,0.0,0.1048,0.087,0.0224,-0.0765,-0.2035,-0.2743,-0.321,-0.3515,-0.3912,-0.4646,-0.5571,-0.611,0.0,0.0,0.0,0.0,-0.973,-1.095,-1.2295,-1.3719,-1.5348,-1.675,-1.8098,-1.9511,-2.0624,-2.1569,-2.2378,-2.2921,-2.3319,-2.3437,-2.3224,-2.3076,-2.3549,-2.4745,-2.5836,-2.555,-2.5743,-2.5847,-2.5014,-2.4968,-2.5069,-2.4896,-2.4917,-2.498,-2.5087,-2.5572,-2.6033,-2.6139,-2.6261,-2.6618,-2.7423,-2.7073,-2.6912,-2.7535,-2.7404,-2.71,-2.6786,-2.6408,-2.595,-2.532,-2.5253,-2.5,-2.4469,-2.4084,-2.3996,-2.4296,-2.3333,-2.3069,-2.377,-2.3693,-2.3795,-2.4233,-2.3092,-2.229,-2.1808,-2.1099,-2.1183,-2.2054,-2.215,-2.268,0.5407,0.5313,0.5159,0.4922,0.473,0.4641,0.4964,0.4548,0.4125,0.4166,0.4341,0.4463,0.4363,0.4711,0.5078,0.5281,0.5431,0.0,0.5145,0.4957,0.4725,0.4287,0.0,0.0,0.0,0.0,0.0,0.0,0.0,0.0,0.0,0.0,0.0,0.2561,0.2156,0.1034,-0.0929,-0.1478,-0.1873,-0.2112,-0.274,-0.3443,-0.4219,-0.5574,0.0,0.0,0.0,0.0,-0.9402,-1.0234,-1.1057,-1.207,-1.416,-1.5551,-1.667,-1.8507,-1.9855,-2.0934,-2.1755,-2.2213,-2.2517,-2.2949,-2.2778,-2.2508,-2.2932,-2.349,-2.4076,-2.467,-2.4611,-2.4521,-2.4978,-2.4689,-2.4372,-2.4676,-2.4817,-2.4898,-2.4987,-2.5096,-2.5235,-2.5363,-2.5496,-2.5859,-2.667,-2.6714,-2.6861,-2.7537,-2.7259,-2.6886,-2.6643,-2.6226,-2.5683,-2.4919,-2.5131,-2.502,-2.424,-2.3919,-2.3826,-2.4032,-2.3522,-2.3289,-2.3466,-2.4075,-2.4495,-2.472,-2.3888,-2.3308,-2.2992,-2.1995,-2.1944,-2.277,-2.2613,-2.3257,0.6248,0.6542,0.6291,0.5035,0.5041,0.5386,0.5539,0.5564,0.5638,0.5792,0.5819,0.5927,0.6284,0.611,0.5997,0.6305,0.62,0.6174,0.0,0.0,0.5595,0.0,0.0,0.0,0.0,0.0,0.0,0.0,0.0,0.0,0.0,0.0,0.0,0.3723,0.3285,0.2775,0.2129,0.0751,-0.0077,-0.0391,-0.1018,-0.1957,-0.3287,-0.4081,-0.4948,0.0,0.0,-0.7399,-0.8155,-0.8723,-1.0042,-1.1722,-1.2151,-1.3816,-1.5887,-1.6135,-1.7265,-1.8865,-2.0772,-2.1391,-2.1436,-2.1879,-2.1408,-2.0752,-2.1126,-2.1553,-2.2065,-2.253,-2.3563,-2.4438,-2.4179,-2.415,-2.4284,-2.4564,-2.4676,-2.4783,-2.4964,-2.505,-2.5163,-2.5357,-2.5453,-2.5808,-2.6738,-2.631,-2.6116,-2.6829,-2.5626,-2.457,-2.4405,-2.4119,-2.3844,-2.3612,-2.4116,-2.4393,-2.415,-2.4034,-2.3928,-2.3853,-2.2668,-2.2422,-2.347,-2.4323,-2.5097,-2.5757,-2.4443,-2.377,-2.3896,-2.2562,-2.2203,-2.2728,-2.2737,-2.3041,0.6034,0.6341,0.6508,0.6447,0.6755,0.7106,0.7232,0.735,0.7367,0.7163,0.7267,0.7367,0.7257,0.7198,0.731,0.7693,0.0,0.7679,0.749,0.7274,0.0,0.0,0.0,0.0,0.0,0.0,0.0,0.0,0.0,0.0,0.0,0.0,0.0,0.0,0.4534,0.4255,0.4163,0.3163,0.2109,0.0922,0.0,-0.0922,-0.1919,-0.322,-0.4292,-0.5056,0.0,-0.6996,-0.7564,-0.8103,-0.9108,-1.0389,-1.0802,-1.1955,-1.3592,-1.5087,-1.6547,-1.8049,-1.9724,-2.0502,-2.0736,-2.1153,-2.0816,-2.0373,-2.0745,-2.115,-2.1568,-2.1982,-2.2831,-2.3647,-2.3674,-2.3858,-2.4096,-2.4321,-2.4461,-2.4575,-2.4753,-2.4851,-2.5006,-2.5245,-2.5356,-2.5707,-2.6737,-2.6227,-2.5824,-2.6158,-2.5029,-2.3971,-2.3427,-2.3198,-2.3212,-2.3569,-2.3871,-2.4181,-2.4501,-2.4445,-2.4168,-2.3666,-2.287,-2.2818,-2.3725,-2.4198,-2.4815,-2.5615,-2.4665,-2.4282,-2.4462,-2.2929,-2.2793,-2.3979,-2.3538,-2.3884,0.6259,0.6411,0.6759,0.7921,0.815,0.8259,0.8909,0.891,0.8756,0.8623,0.8864,0.891,0.8304,0.8276,0.8506,0.8947,0.9066,0.8967,0.8568,0.0,0.0,0.0,0.0,0.0,0.0,0.0,0.0,0.0,0.0,0.0,0.0,0.0,0.0,0.0,0.569,0.5535,0.556,0.5107,0.4021,0.2206,0.1117,0.0224,-0.0519,-0.216,-0.3362,-0.4254,-0.5591,-0.6455,-0.7012,-0.7514,-0.8132,-0.8954,-0.9554,-1.046,-1.1636,-1.4119,-1.5869,-1.724,-1.8539,-1.943,-2.0048,-2.0592,-2.057,-2.0392,-2.0679,-2.1119,-2.1554,-2.1823,-2.2337,-2.2902,-2.3312,-2.3606,-2.3878,-2.4096,-2.4266,-2.4425,-2.4559,-2.4692,-2.4851,-2.5126,-2.5219,-2.5568,-2.6431,-2.5936,-2.541,-2.5398,-2.4385,-2.34,-2.2726,-2.272,-2.2921,-2.3321,-2.366,-2.4023,-2.4383,-2.4648,-2.4441,-2.3638,-2.3394,-2.3554,-2.4261,-2.4533,-2.5033,-2.5821,-2.5265,-2.5078,-2.5269,-2.3541,-2.3508,-2.5002,-2.4318,-2.4689,0.7958,0.776,0.7598,0.8812,0.813,0.7738,0.9882,0.9712,0.9361,1.037,1.0695,1.0656,1.0093,0.9521,0.9276,0.98,0.9436,0.9225,0.0,0.0,0.0,0.0,0.0,0.0,0.0,0.0,0.0,0.0,0.0,0.0,0.0,0.0,0.0,0.0,0.0,0.6375,0.6203,0.603,0.5147,0.3717,0.3057,0.2013,0.0632,-0.0504,-0.1819,-0.3264,-0.4031,-0.5035,-0.6,-0.6376,-0.6968,-0.7695,-0.8132,-0.935,-1.1087,-1.2729,-1.4186,-1.5558,-1.7049,-1.8165,-1.9092,-2.0331,-2.0563,-2.0376,-2.0441,-2.0974,-2.1573,-2.1554,-2.2015,-2.2605,-2.3028,-2.3376,-2.3692,-2.3937,-2.4172,-2.4357,-2.4547,-2.461,-2.4708,-2.5042,-2.5167,-2.5304,-2.5634,-2.5031,-2.4491,-2.4488,-2.3066,-2.1953,-2.189,-2.2523,-2.2663,-2.1851,-2.3158,-2.3758,-2.3024,-2.4253,-2.4735,-2.3928,-2.3967,-2.4348,-2.5074,-2.589,-2.6692,-2.7419,-2.6711,-2.6445,-2.665,-2.4845,-2.4233,-2.4727,-2.4598,-2.4734,0.7134,0.7802,0.8597,0.9436,0.9492,0.9631,1.0687,1.1353,1.187,1.2087,1.2431,1.2399,1.1432,1.0801,1.0524,1.0832,1.0833,1.0778,0.0,0.0,0.0,0.0,0.0,0.0,0.0,0.0,0.0,0.0,0.0,0.0,0.0,0.0,0.0,0.0,0.0,0.7316,0.7145,0.7208,0.6934,0.6246,0.4455,0.3225,0.251,0.1257,0.0141,-0.0918,-0.2199,-0.3258,-0.4136,-0.5306,-0.6218,-0.6937,-0.7847,-0.859,-0.9351,-1.0676,-1.1654,-1.2521,-1.3534,-1.457,-1.5647,-1.6892,-1.7801,-1.8599,-1.9546,-2.0449,-2.123,-2.1495,-2.1827,-2.226,-2.2773,-2.3157,-2.3486,-2.3747,-2.3935,-2.4115,-2.4357,-2.4019,-2.3955,-2.492,-2.4687,-2.4436,-2.4739,-2.4572,-2.4027,-2.2951,-2.2225,-2.16,-2.1063,-2.1269,-2.1714,-2.2453,-2.406,-2.4676,-2.3628,-2.3736,-2.418,-2.4973,-2.4907,-2.4786,-2.4655,-2.5039,-2.5796,-2.6892,-2.6894,-2.655,-2.5868,-2.4136,-2.3957,-2.5176,-2.4053,-2.388,0.723,0.8009,0.9059,0.9893,1.0579,1.1231,1.1937,1.2579,1.3163,1.3484,1.3585,1.3441,1.2715,1.2084,1.1747,0.0,1.2051,0.0,0.0,0.0,0.0,0.0,0.0,0.0,0.0,0.0,0.0,0.0,0.0,0.0,0.0,0.0,0.0,0.0,0.0,0.0,0.83,0.8386,0.833,0.819,0.6267,0.5038,0.4345,0.3099,0.2084,0.122,-0.0199,-0.1382,-0.2504,-0.3862,-0.5051,-0.6136,-0.7098,-0.7467,-0.7598,-0.8717,-0.9445,-1.0024,-1.128,-1.2317,-1.3263,-1.4721,-1.5971,-1.7103,-1.8356,-1.9401,-2.0238,-2.0671,-2.1119,-2.159,-2.2095,-2.2728,-2.3265,-2.3504,-2.3707,-2.3899,-2.4153,-2.3823,-2.3787,-2.4828,-2.4585,-2.4224,-2.4261,-2.4093,-2.3465,-2.1984,-2.1549,-2.1175,-2.0584,-2.0731,-2.1407,-2.2707,-2.3593,-2.3776,-2.2996,-2.3027,-2.3604,-2.4803,-2.4705,-2.4646,-2.475,-2.509,-2.5715,-2.6634,-2.6915,-2.6643,-2.5827,-2.4397,-2.4196,-2.5135,-2.416,-2.3754,0.8799,0.8662,0.8917,1.0195,1.1186,1.2214,1.3695,1.318,1.2852,1.4395,1.4077,1.3599,1.3957,1.329,1.2821,1.3171,0.0,0.0,0.0,0.0,0.0,0.0,0.0,0.0,0.0,0.0,0.0,0.0,0.0,0.0,0.0,0.0,0.0,0.0,0.0,0.0,0.9621,0.9397,0.9329,0.9384,0.8808,0.7656,0.6094,0.5103,0.4089,0.3058,0.204,0.051,-0.1282,-0.2109,-0.3472,-0.5255,-0.5806,-0.5919,-0.5988,-0.6993,-0.7659,-0.83,-1.0699,-1.1741,-1.2411,-1.4548,-1.5662,-1.6278,-1.6913,-1.7796,-1.8658,-1.8918,-1.978,-2.0643,-2.0927,-2.1979,-2.3028,-2.3241,-2.3508,-2.3735,-2.3937,-2.4135,-2.4407,-2.482,-2.4984,-2.4889,-2.429,-2.3525,-2.2693,-2.1828,-2.1006,-2.05,-2.05,-2.125,-2.1903,-2.2244,-2.1305,-2.0644,-2.0605,-2.2127,-2.3086,-2.3109,-2.3105,-2.3877,-2.5603,-2.652,-2.6984,-2.6955,-2.6907,-2.6903,-2.6958,-2.6038,-2.5177,-2.4413,-2.5121,-2.4581,0.8314,0.9408,1.0764,1.1629,1.3196,1.4747,1.5452,1.5039,1.4663,1.5168,1.4699,1.4251,1.4339,1.3656,0.0,0.0,0.0,0.0,0.0,0.0,0.0,0.0,0.0,0.0,0.0,0.0,0.0,0.0,0.0,0.0,0.0,0.0,0.0,0.0,0.0,0.0,1.0531,1.0496,1.0504,1.0432,1.0076,0.9039,0.7351,0.6705,0.616,0.5533,0.3841,0.2795,0.2026,-0.0706,-0.2733,-0.4221,-0.4761,-0.509,-0.5214,-0.586,-0.6222,-0.6597,-0.7729,-0.8375,-0.9088,-1.1267,-1.2704,-1.388,-1.5507,-1.705,-1.8358,-1.8847,-1.9623,-2.0337,-2.041,-2.0916,-2.1667,-2.2813,-2.3319,-2.345,-2.3025,-2.3098,-2.3381,-2.3818,-2.3986,-2.3861,-2.3256,-2.304,-2.2417,-2.0882,-2.0515,-2.0443,-2.0495,-2.0724,-2.0923,-2.1013,-2.2923,-2.3215,-2.0795,-2.1051,-2.1831,-2.3034,-2.2754,-2.2944,-2.3822,-2.5297,-2.5313,-2.366,-2.5231,-2.5461,-2.4253,-2.398,-2.4014,-2.4306,-2.3304,-2.2887,0.9292,1.0643,1.2266,1.3491,1.4802,1.5971,1.6573,1.6309,1.5909,1.5915,1.5422,1.4995,1.5093,1.446,0.0,0.0,0.0,0.0,0.0,0.0,0.0,0.0,0.0,0.0,0.0,0.0,0.0,0.0,0.0,0.0,0.0,0.0,0.0,0.0,0.0,0.0,1.1567,1.1704,1.1661,1.1489,1.1124,1.0335,0.9119,0.841,0.7847,0.7407,0.5505,0.4479,0.3896,0.0922,-0.1094,-0.2279,-0.3186,-0.3602,-0.3789,-0.4422,-0.4815,-0.5226,-0.6041,-0.6593,-0.7295,-0.9408,-1.0856,-1.209,-1.403,-1.5642,-1.7036,-1.7748,-1.8695,-1.9535,-1.9704,-2.0383,-2.1284,-2.2254,-2.2741,-2.2977,-2.2952,-2.3146,-2.3419,-2.3817,-2.3704,-2.3384,-2.2795,-2.2491,-2.1866,-2.0453,-2.0352,-2.0443,-2.0492,-2.0511,-2.0507,-2.0507,-2.236,-2.2776,-2.074,-2.1191,-2.1747,-2.2097,-2.2226,-2.2222,-2.2078,-2.3751,-2.4004,-2.2582,-2.3957,-2.4148,-2.3093,-2.3061,-2.313,-2.3257,-2.2536,-2.2131,1.105,1.2071,1.3417,1.5432,1.6014,1.6362,1.721,1.7105,1.6752,1.66,1.6178,1.5878,1.6034,1.552,1.5001,0.0,0.0,0.0,0.0,0.0,0.0,0.0,0.0,0.0,0.0,0.0,0.0,0.0,0.0,0.0,0.0,0.0,0.0,0.0,0.0,0.0,1.2803,1.2903,1.2852,0.0,1.2067,1.161,1.1191,1.0049,0.9316,0.8754,0.7184,0.5958,0.4917,0.284,0.1323,0.0231,-0.1106,-0.1723,-0.1958,-0.2794,-0.3408,-0.3956,-0.5206,-0.581,-0.6416,-0.8389,-0.9592,-1.0551,-1.2227,-1.3616,-1.4803,-1.579,-1.7016,-1.8168,-1.8751,-2.0004,-2.1253,-2.1507,-2.1931,-2.2482,-2.3227,-2.3762,-2.4136,-2.4265,-2.3896,-2.3417,-2.2774,-2.2085,-2.1317,-2.0429,-2.0394,-2.0488,-2.048,-2.048,-2.0483,-2.0483,-2.0435,-2.0429,-2.0497,-2.1954,-2.236,-2.1141,-2.1736,-2.1697,-2.0706,-2.2237,-2.3033,-2.2861,-2.2952,-2.2959,-2.2866,-2.2887,-2.2464,-2.1716,-2.2414,-2.195,1.0626,1.2004,1.3668,1.5576,1.6894,1.7669,1.7463,1.7555,1.7585,1.7144,1.6873,1.6696,1.657,1.5986,0.0,0.0,0.0,0.0,0.0,0.0,0.0,0.0,0.0,0.0,0.0,0.0,0.0,0.0,0.0,0.0,0.0,0.0,0.0,0.0,0.0,1.4157,1.4086,1.391,1.372,0.0,1.3074,1.2861,1.2841,1.1449,1.0558,1.0019,0.9523,0.8397,0.6811,0.5545,0.3955,0.2184,0.094,-0.0112,-0.0949,-0.0891,-0.1334,-0.1941,-0.2532,-0.3132,-0.392,-0.5635,-0.6849,-0.7868,-0.8694,-1.0287,-1.1981,-1.3054,-1.4406,-1.5786,-1.6783,-1.7954,-1.9083,-2.0188,-2.1713,-2.267,-2.175,-2.2862,-2.373,-2.2734,-2.3574,-2.4021,-2.2684,-2.2448,-2.1949,-2.0518,-2.0313,-2.0339,-2.0334,-2.0386,-2.0423,-2.0423,-2.0411,-2.0448,-2.0575,-2.0913,-2.2135,-2.4452,-2.2301,-2.1248,-2.1893,-2.2674,-2.2458,-2.1084,-2.1895,-2.1891,-2.1065,-2.1687,-2.1878,-2.1681,-2.1144,-2.1056,1.0917,1.2346,1.4032,1.6452,1.7591,1.8045,1.7697,1.7553,1.7404,1.7025,1.6969,1.6916,1.6808,0.0,0.0,0.0,0.0,0.0,0.0,0.0,0.0,0.0,0.0,0.0,0.0,0.0,0.0,0.0,0.0,0.0,0.0,0.0,0.0,0.0,1.5165,1.5269,1.4926,1.4869,1.4687,1.4457,1.3946,1.3758,1.3805,1.2648,1.1945,1.1626,1.1233,1.0376,0.921,0.813,0.6622,0.4844,0.375,0.2569,0.1488,0.1324,0.0772,0.0,-0.0384,-0.1319,-0.254,-0.3627,-0.4923,-0.6178,-0.7328,-0.8816,-1.0501,-1.1963,-1.3334,-1.4607,-1.5674,-1.7041,-1.8358,-1.951,-2.1043,-2.2118,-2.168,-2.2736,-2.3555,-2.2693,-2.2954,-2.321,-2.2827,-2.207,-2.1203,-2.0337,-2.0257,-2.0312,-2.0312,-2.0323,-2.0366,-2.0399,-2.0372,-2.0392,-2.0504,-2.0555,-2.1356,-2.3096,-2.2314,-2.1692,-2.1482,-2.1751,-2.126,-1.9899,-2.04,-2.0399,-1.9876,-2.0649,-2.1024,-2.1024,-2.0481,-2.0496,1.1121,1.2711,1.4473,1.7165,1.7896,1.7919,1.7662,1.7282,1.6924,1.6573,1.6709,1.6872,1.6834,0.0,0.0,0.0,0.0,0.0,0.0,0.0,0.0,0.0,0.0,0.0,0.0,0.0,0.0,0.0,0.0,0.0,0.0,0.0,1.5856,1.5466,1.614,1.6254,1.57,1.5764,1.572,1.5487,1.4937,1.4641,1.4536,1.3956,1.3589,1.3321,1.2751,1.2191,1.1731,1.0661,0.9297,0.78,0.6894,0.569,0.4351,0.3917,0.3111,0.2138,0.1648,0.0385,-0.1105,-0.1877,-0.321,-0.4752,-0.6273,-0.7609,-0.8971,-1.0897,-1.2223,-1.3419,-1.4643,-1.6367,-1.7977,-1.8863,-2.013,-2.1266,-2.1814,-2.2745,-2.3328,-2.283,-2.2255,-2.2076,-2.2914,-2.1448,-2.0153,-2.0135,-1.9701,-1.9396,-1.9404,-1.9938,-2.0342,-2.0392,-2.0337,-2.0323,-2.0392,-1.9951,-1.9918,-2.0489,-2.1878,-2.1947,-2.0366,-2.0486,-2.0022,-1.8773,-1.8837,-1.8875,-1.8813,-1.9792,-2.021,-2.0089,-2.015,-2.0197,1.0192,1.258,1.5116,1.6409,1.7125,1.7357,1.6863,1.6936,1.6818,1.5855,1.6246,1.6726,0.0,0.0,0.0,0.0,0.0,0.0,0.0,0.0,0.0,0.0,0.0,0.0,0.0,0.0,0.0,0.0,0.0,0.0,0.0,1.6442,1.6442,1.6497,1.6761,1.6944,1.6976,1.6752,1.6697,1.6769,1.6355,1.5932,1.5457,1.5579,1.5311,1.4789,1.4479,1.4281,1.4173,1.3051,1.1879,1.0652,0.9866,0.8298,0.6565,0.7067,0.6322,0.5004,0.4078,0.3094,0.2004,0.023,-0.1285,-0.2528,-0.3301,-0.4386,-0.5783,-0.7705,-0.9136,-1.0555,-1.2705,-1.4811,-1.661,-1.7477,-1.9081,-2.0492,-2.0753,-2.1966,-2.266,-2.1513,-2.1609,-2.2027,-2.2443,-2.1138,-2.0087,-2.0252,-1.7669,-1.5727,-1.5795,-1.8428,-2.0342,-2.0392,-2.0337,-2.0323,-2.0392,-1.7698,-1.7315,-2.0394,-2.0817,-2.0351,-1.9093,-2.0048,-1.9456,-1.6999,-1.768,-1.7808,-1.7298,-1.9258,-1.9857,-1.9201,-1.9877,-2.0195,0.9874,1.1754,1.3706,1.5352,1.6231,1.6593,1.6337,1.6713,1.6846,1.5963,1.632,0.0,0.0,0.0,0.0,0.0,0.0,0.0,0.0,0.0,0.0,0.0,0.0,0.0,0.0,0.0,0.0,0.0,0.0,0.0,1.7089,1.7359,1.7385,1.7144,1.7613,1.7752,1.7584,1.7393,1.7256,1.7089,1.7005,1.674,1.6398,1.6582,1.6293,1.5611,1.535,1.5061,1.4724,1.479,1.3929,1.254,1.2812,1.1677,0.9842,0.9607,0.87,0.7424,0.6172,0.4852,0.3539,0.2264,0.0741,-0.0744,-0.1333,-0.2413,-0.3901,-0.6055,-0.7658,-0.9195,-1.1364,-1.3564,-1.5485,-1.6581,-1.7932,-1.9214,-2.0174,-2.1498,-2.2199,-2.1152,-2.2253,-2.2776,-2.096,-2.0232,-1.9284,-1.749,-1.5891,-1.4886,-1.4877,-1.6241,-1.7273,-1.7413,-1.7464,-1.7504,-1.7542,-1.6157,-1.5974,-1.7591,-1.8594,-1.8741,-1.7874,-1.7704,-1.7396,-1.6881,-1.6596,-1.6769,-1.744,-1.8652,-1.9396,-1.968,-1.995,-2.0088,0.9781,1.0816,1.181,1.3953,1.4939,1.5476,1.5814,1.6274,1.6535,0.0,0.0,0.0,0.0,0.0,0.0,0.0,0.0,0.0,0.0,0.0,0.0,0.0,0.0,0.0,0.0,0.0,0.0,0.0,0.0,0.0,1.7707,1.7989,1.8016,1.7801,1.8194,1.8344,1.8135,1.8042,1.7787,1.7475,1.7571,1.7476,1.7271,1.7421,1.7173,1.6672,1.6404,1.5903,1.5402,1.6284,1.5809,1.4614,1.5417,1.4525,1.2762,1.1987,1.088,0.9529,0.7844,0.6303,0.4931,0.3657,0.2104,0.0606,-0.0055,-0.1096,-0.2513,-0.4656,-0.639,-0.8078,-1.0097,-1.2252,-1.4257,-1.5397,-1.6559,-1.7948,-2.0124,-2.1204,-2.1433,-2.0405,-2.1787,-2.2325,-1.9807,-1.8938,-1.7726,-1.5179,-1.4756,-1.4746,-1.4774,-1.4794,-1.4876,-1.5078,-1.5201,-1.5287,-1.5308,-1.6105,-1.6256,-1.5457,-1.6621,-1.7275,-1.7105,-1.5938,-1.5721,-1.6649,-1.6542,-1.6858,-1.758,-1.8194,-1.8977,-1.9865,-1.9745,-1.9792,0.986,0.9923,0.9939,1.203,1.2999,1.3828,1.5276,1.5509,1.5604,1.6307,0.0,0.0,0.0,0.0,0.0,0.0,0.0,0.0,0.0,0.0,0.0,0.0,0.0,0.0,0.0,0.0,0.0,0.0,0.0,0.0,1.8511,1.7941,1.7899,1.8525,1.8278,1.8345,1.8855,1.8769,1.8592,1.8226,1.8383,1.8291,1.8066,1.8173,1.8305,1.8461,1.8027,1.7526,1.7022,1.7661,1.7666,1.7288,1.734,1.6223,1.4547,1.4371,1.3149,1.1223,0.8907,0.767,0.6637,0.3972,0.2392,0.1379,0.0424,-0.0424,-0.1379,-0.2992,-0.4748,-0.6643,-0.8515,-1.0722,-1.2638,-1.3538,-1.4849,-1.6975,-2.0891,-2.1076,-2.0056,-1.8635,-1.8911,-1.9419,-1.9563,-1.7168,-1.5146,-1.4851,-1.4635,-1.4632,-1.493,-1.4877,-1.4876,-1.5078,-1.5159,-1.5229,-1.5284,-1.8258,-1.8788,-1.5604,-1.5488,-1.6015,-1.7065,-1.5945,-1.5355,-1.5491,-1.8294,-1.884,-1.695,-1.7991,-1.8655,-1.8981,-1.8896,-1.9269,0.9592,0.937,0.9354,1.1425,1.2106,1.2661,1.4106,1.5392,1.6247,1.6182,0.0,0.0,0.0,0.0,0.0,0.0,0.0,0.0,0.0,0.0,0.0,0.0,0.0,0.0,0.0,0.0,0.0,0.0,0.0,0.0,1.8921,1.8809,1.8795,1.8936,1.8528,1.8402,1.8628,1.9184,1.9244,1.8869,1.9147,1.9035,1.8602,1.8884,1.8803,1.8441,1.8883,1.8561,1.776,1.7987,1.7932,1.7754,1.7871,1.7064,1.5744,1.4979,1.3912,1.2627,1.0867,1.0019,0.9307,0.6876,0.5684,0.4872,0.3601,0.2617,0.1524,-0.0213,-0.2266,-0.4402,-0.6876,-0.9431,-1.1877,-1.3781,-1.5089,-1.6263,-1.7548,-1.9521,-2.046,-1.8516,-1.8345,-1.8677,-1.9202,-1.6888,-1.499,-1.493,-1.4785,-1.4766,-1.4982,-1.4995,-1.5027,-1.5085,-1.512,-1.5176,-1.5299,-1.6428,-1.6626,-1.5464,-1.5406,-1.5585,-1.5994,-1.5546,-1.531,-1.5336,-1.6302,-1.6453,-1.5751,-1.7507,-1.8507,-1.8774,-1.8687,-1.913,0.9875,0.937,0.9107,1.0976,1.1433,1.1872,1.3515,1.4923,1.5846,1.5743,0.0,0.0,0.0,0.0,0.0,0.0,0.0,0.0,0.0,0.0,0.0,0.0,0.0,0.0,0.0,0.0,0.0,0.0,0.0,0.0,1.9362,1.9337,1.9221,1.8926,1.8597,1.8545,1.8721,1.9295,1.9542,1.9522,1.9767,1.9711,1.9442,1.966,1.9321,1.8653,1.9325,1.9091,1.832,1.8626,1.8532,1.8276,1.827,1.7626,1.6527,1.5562,1.4848,1.4147,1.2764,1.2187,1.1803,0.9845,0.8686,0.7849,0.6767,0.5728,0.4558,0.2858,0.0803,-0.156,-0.4361,-0.7647,-1.0748,-1.3064,-1.4196,-1.48,-1.4989,-1.7615,-1.9585,-1.8475,-1.8328,-1.86,-1.917,-1.7758,-1.6167,-1.5075,-1.485,-1.4859,-1.499,-1.5068,-1.5092,-1.5092,-1.5113,-1.5638,-1.6904,-1.5986,-1.5346,-1.5398,-1.5371,-1.5388,-1.5409,-1.5368,-1.529,-1.5197,-1.5073,-1.4987,-1.4968,-1.6423,-1.7631,-1.8625,-1.8289,-1.8738,0.0,0.0,0.0,1.0582,1.0897,1.1412,1.358,1.407,1.4282,1.5031,0.0,0.0,0.0,0.0,0.0,0.0,0.0,0.0,0.0,0.0,0.0,0.0,0.0,0.0,0.0,0.0,0.0,0.0,0.0,2.0089,1.9833,1.9538,1.909,1.853,1.8545,1.8781,1.9175,1.9173,1.951,2.0208,2.0243,2.0326,2.0527,2.0444,2.0038,1.9369,1.9386,1.9175,1.8805,1.9622,1.9569,1.8961,1.8759,1.7947,1.6849,1.6235,1.6008,1.5816,1.4513,1.414,1.4014,1.2569,1.123,1.0089,0.9753,0.8853,0.7652,0.6192,0.4264,0.1961,-0.1125,-0.5281,-0.9126,-1.1104,-1.1891,-1.2539,-1.3663,-1.55,-1.7269,-1.8356,-1.8678,-1.8949,-1.9497,-1.9602,-1.8488,-1.5184,-1.4755,-1.4859,-1.499,-1.5068,-1.5092,-1.5092,-1.5153,-1.6572,-1.9954,-1.7272,-1.5397,-1.5404,-1.5346,-1.532,-1.5385,-1.5389,-1.5251,-1.5014,-1.4957,-1.4827,-1.4632,-1.4728,-1.6051,-1.8441,-1.7641,-1.8141,1.1948,0.0,0.0,0.0,0.0,0.0,1.2891,1.3439,1.36,0.0,0.0,0.0,0.0,0.0,0.0,0.0,0.0,0.0,0.0,0.0,0.0,0.0,0.0,0.0,0.0,0.0,0.0,0.0,1.9437,2.008,2.0581,2.0523,1.9925,1.8754,1.9796,1.9955,1.907,2.013,2.0703,2.0764,2.0975,2.0991,2.0878,2.1055,2.0943,2.0576,2.016,1.9936,1.9796,1.9186,1.8796,1.8579,1.8053,1.7605,1.7175,1.6479,1.6298,1.6369,1.5888,1.5958,1.6009,1.4752,1.4294,1.4027,1.2766,1.1846,1.0997,1.0123,0.8384,0.5618,0.0706,-0.2589,-0.5644,-0.9682,-1.055,-1.1021,-1.3167,-1.484,-1.6235,-1.732,-1.8128,-1.877,-1.917,-1.9311,-1.8324,-1.5173,-1.4755,-1.4859,-1.499,-1.5022,-1.503,-1.503,-1.5127,-1.5603,-1.6614,-1.5919,-1.5397,-1.5404,-1.5379,-1.5288,-1.5127,-1.5023,-1.4995,-1.5064,-1.384,-1.3085,-1.29,-1.4186,-1.5739,-1.7516,-1.844,-1.9374,1.2581,1.197,1.1734,1.2143,0.0,0.0,1.2873,1.326,1.3326,0.0,0.0,0.0,0.0,0.0,0.0,0.0,0.0,0.0,0.0,0.0,0.0,0.0,0.0,0.0,0.0,0.0,0.0,0.0,1.9317,2.0318,2.1134,2.0603,2.0054,1.9609,1.9881,1.9884,1.9641,2.0159,2.071,2.1261,2.1402,2.1448,2.1385,2.1493,2.139,2.1049,2.0964,2.0463,1.9591,1.9216,1.9026,1.8888,1.8075,1.7805,1.7823,1.718,1.7149,1.7477,1.749,1.776,1.7879,1.6917,1.6675,1.6615,1.5384,1.4657,1.4079,1.3497,1.151,0.8365,0.3203,0.0574,-0.2332,-0.853,-0.9909,-1.0213,-1.1802,-1.3696,-1.5198,-1.5712,-1.594,-1.6664,-1.8538,-1.9051,-1.8166,-1.5076,-1.4654,-1.4766,-1.5003,-1.4963,-1.4947,-1.5019,-1.5133,-1.5229,-1.5287,-1.527,-1.5309,-1.5348,-1.5368,-1.5226,-1.493,-1.3548,-1.2858,-1.2973,-1.2414,-1.2313,-1.2697,-1.3719,-1.516,-1.7025,-1.8324,-1.9467,1.3201,1.2789,1.2757,1.261,1.2578,0.0,1.3294,1.3447,1.3464,0.0,0.0,0.0,0.0,0.0,0.0,0.0,0.0,0.0,0.0,0.0,0.0,0.0,0.0,0.0,0.0,0.0,1.8032,1.8049,1.9406,2.0564,2.1341,2.0237,1.991,2.0555,1.9495,1.9452,2.0541,1.9874,2.025,2.1694,2.1711,2.1784,2.1957,2.1928,2.1652,2.1204,2.1743,2.0877,1.9106,1.9555,1.9671,1.9422,1.8516,1.8365,1.856,1.8065,1.8187,1.8659,1.8872,1.9137,1.9275,1.8802,1.8462,1.8205,1.7768,1.7315,1.691,1.6427,1.4194,1.0981,0.7107,0.4887,0.1435,-0.7561,-0.9807,-1.005,-1.0457,-1.2518,-1.42,-1.396,-1.31,-1.3589,-1.7275,-1.8271,-1.763,-1.494,-1.4556,-1.4687,-1.5,-1.4919,-1.4911,-1.5106,-1.5165,-1.5207,-1.5238,-1.5063,-1.504,-1.519,-1.5215,-1.5088,-1.4785,-1.1688,-0.9971,-0.996,-1.1118,-1.2215,-1.3242,-1.3512,-1.4722,-1.6812,-1.7672,-1.887,1.5641,1.521,1.5072,0.0,0.0,0.0,1.3743,1.4089,1.4331,0.0,0.0,0.0,0.0,0.0,0.0,0.0,0.0,0.0,0.0,0.0,0.0,0.0,0.0,0.0,0.0,0.0,1.7831,1.8367,1.9329,1.992,1.9987,2.0471,2.0492,1.9843,2.0958,2.1316,2.0822,2.134,2.1827,2.226,2.2248,2.2293,2.2388,2.248,2.2466,2.2365,2.1936,2.1579,2.1173,1.9981,1.9303,1.9009,1.8767,1.8758,1.8807,1.8543,1.8268,1.8058,1.8038,1.822,1.8544,1.9201,1.942,1.9544,2.0031,1.9862,1.9417,1.8986,1.7878,1.6705,1.6231,1.3922,0.8046,-0.6674,-1.0189,-1.0611,-1.1957,-1.2883,-1.34,-1.3305,-1.254,-1.2422,-1.3905,-1.4666,-1.4999,-1.478,-1.4885,-1.4928,-1.4803,-1.4938,-1.5106,-1.5245,-1.5218,-1.5115,-1.4909,-1.4423,-1.4283,-1.4634,-1.4651,-1.4627,-1.4567,-1.1468,-0.9754,-0.9761,-1.1497,-1.236,-1.2287,-1.4221,-1.5704,-1.6747,-1.7444,-1.8572,0.0,0.0,0.0,1.5992,0.0,0.0,0.0,1.5367,1.5349,1.5349,1.4727,0.0,0.0,0.0,0.0,0.0,0.0,0.0,0.0,0.0,0.0,0.0,0.0,0.0,0.0,0.0,1.7843,1.8543,1.8692,1.9077,1.9762,2.0305,2.0585,2.055,2.1402,2.182,2.1684,2.1766,2.2034,2.2535,2.2525,2.2596,2.2764,2.2816,2.2868,2.2867,2.2247,2.1984,2.1907,2.0279,1.9755,1.9904,1.8898,1.9019,1.9709,1.9403,1.916,1.897,1.9093,1.9292,1.9476,1.9621,2.0237,2.0927,2.1097,2.1304,2.1346,2.0652,2.0305,2.0177,2.035,1.9111,1.5997,0.8663,0.5656,0.2012,-0.6935,-0.6297,-0.489,-0.7809,-1.0566,-1.2604,-1.303,-1.2516,-1.2133,-1.2369,-1.3918,-1.4947,-1.4651,-1.4804,-1.5,-1.5146,-1.5236,-1.5098,-1.4594,-1.4428,-1.432,-1.4201,-1.4198,-1.4078,-1.3798,-1.2549,-1.1683,-1.1357,-1.2194,-1.2727,-1.2896,-1.4136,-1.5339,-1.6467,-1.6824,-1.8145,0.0,0.0,0.0,0.0,0.0,1.7199,0.0,0.0,0.0,1.6843,0.0,0.0,0.0,0.0,0.0,0.0,0.0,0.0,0.0,0.0,0.0,0.0,0.0,0.0,0.0,0.0,1.7294,1.8031,1.762,1.7991,1.9527,1.9991,2.0601,2.1473,2.1678,2.2039,2.2605,2.2014,2.2091,2.2816,2.2764,2.2842,2.3045,2.3095,2.3144,2.3157,2.2686,2.2509,2.2402,2.0965,2.0722,2.1046,1.9245,1.9328,2.0463,2.0261,2.0082,1.9991,2.0408,2.0605,2.0629,2.0306,2.1027,2.1966,2.1633,2.1982,2.2388,2.1762,2.191,2.2237,2.2251,2.2153,2.2367,2.3468,2.2078,1.6674,0.2676,0.4117,0.6725,0.1888,-0.5658,-1.1659,-1.2832,-1.1859,-1.0929,-1.0954,-1.2898,-1.4297,-1.4007,-1.512,-1.5439,-1.4149,-1.4309,-1.4307,-1.3859,-1.4076,-1.4087,-1.3711,-1.3653,-1.3462,-1.3137,-1.3368,-1.3241,-1.2652,-1.2631,-1.2914,-1.3511,-1.3863,-1.4752,-1.6098,-1.6167,-1.753,0.0,0.0,0.0,0.0,1.9935,0.0,0.0,0.0,1.7835,1.6571,0.0,0.0,0.0,0.0,0.0,0.0,0.0,0.0,0.0,0.0,0.0,0.0,0.0,0.0,0.0,0.0,0.0,1.5819,1.5903,1.6598,1.8141,1.9694,2.0869,2.1581,2.2489,2.3007,2.3028,2.2958,2.3032,2.3241,2.3168,2.3144,2.3193,2.336,2.3448,2.3453,2.3522,2.3559,2.3554,2.2768,2.2136,2.1498,2.0279,1.9912,2.0123,2.0681,2.0417,1.9815,2.0463,2.0697,2.0836,2.1655,2.1983,2.2094,2.2028,2.1757,2.1626,2.2402,2.2716,2.2915,2.3297,2.3441,2.3248,2.2303,2.3456,2.325,1.7594,1.7621,1.8477,1.751,0.5421,-0.6418,-1.1882,-1.3632,-1.4304,-1.4414,-1.3144,-1.2158,-1.2107,-1.6696,-1.7515,-1.1157,-1.0929,-1.1454,-1.2037,-1.2167,-1.2421,-1.2906,-1.2704,-1.2764,-1.3173,-1.2273,-1.1642,-1.1321,-1.2001,-1.2397,-1.2464,-1.3852,-1.495,-1.5755,-1.5774,-1.6604,0.0,0.0,0.0,0.0,0.0,0.0,1.8834,0.0,1.7982,0.0,0.0,0.0,0.0,0.0,0.0,0.0,0.0,0.0,0.0,0.0,0.0,0.0,0.0,0.0,0.0,0.0,0.0,0.0,0.0,1.6439,1.7975,1.9658,2.0964,2.1801,2.2764,2.3217,2.3095,2.3217,2.3313,2.3424,2.3336,2.3383,2.3481,2.3594,2.362,2.3602,2.3343,2.3517,2.385,2.2209,2.1639,2.1673,2.0299,1.9896,2.0155,2.0426,2.0279,2.004,2.0773,2.1119,2.136,2.2265,2.2578,2.2531,2.2023,2.1862,2.2011,2.2903,2.3066,2.3182,2.3879,2.4136,2.371,2.1604,2.2297,2.332,2.2995,2.1463,2.0165,2.0227,1.3834,0.5022,-0.5631,-1.1703,-1.5115,-1.5165,-0.8974,-0.4323,-0.4323,-1.0798,-1.3715,-0.9388,-0.9624,-1.0253,-1.0618,-1.0909,-1.1483,-1.2396,-1.2137,-1.2112,-1.2498,-1.2368,-1.2175,-1.1858,-1.2668,-1.2931,-1.2598,-1.346,-1.4177,-1.4722,-1.5495,-1.6522,2.1995,0.0,0.0,0.0,0.0,0.0,0.0,0.0,0.0,0.0,0.0,0.0,0.0,0.0,1.6585,1.6338,0.0,1.5901,0.0,0.0,0.0,0.0,0.0,0.0,0.0,0.0,0.0,0.0,1.4894,0.0,1.7752,1.9434,2.098,2.2335,2.3035,2.3472,2.3661,2.3565,2.3549,2.3656,2.3611,2.3638,2.3768,2.3813,2.3816,2.378,2.3434,2.3602,2.4025,2.2127,2.1586,2.1821,2.0494,2.0008,2.0087,2.0303,2.0327,2.0387,2.1206,2.1714,2.2185,2.296,2.3143,2.2955,2.2291,2.2012,2.2116,2.3084,2.3145,2.3168,2.4225,2.426,2.3454,2.1121,2.1066,2.2018,2.3828,2.2722,2.113,2.0212,1.8267,1.3126,0.1713,-0.4076,-0.7425,-0.8264,-0.3831,-0.0399,-0.0498,-0.5479,-0.8705,-0.7966,-0.8618,-0.9253,-0.9552,-0.9967,-1.0671,-1.1797,-1.1578,-1.152,-1.1752,-1.2302,-1.2482,-1.2209,-1.3071,-1.3222,-1.2545,-1.3106,-1.3473,-1.3619,-1.4932,-1.6046,0.0,0.0,0.0,2.1868,0.0,0.0,0.0,0.0,2.0666,0.0,0.0,0.0,0.0,1.8128,1.7291,1.6443,1.6303,0.0,0.0,0.0,0.0,0.0,0.0,0.0,0.0,0.0,0.0,1.3445,1.2909,0.0,1.707,1.8813,2.0823,2.3264,2.3571,2.4125,2.5038,2.4215,2.3896,2.4074,2.4016,2.3976,2.3996,2.4054,2.4094,2.4094,2.4135,2.4211,2.4247,2.35,2.2765,2.2017,2.1241,2.0437,1.9804,2.0583,2.0802,2.0823,2.1674,2.2486,2.3265,2.4021,2.3832,2.3265,2.3105,2.2195,2.1511,2.2835,2.2874,2.2855,2.4306,2.3683,2.2297,2.0851,2.0525,2.0529,2.0485,2.2914,2.3943,1.9924,1.7367,1.4218,0.9096,1.1175,1.2543,0.954,0.1555,-0.4242,-0.4576,-0.3332,-0.3586,-0.6724,-0.7405,-0.8045,-0.8962,-0.926,-0.9894,-1.0977,-1.0982,-1.0978,-1.1121,-1.158,-1.1799,-1.1721,-1.2635,-1.2713,-1.1922,-1.2914,-1.3118,-1.2567,-1.378,-1.4692,0.0,0.0,2.6022,2.3333,0.0,0.0,0.0,0.0,0.0,0.0,0.0,0.0,0.0,1.8266,1.7635,1.7333,1.6404,1.5499,0.0,0.0,0.0,0.0,0.0,0.0,0.0,0.0,0.0,1.4243,1.4251,1.531,0.0,1.9702,2.1298,2.2769,2.3437,2.394,2.4296,2.4103,2.4018,2.4096,2.4077,2.4096,2.4135,2.4172,2.4191,2.4247,2.4358,2.4096,2.3574,2.2868,2.2092,2.1297,2.0552,2.0474,2.0781,2.1003,2.1061,2.1243,2.2691,2.3379,2.3631,2.3836,2.3396,2.2672,2.2133,2.2087,2.2305,2.2859,2.2898,2.316,2.4791,2.3232,2.1085,2.0614,2.0476,2.042,2.0319,2.1086,2.1346,1.9841,1.7643,1.5158,1.2498,1.2394,1.0116,0.2672,0.0545,-0.1217,-0.4103,-0.307,-0.2528,-0.3638,-0.562,-0.6886,-0.6892,-0.8077,-0.9077,-0.9702,-0.9894,-0.997,-0.9983,-1.0611,-1.0906,-1.0824,-1.1487,-1.1796,-1.1686,-1.1845,-1.1963,-1.1997,-1.2622,-1.3477,2.6065,2.6569,0.0,2.4538,2.4091,0.0,2.1129,0.0,0.0,0.0,0.0,0.0,0.0,1.9395,1.8379,1.8687,1.7369,1.611,0.0,1.562,0.0,0.0,0.0,0.0,0.0,0.0,1.3356,1.4837,1.4531,1.5298,0.0,0.0,2.0945,2.2104,2.3315,2.3959,2.4036,2.4133,2.4191,2.4248,2.4229,2.4284,2.4338,2.4338,2.4356,2.4409,2.4497,2.4267,2.3737,2.2674,2.1929,2.1418,2.0698,2.0777,2.1295,2.1284,2.1295,2.1556,2.3301,2.3715,2.3571,2.4096,2.3915,2.3419,2.2929,2.2896,2.3141,2.3667,2.3849,2.3874,2.3772,2.2557,2.1194,2.0589,2.0621,2.0714,2.0301,2.0065,1.9912,1.9726,1.8019,1.5991,1.4107,1.2698,0.8965,0.0489,0.1141,0.1688,-0.0905,-0.1585,-0.2049,-0.2587,-0.4229,-0.5376,-0.5614,-0.7047,-0.8052,-0.8371,-0.8767,-0.895,-0.8901,-0.9556,-0.9927,-0.9992,-1.0642,-1.1005,-1.1069,-1.1002,-1.099,-1.1069,-1.142,-1.2271]}]]